[[{"header":{"parameterUnit":"m.s-1","parameterCategory":1,"la1":31.0,"la2":29.5877,"lo1":-88.7671,"lo2":-86.6584,"dx":0.0162,"dy":0.0185,"nx":115,"ny":88,"refTime":"2022-11-23T18:00:00:Z","depth":0,"parameterNumber":2,"parameterNumberName":"U-component_of_WINDS"},"data":[0.0,0.0,0.0,0.0,0.0,0.0,0.0,0.0,0.0,0.0,0.0,0.0,0.0,0.0,0.0,0.0,0.0,0.0,0.0,0.0,0.0,0.0,0.0,0.0,0.0,0.0,0.0,0.0,0.0,0.0,0.0,0.0,0.0,0.0,0.0,0.0,0.0,0.0,0.0,0.0,0.0,0.0,0.0,0.0,0.0,0.0,0.0,0.0,0.0,0.0,0.0,0.0,0.0,0.0,0.0,0.0,0.0,0.0,0.0,0.0,0.0,0.0,0.0,0.0,0.0,0.0,0.0,0.0,0.0,0.0,0.0,0.0,0.0,0.0,0.0,0.0,0.0,0.0,0.0,0.0,0.0,0.0,0.0,0.0,0.0,0.0,0.0,0.0,0.0,0.0,0.0,0.0,0.0,0.0,0.0,0.0,0.0,0.0,0.0,0.0,0.0,0.0,0.0,0.0,0.0,0.0,0.0,0.0,0.0,0.0,0.0,0.0,0.0,0.0,0.0,0.0,0.0,0.0,0.0,0.0,0.0,0.0,0.0,0.0,0.0,0.0,0.0,0.0,0.0,0.0,0.0,0.0,0.0,0.0,0.0,0.0,0.0,0.0,0.0,0.0,0.0,0.0,0.0,0.0,0.0,0.0,0.0,0.0,0.0,0.0,0.0,0.0,0.0,0.0,0.0,0.0,0.0,0.0,0.0,0.0,0.0,0.0,0.0,0.0,0.0,0.0,0.0,0.0,0.0,0.0,0.0,0.0,0.0,0.0,0.0,0.0,0.0,0.0,0.0,0.0,0.0,0.0,0.0,0.0,0.0,0.0,0.0,0.0,0.0,0.0,0.0,0.0,0.0,0.0,0.0,0.0,0.0,0.0,0.0,0.0,0.0,0.0,0.0,0.0,0.0,0.0,0.0,0.0,0.0,0.0,0.0,0.0,0.0,0.0,0.0,0.0,0.0,0.0,0.0,0.0,0.0,0.0,0.0,0.0,0.0,0.0,0.0,0.0,0.0,0.0,0.0,0.0,0.0,0.0,0.0,0.0,0.0,0.0,0.0,0.0,0.0,0.0,0.0,0.0,0.0,0.0,0.0,0.0,0.0,0.0,0.0,0.0,0.0,0.0,0.0,0.0,0.0,0.0,0.0,0.0,0.0,0.0,0.0,0.0,0.0,0.0,0.0,0.0,0.0,0.0,0.0,0.0,0.0,0.0,0.0,0.0,0.0,0.0,0.0,0.0,0.0,0.0,0.0,0.0,0.0,0.0,0.0,0.0,0.0,0.0,0.0,0.0,0.0,0.0,0.0,0.0,0.0,0.0,0.0,0.0,0.0,0.0,0.0,0.0,0.0,0.0,0.0,0.0,0.0,0.0,0.0,0.0,0.0,0.0,0.0,0.0,0.0,0.0,0.0,0.0,0.0,0.0,0.0,0.0,0.0,0.0,0.0,0.0,0.0,0.0,0.0,0.0,0.0,0.0,0.0,0.0,0.0,0.0,0.0,0.0,0.0,0.0,0.0,0.0,0.0,0.0,0.0,0.0,0.0,0.0,0.0,0.0,0.0,0.0,0.0,0.0,0.0,0.0,0.0,0.0,0.0,0.0,0.0,0.0,0.0,0.0,0.0,0.0,0.0,0.0,0.0,0.0,0.0,0.0,0.0,0.0,0.0,0.0,0.0,0.0,0.0,0.0,0.0,0.0,0.0,0.0,0.0,0.0,0.0,0.0,0.0,0.0,0.0,0.0,0.0,0.0,0.0,0.0,0.0,0.0,0.0,0.0,0.0,0.0,0.0,0.0,0.0,0.0,0.0,0.0,0.0,0.0,0.0,0.0,0.0,0.0,0.0,0.0,0.0,0.0,0.0,0.0,0.0,0.0,0.0,0.0,0.0,0.0,0.0,0.0,0.0,0.0,0.0,0.0,0.0,0.0,0.0,0.0,0.0,0.0,0.0,0.0,0.0,0.0,0.0,0.0,0.0,0.0,0.0,0.0,0.0,0.0,0.0,0.0,0.0,0.0,0.0,0.0,0.0,0.0,0.0,0.0,0.0,0.0,0.0,0.0,0.0,0.0,0.0,0.0,0.0,0.0,0.0,0.0,0.0,0.0,0.0,0.0,0.0,0.0,0.0,0.0,0.0,0.0,0.0,0.0,0.0,0.0,0.0,0.0,0.0,0.0,0.0,0.0,0.0,0.0,0.0,0.0,0.0,0.0,0.0,0.0,0.0,0.0,0.0,0.0,0.0,0.0,0.0,0.0,0.0,0.0,0.0,0.0,0.0,0.0,0.0,0.0,0.0,0.0,0.0,0.0,0.0,0.0,0.0,0.0,0.0,0.0,0.0,0.0,0.0,0.0,0.0,0.0,0.0,0.0,0.0,0.0,0.0,0.0,0.0,0.0,0.0,0.0,0.0,0.0,0.0,0.0,0.0,0.0,0.0,0.0,0.0,0.0,0.0,0.0,0.0,0.0,0.0,0.0,0.0,0.0,0.0,0.0,0.0,0.0,0.0,0.0,0.0,0.0,0.0,0.0,0.0,0.0,0.0,0.0,0.0,0.0,0.0,0.0,0.0,0.0,0.0,0.0,0.0,0.0,0.0,0.0,0.0,0.0,0.0,0.0,0.0,0.0,0.0,0.0,0.0,0.0,0.0,0.0,0.0,0.0,0.0,0.0,0.0,0.0,0.0,0.0,0.0,0.0,0.0,0.0,0.0,0.0,0.0,0.0,0.0,0.0,0.0,0.0,0.0,0.0,0.0,0.0,0.0,0.0,0.0,0.0,0.0,0.0,0.0,0.0,0.0,0.0,0.0,0.0,0.0,0.0,0.0,0.0,0.0,0.0,0.0,0.0,0.0,0.0,0.0,0.0,0.0,0.0,0.0,0.0,0.0,0.0,0.0,0.0,0.0,0.0,0.0,0.0,0.0,0.0,0.0,0.0,0.0,0.0,0.0,0.0,0.0,0.0,0.0,0.0,0.0,0.0,0.0,0.0,0.0,0.0,0.0,0.0,0.0,0.0,0.0,0.0,0.0,0.0,0.0,0.0,0.0,0.0,0.0,0.0,0.0,0.0,0.0,0.0,0.0,0.0,0.0,0.0,0.0,0.0,0.0,0.0,0.0,0.0,0.0,0.0,0.0,0.0,0.0,0.0,0.0,0.0,0.0,0.0,0.0,0.0,0.0,0.0,0.0,0.0,0.0,0.0,0.0,0.0,0.0,0.0,0.0,0.0,0.0,0.0,0.0,0.0,0.0,0.0,0.0,0.0,0.0,0.0,0.0,0.0,0.0,0.0,0.0,0.0,0.0,0.0,0.0,0.0,0.0,0.0,0.0,0.0,0.0,0.0,0.0,0.0,0.0,0.0,0.0,0.0,0.0,0.0,0.0,0.0,0.0,0.0,0.0,0.0,0.0,0.0,0.0,0.0,0.0,0.0,0.0,0.0,0.0,0.0,0.0,0.0,0.0,0.0,0.0,0.0,0.0,0.0,0.0,0.0,0.0,0.0,0.0,0.0,0.0,0.0,0.0,0.0,0.0,0.0,0.0,0.0,0.0,0.0,0.0,0.0,0.0,0.0,0.0,0.0,0.0,0.0,0.0,0.0,0.0,0.0,0.0,0.0,0.0,0.0,0.0,0.0,0.0,0.0,0.0,0.0,0.0,0.0,0.0,0.0,0.0,0.0,0.0,0.0,0.0,0.0,0.0,0.0,0.0,0.0,0.0,0.0,0.0,0.0,0.0,0.0,0.0,0.0,0.0,0.0,0.0,0.0,0.0,0.0,0.0,0.0,0.0,0.0,0.0,0.0,0.0,0.0,0.0,0.0,0.0,0.0,0.0,0.0,0.0,0.0,0.0,0.0,0.0,0.0,0.0,0.0,0.0,0.0,0.0,0.0,0.0,0.0,0.0,0.0,0.0,0.0,0.0,0.0,0.0,0.0,0.0,0.0,0.0,0.0,0.0,0.0,0.0,0.0,0.0,0.0,0.0,0.0,0.0,0.0,0.0,0.0,0.0,0.0,0.0,0.0,0.0,0.0,0.0,0.0,0.0,0.0,0.0,0.0,0.0,0.0,0.0,0.0,0.0,0.0,0.0,0.0,0.0,0.0,0.0,0.0,0.0,0.0,0.0,0.0,0.0,0.0,0.0,0.0,0.0,0.0,0.0,0.0,0.0,0.0,0.0,0.0,0.0,0.0,0.0,0.0,0.0,0.0,0.0,0.0,0.0,0.0,0.0,0.0,0.0,0.0,0.0,0.0,1.5211,0.0,0.0,0.0,0.9658,0.0,0.0,0.0,0.0,0.0,0.0,0.0,0.0,0.0,0.0,0.0,0.0,0.0,0.0,0.0,0.0,0.0,0.0,0.0,0.0,0.0,0.0,0.0,0.0,0.0,0.0,0.0,0.0,0.0,0.0,0.0,0.0,0.0,0.0,0.0,0.0,0.0,0.0,0.0,0.0,0.0,0.0,0.0,0.0,0.0,0.0,0.0,0.0,0.0,0.0,0.0,0.0,0.0,0.0,0.0,0.0,0.0,0.0,0.0,0.0,0.0,0.0,0.0,0.0,0.0,0.0,0.0,0.0,0.0,0.0,0.0,0.0,0.0,0.0,0.0,0.0,0.0,0.0,0.0,0.0,0.0,0.0,0.0,0.0,0.0,0.0,0.0,0.0,0.0,0.0,0.0,0.0,0.0,0.0,0.0,0.0,0.0,0.0,0.0,0.0,0.0,0.0,0.0,0.0,0.0,0.0,0.0,0.0,0.0,0.0,1.5006,1.2989,1.5018,1.3962,0.9394,0.0,0.0,0.0,0.0,0.0,0.0,0.0,0.0,0.0,0.0,0.0,0.0,0.0,0.0,0.0,0.0,0.0,0.0,0.0,0.0,0.0,0.0,0.0,0.0,0.0,0.0,0.0,0.0,0.0,0.0,0.0,0.0,0.0,0.0,0.0,0.0,0.0,0.0,0.0,0.0,0.0,0.0,0.0,0.0,0.0,0.0,0.0,0.0,0.0,0.0,0.0,0.0,0.0,0.0,0.0,0.0,0.0,0.0,0.0,0.0,0.0,0.0,0.0,0.0,0.0,0.0,0.0,0.0,0.0,0.0,0.0,0.0,0.0,0.0,0.0,0.0,0.0,0.0,0.0,0.0,0.0,0.0,0.0,0.0,0.0,0.0,0.0,0.0,0.0,0.0,0.0,0.0,0.0,0.0,0.0,0.0,0.0,0.0,0.0,0.0,0.0,0.0,0.0,0.0,0.0,0.0,0.0,0.0,0.0,0.0,0.0,0.0,1.5288,1.4037,0.9108,0.0,0.0,0.0,0.0,0.0,0.0,0.0,0.0,0.0,0.0,0.0,0.0,0.0,0.0,0.0,0.0,0.0,0.0,0.0,0.0,0.0,0.0,0.0,0.0,0.0,0.0,0.0,0.0,0.0,0.0,0.0,0.0,0.0,0.0,0.0,0.0,0.0,0.0,0.0,0.0,0.0,0.0,0.0,0.0,0.0,0.0,0.0,0.0,0.0,0.0,0.0,0.0,0.0,0.0,0.0,0.0,0.0,0.0,0.0,0.0,0.0,0.0,0.0,0.0,0.0,0.0,0.0,0.0,0.0,0.0,0.0,0.0,0.0,0.0,0.0,0.0,0.0,0.0,0.0,0.0,0.0,0.0,0.0,0.0,0.0,0.0,0.0,0.0,0.0,0.0,0.0,0.0,0.0,0.0,0.0,0.0,0.0,0.0,0.0,0.0,0.0,0.0,0.0,0.0,0.0,0.0,0.0,0.0,0.0,0.0,1.3198,1.3621,1.3589,0.0,0.8242,0.0,0.0,0.0,0.0,0.0,0.0,0.0,0.0,0.0,0.0,0.0,0.0,0.0,0.0,0.0,0.0,0.0,0.0,0.0,0.0,0.0,0.0,0.0,0.0,0.0,0.0,0.0,0.0,0.0,0.0,0.0,0.0,0.0,0.0,0.0,0.0,0.0,0.0,0.0,0.0,0.0,0.0,0.0,0.0,0.0,0.0,0.0,0.0,0.0,0.0,0.0,0.0,0.0,0.0,0.0,0.0,0.0,0.0,0.0,0.0,0.0,0.0,0.0,0.0,0.0,0.0,0.0,0.0,0.0,0.0,0.0,0.0,0.0,0.0,0.0,0.0,0.0,0.0,0.0,0.0,0.0,0.0,0.0,0.0,0.0,0.0,0.0,0.0,0.0,0.0,0.0,0.0,0.0,0.0,0.0,0.0,0.0,0.0,0.0,0.0,0.0,0.0,0.0,0.0,0.0,0.0,0.0,0.0,0.0,0.0,1.3417,1.3394,1.1855,0.9802,0.0,0.0,0.0,0.0,0.0,0.0,0.0,0.0,0.0,0.0,0.0,0.0,0.0,0.0,0.0,0.0,0.0,0.0,0.0,0.0,0.0,0.0,0.0,0.0,0.0,0.0,0.0,0.0,0.0,0.0,0.0,0.0,0.0,0.0,0.0,0.0,0.0,0.0,0.0,0.0,0.0,0.0,0.0,0.0,0.0,0.0,0.0,0.0,0.0,0.0,0.0,0.0,0.0,0.0,0.0,0.0,0.0,0.0,0.0,0.0,0.0,0.0,0.0,0.0,0.0,0.0,0.0,0.0,0.0,0.0,0.0,0.0,0.0,0.0,0.0,0.0,0.0,0.0,0.0,0.0,0.0,0.0,0.0,0.0,0.0,0.0,0.0,0.0,0.0,0.0,0.0,0.0,0.0,0.0,0.0,0.0,0.0,0.0,0.0,0.0,0.0,0.0,0.0,0.0,0.0,0.0,0.0,0.0,0.0,0.0,1.3,1.3116,1.2597,1.0316,0.8235,0.6514,0.0,0.0,0.0,0.0,0.0,0.0,0.0,0.0,0.0,0.0,0.0,0.0,0.0,0.0,0.0,0.0,0.0,0.0,0.0,0.0,0.0,0.0,0.0,0.0,0.0,0.0,0.0,0.0,0.0,0.0,0.0,0.0,0.0,0.0,0.0,0.0,0.0,0.0,0.0,0.0,0.0,0.0,0.0,0.0,0.0,0.0,0.0,0.0,0.0,0.0,0.0,0.0,0.0,0.0,0.0,0.0,0.0,0.0,0.0,0.0,0.0,0.0,0.0,0.0,0.0,0.0,0.0,0.0,0.0,0.0,0.0,0.0,0.0,0.0,0.0,0.0,0.0,0.0,0.0,0.0,0.0,0.0,0.0,0.0,0.0,0.0,0.0,0.0,0.0,0.0,0.0,0.0,0.0,0.0,0.0,0.0,0.0,0.0,0.0,0.0,0.0,0.0,0.0,0.0,0.0,0.0,0.0,0.0,1.4459,1.2839,1.1746,1.1359,0.9091,0.7249,0.0,0.0,0.0,0.0,0.0,0.0,0.0,0.0,0.0,0.0,0.0,0.0,0.0,0.0,0.0,0.0,0.0,0.0,0.0,0.0,0.0,0.0,0.0,0.0,0.0,0.0,0.0,0.0,0.0,0.0,0.0,0.0,0.0,0.0,0.0,0.0,0.0,0.0,0.0,0.0,0.0,0.0,0.0,0.0,0.0,0.0,0.0,0.0,0.0,0.0,0.0,0.0,0.0,0.0,0.0,0.0,0.0,0.0,0.0,0.0,0.0,0.0,0.0,0.0,0.0,0.0,0.0,0.0,0.0,0.0,0.0,0.0,0.0,0.0,0.0,0.0,0.0,0.0,0.0,0.0,0.0,0.0,0.0,0.0,0.0,0.0,0.0,0.0,0.0,0.0,0.0,0.0,0.0,0.0,0.0,0.0,0.0,0.0,0.0,0.0,0.0,0.0,0.0,0.0,0.0,0.0,0.0,0.0,0.0,1.1282,1.0721,1.0468,1.0572,0.8557,0.6817,0.0,0.0,0.0,0.0,0.0,0.0,0.0,0.0,0.0,0.0,0.0,0.0,0.0,0.0,0.0,0.0,0.0,0.0,0.0,0.0,0.0,0.0,0.0,0.0,0.0,0.0,0.0,0.0,0.0,0.0,0.0,0.0,0.0,0.0,0.0,0.0,0.0,0.0,0.0,0.0,0.0,0.0,0.0,0.0,0.0,0.0,0.0,0.0,0.0,0.0,0.0,0.0,0.0,0.0,0.0,0.0,0.0,0.0,0.0,0.0,0.0,0.0,0.0,0.0,0.0,0.0,0.0,0.0,0.0,0.0,0.0,0.0,0.0,0.0,0.0,0.0,0.0,0.0,0.0,0.0,0.0,0.0,0.0,0.0,0.0,0.0,0.0,0.0,0.0,0.0,0.0,0.0,0.0,0.0,0.0,0.0,0.0,0.0,0.0,0.0,0.0,0.0,0.0,0.0,0.0,0.0,0.0,0.0,0.0,0.989,1.0395,1.0272,0.9468,0.7754,0.6079,0.0,0.0,0.0,0.0,0.0,0.0,0.0,0.0,0.0,0.0,0.0,0.0,0.0,0.0,0.0,0.0,0.0,0.0,0.0,0.0,0.0,0.0,0.0,0.0,0.0,0.0,0.0,0.0,0.0,0.0,0.0,0.0,0.0,0.0,0.0,0.0,0.0,0.0,0.0,0.0,0.0,0.0,0.0,0.0,0.0,0.0,0.0,0.0,0.0,0.0,0.0,0.0,0.0,0.0,0.0,0.0,0.0,0.0,0.0,0.0,0.0,0.0,0.0,0.0,0.0,0.0,0.0,0.0,0.0,0.0,0.0,0.0,0.0,0.0,0.0,0.0,0.0,0.0,0.0,0.0,0.0,0.0,0.0,0.0,0.0,0.0,0.0,0.0,0.0,0.0,0.0,0.0,0.0,0.0,0.0,0.0,0.0,0.0,0.0,0.0,0.0,0.0,0.0,0.0,0.0,0.0,0.0,0.0,0.991,1.0835,1.1986,1.1009,0.7918,0.6656,0.4988,0.0,0.0,0.0,0.0,0.0,0.0,0.0,0.0,0.0,0.0,0.0,0.0,0.0,0.0,0.0,0.0,0.0,0.0,0.0,0.0,0.0,0.0,0.0,0.0,0.0,0.0,0.0,0.0,0.0,0.0,0.0,0.0,0.0,0.0,0.0,0.0,0.0,0.0,0.0,0.0,0.0,0.0,0.0,0.0,0.0,0.0,0.0,0.0,0.0,0.0,0.0,0.0,0.0,0.0,0.0,0.0,0.0,0.0,0.0,0.0,0.0,0.0,0.0,0.0,0.0,0.0,0.0,0.0,0.0,0.0,0.0,0.0,0.0,0.0,0.0,0.0,0.0,0.0,0.0,0.0,0.0,0.0,0.0,0.0,0.0,0.0,0.0,0.0,0.0,0.0,0.0,0.0,0.0,0.0,0.0,0.0,0.0,0.0,0.0,0.0,0.0,0.0,0.0,0.0,0.0,0.0,0.0,0.0,0.0,0.9237,1.001,0.9332,0.7068,0.6204,0.4947,0.0,0.0,0.0,0.0,0.0,0.0,0.0,0.0,0.0,0.0,0.0,0.0,0.0,0.0,0.0,0.0,0.0,0.0,0.0,0.0,0.0,0.0,0.0,0.0,0.0,0.0,0.0,0.0,0.0,0.0,0.0,0.0,0.0,0.0,0.0,0.0,0.0,0.0,0.0,0.0,0.0,0.0,0.0,0.0,0.0,0.0,0.0,0.0,0.0,0.0,0.0,0.0,0.0,0.0,0.0,0.0,0.0,0.0,0.0,0.0,0.0,0.0,0.0,0.0,0.0,0.0,0.0,0.0,0.0,0.0,0.0,0.0,0.0,0.0,0.0,0.0,0.0,0.0,0.0,0.0,0.0,0.0,0.0,0.0,0.0,0.0,0.0,0.0,0.0,0.0,0.0,0.0,0.0,0.0,0.0,0.0,0.0,0.0,0.0,0.0,0.0,0.0,0.0,0.0,0.0,0.0,0.0,0.0,0.0,1.0079,1.0511,0.9886,0.8022,0.6947,0.5661,0.4173,0.0,0.0,0.0,0.0,0.0,0.0,0.0,0.0,0.0,0.0,0.0,0.0,0.0,0.0,0.0,0.0,0.0,0.0,0.0,0.0,0.0,0.0,0.0,0.0,0.0,0.0,0.0,0.0,0.0,0.0,0.0,0.0,0.0,0.0,0.0,0.0,0.0,0.0,0.0,0.0,0.0,0.0,0.0,0.0,0.0,0.0,0.0,0.0,0.0,0.0,0.0,0.0,0.0,0.0,0.0,0.0,0.0,0.0,0.0,0.0,0.0,0.0,0.0,0.0,0.0,0.0,0.0,0.0,0.0,0.0,0.0,0.0,0.0,0.0,0.0,0.0,0.0,0.0,0.0,0.0,0.0,0.0,0.0,0.0,0.0,0.0,0.0,0.0,0.0,0.0,0.0,0.0,0.0,0.0,0.0,0.0,0.0,0.0,0.0,0.0,0.0,0.0,0.0,0.0,0.0,0.0,0.0,0.0,1.2739,1.2991,1.2207,1.0367,0.8509,0.6927,0.0,0.0,0.0,0.0,0.0,0.0,0.0,0.0,0.0,0.0,0.0,0.0,0.0,0.0,0.0,0.0,0.0,0.0,0.0,0.0,0.0,0.0,0.0,0.0,0.0,0.0,0.0,0.0,0.0,0.0,0.0,0.0,0.0,0.0,0.0,0.0,0.0,0.0,0.0,0.0,0.0,0.0,0.0,0.0,0.0,0.0,0.0,0.0,0.0,0.0,0.0,0.0,0.0,0.0,0.0,0.0,0.0,0.0,0.0,0.0,0.0,0.0,0.0,0.0,0.0,0.0,0.0,0.0,0.0,0.0,0.0,0.0,0.0,0.0,0.0,0.0,0.0,0.0,0.0,0.0,0.0,0.0,0.0,0.0,0.0,0.0,0.0,0.0,0.0,0.0,0.0,0.0,0.0,0.0,0.0,0.0,0.0,0.0,0.0,0.0,0.0,0.0,0.0,0.0,0.0,0.0,0.0,0.0,0.0,1.4168,1.3747,1.26,1.0864,0.9381,0.7625,0.0,0.0,0.0,0.0,0.0,0.0,0.0,0.0,0.0,0.0,0.0,0.0,0.0,0.0,0.0,0.0,0.0,0.0,0.0,0.0,0.0,0.0,0.0,0.0,0.0,0.0,0.0,0.0,0.0,0.0,0.0,0.0,0.0,0.0,0.0,0.0,0.0,0.0,0.0,0.0,0.0,0.0,0.0,0.0,0.0,0.0,0.0,0.0,0.0,0.0,0.0,0.0,0.0,0.0,0.0,0.0,0.0,0.0,0.0,0.0,0.0,0.0,0.0,0.0,0.0,0.0,0.0,0.0,0.0,0.0,0.0,0.0,0.0,0.0,0.0,0.0,0.0,0.0,0.0,0.0,0.0,0.0,0.0,0.0,0.0,0.0,0.0,0.0,0.0,0.0,0.0,0.0,0.0,0.0,0.0,0.0,0.0,0.0,0.0,0.0,0.0,0.0,0.0,0.0,0.0,0.0,0.0,0.0,1.4278,1.5558,1.4445,1.333,1.2346,1.0743,0.8939,0.0,0.0,0.0,0.0,0.0,0.0,0.0,0.0,0.0,0.0,0.0,0.0,0.0,0.0,0.0,0.0,0.0,0.0,0.0,0.0,0.0,0.0,0.0,0.0,0.0,0.0,0.0,0.0,0.0,0.0,0.0,0.0,0.0,0.0,0.0,0.0,0.0,0.0,0.0,0.0,0.0,0.0,0.0,0.0,0.0,0.0,0.0,0.0,0.0,0.0,0.0,0.0,0.0,0.0,0.0,0.0,0.0,0.0,0.0,0.0,0.0,0.0,0.0,0.0,0.0,0.0,0.0,0.0,0.0,0.0,0.0,0.0,0.0,0.0,0.0,0.0,0.0,0.0,0.0,0.0,0.0,0.0,0.0,0.0,0.0,0.0,0.0,0.0,0.0,0.0,0.0,0.0,0.0,0.0,0.0,0.0,0.0,0.0,0.0,0.0,0.0,0.0,0.0,0.0,0.0,0.0,0.0,0.0,1.5825,1.6645,1.4992,1.4103,1.4041,1.2285,1.0506,0.0,0.0,0.0,0.0,0.0,0.0,0.0,0.0,0.0,0.0,0.0,0.0,0.0,0.0,0.0,0.0,0.0,0.0,0.0,0.0,0.0,0.0,0.0,0.0,0.0,0.0,0.0,0.0,0.0,0.0,0.0,0.0,0.0,0.0,0.0,0.0,0.0,0.0,0.0,0.0,0.0,0.0,0.0,0.0,0.0,0.0,0.0,0.0,0.0,0.0,0.0,0.0,0.0,0.0,0.0,0.0,0.0,0.0,0.0,0.0,0.0,0.0,0.0,0.0,0.0,0.0,0.0,0.0,0.0,0.0,0.0,0.0,0.0,0.0,0.0,0.0,0.0,0.0,0.0,0.0,0.0,0.0,0.0,0.0,0.0,0.0,0.0,0.0,0.0,0.0,0.0,0.0,0.0,0.0,0.0,0.0,0.0,0.0,0.0,0.0,0.0,0.0,0.0,0.0,0.0,0.0,0.0,0.0,1.6175,1.6664,1.4992,1.4103,1.4103,1.2769,1.1283,0.0,0.0,0.0,0.0,0.0,0.0,0.0,0.0,0.0,0.0,0.0,0.0,0.0,0.0,0.0,0.0,0.0,0.0,0.0,0.0,0.0,0.0,0.0,0.0,0.0,0.0,0.0,0.0,0.0,0.0,0.0,0.0,0.0,0.0,0.0,0.0,0.0,0.0,0.0,0.0,0.0,0.0,0.0,0.0,0.0,0.0,0.0,0.0,1.363,0.0,0.0,0.0,0.0,0.0,0.0,0.0,0.0,0.0,0.0,0.0,0.0,0.0,0.0,0.0,0.0,0.0,0.0,0.0,0.0,0.0,0.0,0.0,0.0,0.0,0.0,0.0,0.0,0.0,0.0,0.0,0.0,0.0,0.0,0.0,0.0,0.0,0.0,0.0,0.0,0.0,0.0,0.0,0.0,0.0,0.0,0.0,0.0,0.0,0.0,0.0,0.0,0.0,0.0,0.0,0.0,0.0,0.0,0.0,1.692,1.6928,1.5223,1.4295,1.4269,1.3801,1.2456,0.0,0.0,0.0,0.0,0.0,0.0,0.0,0.0,0.0,0.0,0.0,0.0,0.0,0.0,0.0,0.0,0.0,0.0,0.0,0.0,0.0,0.0,0.0,0.0,0.0,0.0,0.0,0.0,0.0,0.0,0.0,0.0,0.0,0.0,0.0,0.0,0.0,0.0,0.0,0.0,0.0,0.0,0.0,0.0,0.0,0.0,0.0,0.0,0.0,0.0,0.0,0.0,0.0,0.0,0.0,0.0,0.0,0.0,0.0,0.0,0.0,0.0,0.0,0.0,0.0,0.0,0.0,0.0,0.0,0.0,0.0,0.0,0.0,0.0,0.0,0.0,0.0,0.0,0.0,0.0,0.0,0.0,0.0,0.0,0.0,0.0,0.0,0.0,0.0,0.0,0.0,0.0,0.0,0.0,0.0,0.0,0.0,0.0,0.0,0.0,0.0,0.0,0.0,0.0,0.0,0.0,0.0,1.7639,1.7732,1.7409,1.5761,1.4751,1.4589,1.487,1.3581,1.0518,0.0,0.0,0.0,0.0,0.0,0.0,0.0,0.0,0.0,0.0,0.0,0.0,0.0,0.0,0.0,0.0,0.0,0.0,0.0,0.0,0.0,0.0,0.0,0.0,0.0,0.0,0.0,0.0,0.0,0.0,0.0,0.0,0.0,0.0,0.0,0.0,0.0,0.0,1.0479,1.2515,0.0,0.0,0.0,0.0,0.0,0.0,0.0,0.0,1.3166,0.0,0.0,0.0,0.0,0.0,0.0,0.0,0.0,0.0,0.0,0.0,0.0,0.0,0.0,0.0,0.0,0.0,0.0,0.0,0.0,0.0,0.0,0.0,0.0,0.0,0.0,0.0,0.0,0.0,0.0,0.0,0.0,0.0,0.0,0.0,0.0,0.0,0.0,0.0,0.0,0.0,0.0,0.0,0.0,0.0,0.0,0.0,0.0,0.0,0.0,0.0,0.0,0.0,0.0,0.0,0.0,1.9419,1.8653,1.8227,1.8197,1.7042,1.5942,1.4963,1.52,1.4146,1.1744,0.0,0.0,0.0,0.0,0.0,0.0,0.0,0.0,0.0,0.0,0.0,0.0,0.0,0.0,0.0,0.0,0.0,0.0,0.0,0.0,0.0,0.0,0.0,0.0,0.0,0.0,0.0,0.0,0.0,0.0,0.0,0.0,0.0,0.0,0.0,0.0,0.0,0.0,0.0,1.5439,1.6219,0.0,0.0,0.0,0.0,0.0,0.0,0.0,0.0,1.3294,0.0,0.0,0.0,0.0,0.0,0.0,0.0,0.0,0.0,0.0,0.0,0.0,0.0,0.0,0.0,0.0,0.0,0.0,0.0,0.0,0.0,0.0,0.0,0.0,0.0,0.0,0.0,0.0,0.0,0.0,0.0,0.0,0.0,0.0,0.0,0.0,0.0,0.0,0.0,0.0,0.0,0.0,0.0,0.0,0.0,0.0,0.0,0.0,0.0,0.0,0.0,0.0,0.0,0.0,0.0,1.9676,1.9778,1.9429,1.8769,1.761,1.6422,1.5259,1.5471,1.4522,0.0,0.0,0.0,0.0,0.0,0.0,0.0,0.0,0.0,0.0,0.0,0.0,0.0,0.0,0.0,0.0,0.0,0.0,0.0,0.0,0.0,0.0,0.0,0.0,0.0,0.0,0.0,0.0,0.0,0.0,0.0,0.0,0.0,0.0,0.0,0.0,0.0,0.0,0.0,0.0,1.6293,1.7019,1.7913,0.0,0.0,0.0,0.0,0.0,0.0,1.4518,1.3717,0.0,0.0,0.0,0.0,0.0,0.0,0.0,0.0,0.0,0.0,0.0,0.0,0.0,0.0,0.0,0.0,0.0,0.0,0.0,0.0,0.0,0.0,0.0,0.0,0.0,0.0,0.0,0.0,0.0,0.0,0.0,0.0,0.0,0.0,0.0,0.0,0.0,0.0,0.0,0.0,0.0,0.0,0.0,0.0,0.0,0.0,0.0,0.0,0.0,0.0,0.0,0.0,0.0,0.0,0.0,1.9591,2.0605,2.0654,1.9674,1.836,1.7084,1.5924,1.5816,1.4701,0.0,0.0,0.0,0.0,0.0,0.0,0.0,0.0,0.0,0.0,0.0,0.0,0.0,0.0,0.0,0.0,0.0,0.0,0.0,0.0,0.0,0.0,0.0,0.0,0.0,0.0,0.0,0.0,0.0,0.0,0.0,0.0,0.0,0.0,0.0,0.0,0.0,0.0,0.0,0.0,0.0,1.7867,1.8854,1.7898,0.0,0.0,0.0,0.0,1.5976,1.5377,0.0,0.0,0.0,0.0,0.0,0.0,0.0,0.0,0.0,0.0,0.0,0.0,0.0,0.0,0.0,0.0,0.0,0.0,0.0,0.0,0.0,0.0,0.0,0.0,0.0,0.0,0.0,0.0,0.0,0.0,0.0,0.0,0.0,0.0,0.0,0.0,0.0,0.0,0.0,0.0,0.0,0.0,0.0,0.0,0.0,0.0,0.0,0.0,0.0,0.0,0.0,0.0,0.0,0.0,0.0,0.0,1.9641,2.0681,2.1345,2.1567,2.007,1.867,1.7453,1.6372,1.4701,0.0,0.0,0.0,0.0,0.0,0.0,0.0,0.0,0.0,0.0,0.0,0.0,0.0,0.0,0.0,0.0,0.0,0.0,0.0,0.0,0.0,0.0,0.0,0.0,0.0,0.0,0.0,0.0,0.0,0.0,0.0,0.0,0.0,0.0,0.0,0.0,0.0,0.0,0.0,0.0,0.0,1.964,1.8268,1.8227,1.8209,0.0,0.0,1.6848,1.8122,1.7848,0.0,0.0,0.0,0.0,0.0,0.0,0.0,0.0,0.0,0.0,0.0,0.0,0.0,0.0,0.0,0.0,0.0,0.0,0.0,0.0,0.0,0.0,0.0,0.0,0.0,0.0,0.0,0.0,0.0,0.0,0.0,0.0,0.0,0.0,0.0,0.0,0.0,0.0,0.0,0.0,0.0,0.0,0.0,0.0,0.0,0.0,0.0,0.0,0.0,0.0,0.0,0.0,0.0,0.0,0.0,1.8278,2.0106,2.1548,2.2168,2.1971,2.036,1.8925,1.7707,1.6457,1.4621,0.0,0.0,0.0,0.0,0.0,0.0,0.0,0.0,0.0,0.0,0.0,0.0,0.0,0.0,0.0,0.0,0.0,0.0,0.0,0.0,0.0,0.0,0.0,0.0,0.0,0.0,0.0,0.0,0.0,0.0,0.0,0.0,0.0,0.0,0.0,0.0,0.0,0.0,0.0,0.0,0.0,0.0,2.0361,1.9399,0.0,0.0,0.0,1.7456,1.7822,0.0,0.0,0.0,0.0,0.0,0.0,0.0,0.0,0.0,0.0,0.0,0.0,0.0,0.0,0.0,0.0,0.0,0.0,0.0,0.0,0.0,0.0,0.0,0.0,0.0,0.0,0.0,0.0,0.0,0.0,0.0,0.0,0.0,0.0,0.0,0.0,0.0,0.0,0.0,0.0,0.0,0.0,0.0,0.0,0.0,0.0,0.0,0.0,0.0,0.0,0.0,0.0,0.0,0.0,0.0,0.0,0.0,2.0496,2.2553,2.3104,2.2082,2.0582,1.9197,1.7923,1.6679,0.0,0.0,0.0,0.0,0.0,0.0,0.0,0.0,0.0,0.0,0.0,0.0,0.0,0.0,0.0,0.0,0.0,0.0,0.0,0.0,0.0,0.0,0.0,0.0,0.0,0.0,0.0,0.9221,0.0,0.0,0.0,0.0,0.0,0.0,0.0,0.0,0.0,0.0,0.0,0.0,0.0,0.0,1.9153,2.142,2.0182,1.9372,0.0,0.0,1.8004,1.7812,1.7554,1.6942,0.0,0.0,0.0,0.0,0.0,0.0,0.0,0.0,0.0,0.0,0.0,0.0,0.0,0.0,0.0,0.0,0.0,0.0,0.0,0.0,0.0,0.0,0.0,0.0,0.0,0.0,0.0,0.0,0.0,0.0,0.0,0.0,0.0,0.0,0.0,0.0,0.0,0.0,0.0,0.0,0.0,0.0,0.0,0.0,0.0,0.0,0.0,0.0,0.0,0.0,0.0,0.0,0.0,0.0,1.9793,2.0586,2.3458,2.4117,2.2421,2.1166,1.9854,1.8483,1.728,1.5713,0.0,0.0,0.0,0.0,0.0,0.0,0.0,0.0,0.0,0.0,0.0,0.0,0.0,0.0,0.0,0.0,0.0,0.0,0.0,0.0,0.0,0.0,0.0,0.0,0.0,0.0,0.0,0.0,0.0,0.0,0.0,0.0,0.0,0.0,0.0,0.0,0.0,0.0,0.0,0.0,0.0,1.9553,1.9671,2.0135,2.0457,0.0,1.9409,1.8764,1.9369,1.9322,1.836,1.5837,0.0,0.0,0.0,0.0,0.0,0.0,0.0,0.0,0.0,0.0,0.0,0.0,0.0,0.0,0.0,0.0,0.0,0.0,0.0,0.0,0.0,0.0,0.0,0.0,0.0,0.0,0.0,0.0,0.0,0.0,0.0,0.0,0.0,0.0,0.0,0.0,0.0,0.0,0.0,0.0,0.0,0.0,0.0,0.0,0.0,0.0,0.0,0.0,0.0,0.0,0.0,0.0,0.0,1.984,2.0513,2.3517,2.4231,2.2457,2.1217,1.9934,1.8533,1.8139,1.7165,0.0,0.0,0.0,0.0,0.0,0.0,0.0,0.0,0.0,0.0,0.0,0.0,0.0,0.0,0.0,0.0,0.0,0.0,0.0,0.0,0.0,0.0,0.0,0.0,0.0,0.0,0.0,0.0,1.3193,1.2927,1.1282,0.0,0.0,0.0,0.0,0.0,0.0,0.0,0.0,0.0,0.0,1.9794,2.0516,1.9891,0.0,0.0,2.0772,2.0354,2.1474,2.0566,1.9344,1.8324,1.768,0.0,0.0,0.0,0.0,0.0,0.0,0.0,0.0,0.0,0.0,0.0,0.0,0.0,0.0,0.0,0.0,0.0,0.0,0.0,0.0,0.0,0.0,0.0,0.0,0.0,0.0,0.0,0.0,0.0,0.0,0.0,0.0,0.0,0.0,0.0,0.0,0.0,0.0,0.0,0.0,0.0,0.0,0.0,0.0,0.0,0.0,0.0,0.0,0.0,0.0,0.0,0.0,1.9914,2.0415,2.3361,2.394,2.2005,2.0899,1.9818,1.8865,1.8915,1.8568,0.0,0.0,0.0,0.0,0.0,0.0,0.0,0.0,0.0,0.0,0.0,0.0,0.0,0.0,0.0,0.0,0.0,0.0,0.0,0.0,0.0,0.0,0.0,0.0,0.0,0.0,0.0,0.0,1.4134,1.3489,1.2144,0.0,0.0,0.0,0.0,0.0,0.0,0.0,0.0,0.0,0.0,1.9784,2.1007,2.0102,1.9855,2.1337,2.1008,2.0711,2.1144,2.0534,1.9902,1.9625,0.0,0.0,0.0,0.0,0.0,0.0,0.0,0.0,0.0,0.0,0.0,0.0,0.0,0.0,0.0,0.0,0.0,0.0,0.0,0.0,0.0,0.0,0.0,0.0,0.0,0.0,0.0,0.6504,0.0,0.0,0.534,0.0,0.0,0.0,0.0,0.0,0.0,0.0,0.0,0.0,0.0,0.0,0.0,0.0,0.0,0.0,0.0,0.0,0.0,0.0,0.0,0.0,0.0,2.0108,2.0257,2.2941,2.3268,2.1147,2.0122,1.966,1.9623,1.9598,1.9856,2.0337,0.0,0.0,0.0,0.0,0.0,0.0,0.0,0.0,0.0,0.0,0.0,0.0,0.0,0.0,0.0,0.0,0.0,0.0,0.0,0.0,0.0,0.0,0.0,0.0,0.0,0.0,1.219,1.2218,1.2469,0.0,0.0,0.0,0.0,0.0,0.0,0.0,0.0,0.0,2.0311,1.9786,1.9497,2.0748,2.0853,2.0395,1.9301,1.9699,1.9532,1.7872,1.9078,1.9954,0.0,0.0,0.0,0.0,0.0,0.0,0.0,0.0,0.0,0.0,0.0,0.0,0.0,0.0,0.0,0.0,0.0,0.0,0.0,0.0,0.0,0.0,0.0,0.0,0.0,0.0,0.0,0.7971,0.7544,0.0,0.0,0.0,0.0,0.0,0.0,0.0,0.0,0.0,0.0,0.0,1.2998,1.4985,0.0,0.0,0.0,0.0,0.0,0.0,0.0,0.0,0.0,0.0,0.0,0.0,1.9883,2.0499,2.2984,2.3474,2.1806,2.1251,2.0998,2.1024,2.1862,2.2048,2.1454,0.0,0.0,0.0,0.0,0.0,0.0,0.0,0.0,0.0,0.0,0.0,0.0,0.0,0.0,0.0,0.0,0.0,0.0,0.0,0.0,0.0,0.0,0.0,0.0,0.0,1.3852,0.0,0.0,0.0,0.0,0.0,0.0,0.0,0.0,0.0,0.0,1.7752,1.9748,2.1889,2.1081,2.058,2.1503,2.0787,2.0352,0.0,0.0,0.0,0.0,0.0,0.0,0.0,0.0,0.0,0.0,0.0,0.0,0.0,0.0,2.2057,1.9557,1.8865,1.867,1.867,0.0,0.0,0.0,0.0,0.0,0.0,0.0,0.0,0.0,0.0,0.0,0.0,0.0,0.0,0.9855,0.9178,0.8934,0.0,0.0,0.0,0.0,0.0,0.0,0.0,0.0,1.3024,1.4123,1.4933,1.6917,1.7792,1.7728,1.8667,1.7567,0.0,0.0,0.0,0.0,0.0,0.0,0.0,0.0,1.9716,2.108,2.2465,2.2819,2.2116,2.1483,2.1562,2.2366,2.3683,2.4027,2.3259,2.2678,2.1563,0.0,0.0,0.0,0.0,0.0,0.0,0.0,0.0,0.0,0.0,0.0,0.0,0.0,0.0,0.0,0.0,0.0,0.0,0.0,0.0,0.0,0.0,0.0,1.5772,0.0,0.0,0.0,0.0,0.0,0.0,0.0,0.0,0.0,1.8381,1.9808,2.1672,2.3684,2.2538,2.1679,2.2154,0.0,0.0,0.0,0.0,0.0,0.0,0.0,2.0901,2.1165,2.0397,1.9596,1.9247,1.9896,2.0873,2.1975,0.0,0.0,2.1814,2.1486,2.1216,2.0317,2.0745,2.1344,2.1484,2.1456,2.1545,0.0,0.0,0.0,0.0,1.1711,0.0,0.0,0.0,1.3174,1.2321,0.0,1.0855,0.0,0.0,0.0,0.0,1.0507,1.2101,0.0,0.0,1.6816,1.8167,1.8434,1.9636,2.0312,2.0417,2.1618,2.1216,1.928,1.8561,0.0,0.0,0.0,0.0,0.0,0.0,1.9683,2.2079,2.1639,2.1573,2.2231,2.1012,2.145,2.373,2.5053,2.5708,2.5654,2.416,2.2893,2.1954,1.8713,0.0,0.0,0.0,0.0,0.0,0.0,0.0,0.0,0.0,0.0,0.0,0.0,0.0,0.0,0.0,0.0,0.0,0.0,0.0,0.0,1.7286,0.0,0.0,0.0,0.0,0.0,0.0,0.0,0.0,0.0,2.3115,2.1477,2.1217,2.2315,2.5558,0.0,0.0,0.0,0.0,2.3124,2.0301,2.0443,2.0383,1.8861,2.0245,2.141,2.1141,0.0,0.0,2.131,2.1487,2.1696,2.1212,2.277,2.4326,2.5057,2.5154,2.4616,2.233,2.2843,2.3427,2.2634,2.3517,2.4671,1.258,0.0,0.0,0.0,0.0,1.3087,1.3644,1.3948,1.3832,1.3343,1.2638,1.2703,0.0,0.0,0.0,0.0,0.0,0.0,1.4061,1.5219,1.5897,1.6532,1.7261,1.8484,1.9219,1.9583,2.0794,2.1357,2.1284,2.1251,1.9275,1.5573,0.0,0.0,0.0,0.0,2.0403,2.2321,2.3119,2.4122,2.5345,2.4487,2.4666,2.6015,2.6414,2.6615,2.6615,2.5879,2.4809,2.3301,2.1445,0.0,0.0,0.0,0.0,0.0,0.0,0.0,0.0,0.0,0.0,0.0,0.0,0.0,0.0,0.0,0.0,0.0,0.0,0.0,1.6258,1.8137,1.8644,0.0,0.0,0.0,0.0,0.0,0.0,0.0,0.0,0.0,2.3639,2.3468,2.3711,0.0,0.0,2.133,2.2394,2.2077,2.1437,2.055,2.0778,0.0,1.9829,2.0033,2.0439,2.0755,2.131,2.152,2.1158,2.0891,2.1116,2.2348,2.2944,2.338,2.3813,2.4191,2.4132,2.3505,2.3769,2.4305,2.4551,2.4201,2.3869,1.4963,1.3534,1.3941,1.4153,1.4331,1.5182,1.5673,1.5833,1.5855,1.5356,1.4603,1.4754,1.4445,1.381,1.3573,0.0,0.0,0.0,1.5475,1.662,1.6645,1.6901,1.7447,1.8149,1.8648,1.8964,2.0306,2.1186,2.1638,2.1915,2.05,1.7458,0.0,1.7312,1.8464,1.9036,2.0369,2.2394,2.2696,2.3449,2.4736,2.5195,2.6122,2.7441,2.7207,2.709,2.7266,2.6875,2.6152,2.5117,2.3672,2.2187,0.0,0.0,0.0,0.0,0.0,0.0,0.0,0.0,0.0,0.0,0.0,1.2769,1.1181,0.0,0.0,0.0,1.6737,1.8088,1.945,2.07,0.0,0.0,0.0,0.0,0.0,0.0,0.0,2.4391,2.5844,2.6227,2.5249,2.5268,2.5281,2.4926,2.3157,2.2205,2.3118,0.0,2.1967,2.133,2.1336,2.1336,2.0989,2.0775,2.0788,2.1167,2.1189,2.1234,2.1243,2.1069,2.133,2.2283,2.2594,2.2577,2.2762,2.3164,2.3366,2.3067,2.3595,2.4116,2.4219,2.3551,2.319,1.678,1.6708,1.5832,1.6148,1.722,1.8051,1.8373,1.8346,1.8321,1.7772,1.674,1.6767,1.6779,1.6702,1.6151,0.0,1.6484,1.6727,1.7422,1.849,1.849,1.849,1.849,1.8504,1.8531,1.8558,2.0059,2.079,2.0834,2.1142,2.0968,2.027,2.0255,2.0601,2.1133,1.9603,1.9998,2.2513,2.1206,2.1052,2.2284,2.4316,2.635,2.8306,2.7487,2.7273,2.78,2.7363,2.7109,2.7051,2.5503,2.4082,2.283,0.0,0.0,0.0,0.0,0.0,0.0,0.0,0.0,0.0,0.0,0.0,0.0,0.0,0.0,1.8885,2.1777,0.0,2.4277,2.4102,0.0,0.0,0.0,2.129,2.2404,2.4202,2.5884,2.7181,0.0,0.0,2.6327,2.6382,2.6435,2.5646,2.476,2.4207,2.4178,2.4066,2.367,2.2121,2.1997,2.201,2.1871,2.193,2.1937,2.205,2.2058,2.1951,2.1796,2.1943,2.1984,2.1921,2.2003,2.2204,2.2158,2.2741,2.2719,2.2067,2.2891,2.3512,2.2673,2.2741,2.3057,1.7394,1.7367,1.7142,1.6979,1.6918,1.7983,1.7984,1.7136,1.7125,1.7097,1.7086,1.7301,1.7633,1.8021,1.7911,1.7901,1.7996,1.8036,1.8223,1.849,1.849,1.849,1.8504,1.8718,1.8796,1.8838,1.9448,1.988,2.0084,2.0342,2.0514,2.0611,2.0789,2.0357,1.9345,1.9888,2.1112,2.2961,2.2848,2.3946,2.6294,2.6902,2.7863,2.925,2.7837,2.7725,2.9074,2.8398,2.7988,2.7969,2.6973,2.6089,2.5493,2.1641,0.0,0.0,0.0,0.0,0.0,0.0,0.0,0.0,0.0,1.7441,1.5259,0.0,1.8752,0.0,2.5043,2.5766,2.3694,2.4551,0.0,0.0,2.3867,2.43,2.7409,2.7643,2.8308,3.0186,2.9004,2.7719,2.6889,2.4877,2.3459,2.3206,2.2873,2.2506,2.23,2.2451,2.2457,2.2103,2.2064,2.2024,2.2077,2.2178,2.2405,2.2653,2.2693,2.2666,2.2599,2.2806,2.2979,2.2939,2.3153,2.3327,2.3348,2.3509,2.3522,2.3322,2.3581,2.3734,2.341,2.3496,2.3603,1.7983,1.801,1.801,1.7822,1.7541,1.794,1.7784,1.7301,1.7275,1.7475,1.7782,1.7943,1.7802,1.7479,1.8172,1.8154,1.7641,1.7613,1.7676,1.7818,1.7831,1.7894,1.8049,1.8879,1.9356,1.949,1.9843,2.0057,2.0201,2.0481,2.0677,2.0869,2.1029,2.0638,1.9799,2.0507,2.1255,2.2011,2.2341,2.3593,2.5794,2.5718,2.644,2.8108,2.7505,2.7357,2.7919,2.8531,2.8199,2.674,2.6859,2.6816,2.6392,2.3909,2.2619,0.0,0.0,0.0,0.0,0.0,0.0,0.0,0.0,0.0,0.0,0.0,2.1249,2.3086,2.6269,2.7305,2.5102,2.6426,2.7519,2.7669,2.707,2.7656,3.0176,3.0019,3.0254,3.1641,2.9852,2.8249,2.7553,2.5462,2.3734,2.3131,2.2886,2.2672,2.2452,2.2485,2.2632,2.2786,2.2813,2.2813,2.2813,2.2947,2.3073,2.3255,2.3308,2.3295,2.3308,2.3407,2.3527,2.3541,2.3661,2.3803,2.3817,2.3924,2.3995,2.4142,2.4298,2.4285,2.4058,2.4205,2.4392,1.849,1.849,1.8283,1.82,1.8133,1.7419,1.7461,1.8049,1.8076,1.8126,1.8266,1.8225,1.7359,1.601,1.7369,1.7381,1.6276,1.6247,1.6402,1.6697,1.6903,1.715,1.7422,1.9086,1.9987,2.021,2.0575,2.0766,2.0766,2.0989,2.1109,2.1109,2.1109,2.1082,2.1056,2.1096,2.0989,2.0766,2.1123,2.2065,2.3483,2.3138,2.4051,2.6264,2.6754,2.6715,2.6295,2.8453,2.824,2.5289,2.6494,2.7046,2.6441,2.6345,2.5742,0.0,2.4137,0.0,0.0,0.0,0.0,0.0,0.0,0.0,0.0,2.4528,2.4625,2.3181,2.6654,2.8535,2.7441,2.8816,2.9911,3.0234,3.0391,3.0781,3.1562,3.165,3.1875,3.2394,3.1008,2.9488,2.8296,2.6775,2.5181,2.398,2.3723,2.3594,2.3474,2.3367,2.342,2.3777,2.3817,2.3656,2.3696,2.375,2.375,2.379,2.3763,2.3817,2.3777,2.387,2.3924,2.3901,2.4031,2.4084,2.4031,2.4195,2.4409,2.4666,2.493,2.493,2.4569,2.4756,2.5117,1.849,1.838,1.7089,1.6574,1.645,1.5037,1.5958,1.841,1.841,1.782,1.6874,1.6886,1.6132,1.4938,1.5213,1.5205,1.4982,1.4952,1.5003,1.5104,1.6403,1.7015,1.7185,1.9189,2.0144,2.0237,2.0744,2.1029,2.1029,2.1051,2.1109,2.1109,2.1109,2.0989,2.0775,0.0,0.0,0.0,2.215,2.2865,2.317,2.311,2.3926,2.5671,2.6066,0.0,2.7917,2.9326,2.9193,2.7376,2.8406,0.0,0.0,0.0,0.0,0.0,0.0,0.0,0.0,0.0,0.0,0.0,2.5962,2.604,2.5386,2.7949,2.8691,2.6459,2.8191,2.9383,2.9149,3.0048,3.0664,3.0762,3.1416,3.2042,3.25,3.2528,3.2851,3.3581,3.0918,2.8927,2.8719,2.6245,2.4162,2.3888,2.3817,2.3848,2.4008,2.3821,2.3714,2.3803,2.3857,2.383,2.3817,2.383,2.387,2.3817,2.3817,2.383,2.387,2.4182,2.4449,2.4426,2.4863,2.5144,2.5144,2.505,2.497,2.5291,2.5384,2.5398,2.5291,2.5344,2.5424,1.6598,1.6471,1.5712,1.5366,0.0,1.4487,1.5066,1.6586,1.6445,1.6069,1.5569,1.5569,1.4753,1.3467,1.4242,1.4163,1.3407,1.3407,1.3855,1.4629,1.5459,1.6324,1.725,1.9249,2.0277,2.0468,2.0895,2.1109,2.1109,2.1109,2.1109,2.1109,2.1109,2.1029,2.0927,2.1029,2.1109,2.1109,2.1794,2.21,2.2131,2.21,2.2593,2.3581,2.4416,0.0,0.0,0.0,0.0,0.0,0.0,0.0,0.0,2.7134,0.0,2.7559,2.6602,2.6191,2.6602,2.6641,2.7285,2.8789,2.9735,2.9746,2.8645,3.0186,3.0664,2.9394,3.0039,3.0625,3.0869,3.1299,3.1631,3.1816,3.2226,3.2746,3.3218,3.2575,3.229,3.252,2.9766,2.7633,2.7927,2.5747,2.4156,2.4168,2.4195,2.4235,2.4319,2.4168,2.4022,2.4168,2.4195,2.4195,2.4195,2.4195,2.4182,2.4195,2.4195,2.4195,2.4195,2.4436,2.4599,2.4626,2.501,2.5291,2.5291,2.517,2.5248,2.5598,2.5611,2.5638,2.5852,2.5945,2.5945,1.4569,1.4569,1.4272,1.4192,1.4153,1.3885,1.3765,1.3786,1.4133,0.0,0.0,1.4153,1.3287,1.1886,1.3168,1.3018,1.1826,1.2067,1.2898,1.4212,1.4777,1.5885,1.7451,1.9313,2.0388,2.0712,2.0975,2.1109,2.1109,2.1109,2.1109,2.1109,2.1109,2.1109,2.1109,2.1109,2.1109,2.1109,2.1056,2.1029,2.1029,2.1029,2.1286,2.1833,2.3247,2.4294,2.4858,2.7434,2.8064,2.6467,2.7893,2.8595,2.835,2.8672,2.9512,3.0859,3.1074,3.1269,3.1601,3.1641,3.1699,3.1836,3.2637,3.2715,3.1719,3.1836,3.1864,3.1758,3.1738,3.1735,3.1714,3.2182,3.2262,3.2086,3.2434,3.2899,3.3165,3.2008,3.1168,3.1196,2.8739,2.6682,2.6974,2.5472,2.4319,2.4532,2.4546,2.4599,2.4572,2.4386,2.4356,2.4506,2.4519,2.4572,2.4586,2.4559,2.4599,2.4546,2.4559,2.4599,2.4599,2.4639,2.4679,2.4706,2.4957,2.5144,2.5195,2.513,2.5291,2.5877,2.5718,2.5692,2.6226,2.6386,2.6346,1.4569,1.449,1.3108,1.2547,1.2427,1.105,1.0482,1.0687,1.334,1.3796,1.2539,1.2539,1.1645,1.0149,1.0361,1.0361,1.021,1.1585,1.2337,1.2689,1.5389,1.6925,1.7469,1.9313,2.0357,2.0712,2.0975,2.1109,2.1077,2.1109,2.1109,2.1109,2.1109,2.1109,2.1109,2.1109,2.1109,2.1096,2.0869,2.0766,2.0735,2.0766,2.144,2.287,2.4634,2.6359,2.7778,2.9496,2.976,2.819,2.963,2.9881,2.8561,3.007,3.1142,3.1426,3.1807,3.2042,3.2101,3.2101,3.2413,3.3094,3.3945,3.3769,3.2296,3.3117,3.3398,3.2715,3.2513,3.1826,3.0328,3.1828,3.1963,2.9722,3.1082,3.1884,3.0835,3.0291,3.0213,3.0596,2.8716,2.7243,2.7261,2.5782,2.4546,2.4586,2.4599,2.4599,2.4586,2.4572,2.4559,2.4586,2.4599,2.4599,2.4599,2.4599,2.4599,2.4599,2.4599,2.4599,2.4599,2.4796,2.4943,2.4997,2.5197,2.5384,2.5398,2.5237,2.5371,2.585,2.577,2.5745,2.6266,2.6386,2.6346,1.2006,1.1916,1.1201,1.0899,1.0838,1.0119,0.9792,0.9906,1.1344,1.1615,1.0929,1.0899,1.0475,0.9906,1.0717,1.111,1.1171,1.2749,1.3974,1.4896,1.648,1.7822,1.8973,2.0143,2.0855,2.1194,2.1475,2.159,2.159,2.1577,2.1577,2.1577,2.1577,2.159,2.159,2.159,2.159,2.1577,2.1136,2.0909,2.0909,2.0909,2.1271,2.2004,2.2941,2.4101,2.5727,2.6671,2.717,2.7322,2.9101,2.9792,2.9118,3.0816,3.1875,3.1845,3.1161,3.084,3.1115,3.0561,3.0452,3.0989,3.1608,3.1696,3.0915,3.2122,3.2735,3.2315,3.1396,3.0359,2.9349,3.0318,3.0435,2.915,3.0118,3.0608,3.0241,2.9256,2.8888,2.9109,2.7599,2.6336,2.6359,2.5503,2.4796,2.4639,2.4599,2.4599,2.4599,2.4599,2.4599,2.4599,2.4599,2.4599,2.4599,2.4599,2.4599,2.4599,2.4599,2.4599,2.4599,2.4733,2.4823,2.4863,2.5077,2.5251,2.5291,2.5317,2.5504,2.5837,2.5904,2.5959,2.6266,2.6279,2.6198,0.9792,0.9792,0.9792,0.9792,0.9792,0.9792,0.9812,0.9839,0.9869,0.9859,0.9886,0.9825,0.9792,0.9974,1.1534,1.2276,1.2556,1.443,1.6038,1.7161,1.7859,1.8958,2.0332,2.0975,2.1395,2.1676,2.1884,2.2024,2.2024,2.2024,2.2024,2.2024,2.2024,2.2024,2.2024,2.2024,2.2024,2.1984,2.1537,2.1309,2.1309,2.1309,2.1487,2.1838,2.1869,2.2616,2.4236,2.4543,2.5408,2.6987,2.8272,2.9101,2.9506,3.0532,3.1169,3.112,3.0022,2.9461,2.9834,2.9276,2.8919,2.9164,2.9642,2.9959,3.0012,3.063,3.1218,3.1179,3.0173,2.9126,2.8585,2.9041,2.9045,2.8581,2.9012,2.9337,2.9378,2.8268,2.7517,2.7725,2.6544,2.5556,2.5331,2.5195,2.4957,2.4666,2.4599,2.4599,2.4599,2.4599,2.4599,2.4599,2.4599,2.4599,2.4599,2.4599,2.4599,2.4599,2.4599,2.4599,2.4613,2.4639,2.4706,2.4773,2.501,2.5197,2.5211,2.5344,2.5598,2.5917,2.5971,2.6078,2.6346,2.6239,2.6131,0.9792,0.9792,0.9792,0.9792,0.9798,0.9792,0.9873,0.9988,0.9994,1.0107,1.0188,0.9913,0.9829,1.0048,1.1814,1.2677,1.2992,1.6086,1.7685,1.8045,1.963,2.0624,2.1029,2.1395,2.1703,2.1957,2.2037,2.2044,2.2077,2.205,2.2037,2.2024,2.2024,2.2037,2.2037,2.2037,2.2024,2.2024,2.1937,2.1911,2.1943,2.1911,2.2604,2.4069,2.4054,2.4891,2.6152,2.6613,2.7388,2.8906,2.78,2.7866,2.9155,2.8553,2.8123,2.8458,2.8594,2.8809,2.9055,2.9417,2.9455,2.9677,3.0075,3.0451,3.0431,2.9414,2.9049,2.9553,2.9888,2.8805,2.7098,2.8467,2.8366,2.5963,2.7368,2.8251,2.6902,2.6497,2.6555,2.6568,2.6194,2.5944,2.5784,2.5409,2.497,2.4639,2.4599,2.4599,2.4599,2.4599,2.4599,2.4599,2.4599,2.4673,2.4747,2.4636,2.4871,2.4784,2.4686,2.4787,2.4854,2.4903,2.5037,2.5064,2.5237,2.5411,2.5438,2.5518,2.5625,2.5917,2.6024,2.6091,2.6346,2.6346,2.6319,0.9792,0.9792,0.9792,0.9846,0.9889,0.9927,1.0015,1.0181,1.0181,1.0222,1.0295,1.0148,1.064,1.172,1.342,1.4714,1.5893,1.8179,1.9259,1.9371,2.0447,2.1082,2.1422,2.1857,2.2251,2.2519,2.2532,2.2546,2.2532,2.2532,2.2532,2.2532,2.2532,2.2532,2.2546,2.2532,2.2546,2.2532,2.2532,2.2532,2.2492,2.2164,2.2306,2.2883,2.2981,2.3261,2.3927,2.4138,2.4568,2.5287,2.5749,2.6476,2.7374,2.7883,2.8295,2.8538,2.7734,2.6965,2.6222,2.6508,2.6772,2.6998,2.7385,2.7671,2.7686,2.7041,2.6781,2.6939,2.7093,2.6574,2.5659,2.6293,2.6267,2.5249,2.5965,2.6354,2.5832,2.5798,2.5865,2.5865,2.5971,2.5917,2.5692,2.5344,2.497,2.4666,2.4599,2.4599,2.4599,2.4599,2.4599,2.4599,2.4599,2.5175,2.5896,2.632,2.6333,2.6461,2.6555,2.6399,2.5305,2.5224,2.5331,2.5331,2.5478,2.5545,2.5504,2.5678,2.5877,2.6024,2.6172,2.6292,2.636,2.6386,2.6319,0.9819,0.9859,0.9924,0.9981,1.0082,1.0082,1.0195,1.0331,1.0337,1.0358,1.0399,1.0399,1.1347,1.3078,1.4688,1.6116,1.7472,1.9481,2.02,2.004,2.0901,2.151,2.1863,2.2298,2.2659,2.2867,2.288,2.2893,2.2893,2.2893,2.2893,2.2893,2.2893,2.2893,2.2893,2.2893,2.2893,2.2893,2.2893,2.2893,2.284,2.2479,2.2265,2.2265,2.2218,2.2265,2.2231,2.2432,2.2849,2.3424,2.4399,2.5271,2.6081,2.69,2.7383,2.7571,2.6676,2.5575,2.4545,2.4679,2.4933,2.5184,2.5464,2.5598,2.5545,2.5585,2.5451,2.5217,2.5077,2.5055,2.4653,2.4679,2.4823,2.4957,2.5077,2.5277,2.5384,2.5451,2.5531,2.5531,2.5705,2.5757,2.5438,2.5197,2.497,2.4666,2.4599,2.4653,2.4743,2.477,2.4783,2.4863,2.4853,2.5357,2.6587,2.6551,2.696,2.7126,2.6944,2.6519,2.572,2.5621,2.5625,2.5677,2.5692,2.5772,2.5865,2.6051,2.6105,2.6119,2.6239,2.6386,2.6386,2.64,2.64,0.9873,1.0021,1.0195,1.0249,1.027,1.027,1.0351,1.0487,1.048,1.0561,1.067,1.065,1.1633,1.3331,1.4853,1.5686,1.6318,1.9266,2.0151,1.9378,2.0986,2.2051,2.2392,2.2733,2.288,2.2893,2.2893,2.2893,2.2893,2.2893,2.2893,2.2893,2.2893,2.2893,2.2893,2.2893,2.2893,2.2893,2.292,2.2907,2.292,2.288,2.2853,2.2867,2.284,2.2813,2.2853,2.2867,2.3708,2.5711,2.4302,2.4351,2.5956,2.4954,2.4388,2.458,2.4985,2.5184,2.5088,2.5277,2.5464,2.5531,2.5772,2.5864,2.5638,2.581,2.5665,2.5181,2.509,2.4957,2.4679,2.4823,2.489,2.4706,2.5106,2.5291,2.5155,2.5291,2.5491,2.5478,2.5491,2.5424,2.5195,2.5128,2.497,2.477,2.4613,2.4719,2.4997,2.5064,2.5157,2.5331,2.5398,2.5409,2.5319,2.6122,2.5998,2.6305,2.6833,2.59,2.5765,2.5705,2.5877,2.6011,2.6106,2.6213,2.6306,2.6346,2.6346,2.6373,2.6386,2.6453,2.66,2.6453,2.6493,1.0148,1.0202,1.0256,1.0331,1.0444,1.0412,1.05,1.0636,1.0636,1.0663,1.0711,1.0717,1.1663,1.3316,1.39,1.4803,1.5899,1.7237,1.8189,1.8977,1.9931,2.1047,2.2364,2.276,2.2893,2.2893,2.2893,2.2893,2.2893,2.2893,2.2893,2.2893,2.2893,2.2893,2.2893,2.2893,2.2893,2.292,2.3046,2.3166,2.318,2.3375,2.3482,2.3455,2.3094,2.2953,2.3153,2.3153,2.36,2.4553,2.3961,2.4012,2.482,2.4571,2.4462,2.4743,2.5007,2.5157,2.5358,2.5625,2.5837,2.585,2.6105,2.6186,2.6079,2.6038,2.5824,2.5424,2.517,2.4957,2.473,2.4706,2.4719,2.4653,2.4773,2.4943,2.485,2.4853,2.4919,2.4946,2.5104,2.5184,2.5208,2.5237,2.5237,2.501,2.5077,2.5211,2.5317,2.5358,2.5411,2.5491,2.5518,2.5545,2.5717,2.6715,2.7343,2.7559,2.764,2.6975,2.6621,2.6183,2.6186,2.6265,2.64,2.6453,2.648,2.6507,2.6533,2.6653,2.6667,2.6747,2.6921,2.6854,2.6907,1.0351,1.0358,1.0405,1.048,1.0561,1.0568,1.0622,1.0717,1.0717,1.0717,1.0717,1.0717,1.1372,1.2347,1.2479,1.3071,1.4379,1.5368,1.6426,1.7401,1.8668,2.0114,2.1483,2.2474,2.2947,2.302,2.3148,2.3188,2.3188,2.3188,2.3188,2.3188,2.3188,2.3188,2.3188,2.3188,2.3188,2.3241,2.3367,2.346,2.35,2.3661,2.3817,2.375,2.3402,2.3281,2.346,2.346,2.3607,2.3897,2.3915,2.4035,2.4329,2.4623,2.4863,2.5064,2.5302,2.5476,2.5651,2.5971,2.6131,2.6145,2.6266,2.6399,2.6292,2.6105,2.5824,2.5476,2.5211,2.4957,2.4679,2.4599,2.4599,2.4599,2.4599,2.4599,2.4599,2.4599,2.4666,2.4786,2.4983,2.5104,2.5262,2.5384,2.5384,2.5237,2.5398,2.5518,2.5625,2.5665,2.5705,2.5772,2.5838,2.5919,2.5999,2.6666,2.7098,2.7319,2.753,2.7192,2.7014,2.6623,2.6466,2.652,2.656,2.6587,2.6627,2.6693,2.6774,2.6921,2.6974,2.7055,2.7175,2.7255,2.7255,1.0493,1.0514,1.0656,1.0657,1.0697,1.0697,1.0711,1.0717,1.0698,1.0744,1.0751,1.0744,1.0838,1.0877,1.1071,1.0986,1.1836,1.4178,1.503,1.4685,1.7455,1.924,2.0141,2.203,2.3027,2.3233,2.3567,2.3723,2.3643,2.3616,2.3643,2.3736,2.3683,2.3656,2.3777,2.3723,2.375,2.375,2.3777,2.3768,2.3817,2.3857,2.3897,2.387,2.3817,2.3781,2.383,2.3817,2.3915,2.4168,2.4209,2.4306,2.4586,2.4917,2.509,2.5262,2.5663,2.5944,2.6011,2.6252,2.6346,2.6346,2.6386,2.6293,2.6158,2.6065,2.581,2.5291,2.5144,2.4983,2.4679,2.4599,2.4599,2.4599,2.4599,2.4599,2.4599,2.4613,2.4719,2.501,2.5117,2.5211,2.5411,2.5545,2.5545,2.5545,2.5585,2.5705,2.5957,2.5998,2.6118,2.6253,2.6239,2.6213,2.6306,2.6412,2.6452,2.6505,2.6702,2.6638,2.6771,2.656,2.672,2.6787,2.6827,2.6867,2.7001,2.7041,2.7148,2.7269,2.7296,2.7349,2.7483,2.7563,2.7483,1.0649,1.0623,1.0664,1.0717,1.0717,1.0717,1.0717,1.0731,1.0792,1.084,1.086,1.0982,1.1057,1.1023,1.1029,1.105,1.1193,1.2297,1.3126,1.4327,1.6522,1.8483,2.0093,2.1971,2.2947,2.3041,2.3134,2.3188,2.3215,2.3215,2.3233,2.342,2.3487,2.3581,2.3817,2.3817,2.3817,2.383,2.3968,2.4062,2.4088,2.4262,2.4356,2.4332,2.4319,2.4369,2.4319,2.4168,2.4209,2.4489,2.4466,2.4636,2.493,2.5224,2.5464,2.5703,2.5877,2.6091,2.6279,2.6333,2.64,2.64,2.64,2.636,2.6305,2.6279,2.5972,2.5464,2.5371,2.5197,2.4719,2.4599,2.4599,2.4599,2.4599,2.4613,2.4666,2.4836,2.5064,2.5317,2.5371,2.5424,2.5531,2.5665,2.5864,2.5838,2.5972,2.6146,2.6213,2.6265,2.6305,2.6386,2.64,2.6426,2.6466,2.6573,2.668,2.6694,2.6694,2.668,2.672,2.6827,2.6934,2.7081,2.7121,2.7201,2.7322,2.7403,2.7496,2.7563,2.7562,2.771,2.7871,2.7857,2.7764,1.0717,1.0724,1.0745,1.0772,1.0779,1.086,1.0887,1.09,1.0948,1.1029,1.105,1.1152,1.12,1.12,1.12,1.1234,1.1274,1.1288,1.1986,1.3504,1.5847,1.7636,1.93,2.1858,2.3148,2.3228,2.3241,2.3241,2.3241,2.3241,2.3335,2.3474,2.3487,2.3647,2.3937,2.3977,2.4004,2.4102,2.4275,2.4369,2.4396,2.4506,2.4599,2.4613,2.4693,2.4759,2.4759,2.4716,2.4716,2.4773,2.4853,2.5026,2.5251,2.5518,2.5797,2.5957,2.6105,2.6238,2.636,2.6386,2.64,2.64,2.64,2.6386,2.6373,2.6319,2.5999,2.5611,2.5398,2.5157,2.4706,2.4599,2.4639,2.4796,2.481,2.4813,2.4906,2.5117,2.5358,2.5585,2.5678,2.5732,2.5852,2.5959,2.6158,2.6185,2.6266,2.64,2.64,2.6386,2.64,2.644,2.6533,2.656,2.6587,2.6747,2.6961,2.6987,2.6987,2.6987,2.7001,2.7108,2.7229,2.7415,2.7509,2.7684,2.7777,2.775,2.7791,2.7844,2.7843,2.7965,2.8058,2.8098,2.8031,1.0704,1.0765,1.0867,1.0928,1.0941,1.1084,1.1159,1.1186,1.1206,1.1206,1.1213,1.1254,1.1254,1.1234,1.1274,1.1336,1.1382,1.1409,1.1499,1.2583,1.4805,1.6926,1.8694,2.1757,2.3252,2.3562,2.3616,2.3656,2.3549,2.3549,2.3763,2.3696,2.3661,2.3861,2.4035,2.4155,2.4222,2.4396,2.4452,2.4489,2.4466,2.4546,2.4572,2.4613,2.489,2.5064,2.513,2.5317,2.5344,2.5184,2.5358,2.5504,2.5585,2.585,2.6024,2.6065,2.6279,2.6293,2.6346,2.6253,2.6266,2.6253,2.6253,2.6346,2.6226,2.6039,2.5798,2.5478,2.5251,2.4983,2.4679,2.4639,2.4823,2.5077,2.513,2.5224,2.5478,2.5531,2.5678,2.5944,2.6038,2.6105,2.6319,2.6333,2.6346,2.636,2.6373,2.6386,2.64,2.64,2.64,2.6507,2.6653,2.6774,2.6814,2.7081,2.7281,2.7308,2.7335,2.7403,2.7389,2.7429,2.7523,2.775,2.7843,2.8045,2.8112,2.8031,2.8018,2.8045,2.8098,2.8165,2.8192,2.8192,2.8192,1.0914,1.105,1.1125,1.1104,1.1111,1.1186,1.12,1.1213,1.1322,1.137,1.1348,1.1457,1.1477,1.1497,1.1491,1.1525,1.1545,1.1552,1.1572,1.1958,1.3861,1.7548,2.0681,2.2323,2.3033,2.3161,2.3201,2.3134,2.3134,2.3174,2.3281,2.3434,2.3447,2.3594,2.3834,2.3924,2.395,2.3981,2.4022,2.4048,2.4075,2.4249,2.4386,2.4613,2.493,2.517,2.5398,2.5678,2.5705,2.5451,2.5717,2.5877,2.5891,2.6079,2.6252,2.6186,2.6106,2.6066,2.5987,2.5801,2.5694,2.5745,2.5528,2.5745,2.5745,2.5678,2.5478,2.5251,2.5141,2.4957,2.4706,2.485,2.517,2.5636,2.5545,2.5531,2.5797,2.5891,2.5998,2.6252,2.6305,2.6346,2.636,2.64,2.64,2.64,2.64,2.6413,2.644,2.6453,2.648,2.6653,2.6814,2.6961,2.7121,2.7402,2.7575,2.7629,2.7696,2.7831,2.7804,2.7804,2.7924,2.8085,2.8045,2.8138,2.8165,2.8125,2.8179,2.8192,2.8192,2.8192,2.8192,2.8192,2.8192,1.109,1.1206,1.1268,1.1295,1.1302,1.1328,1.139,1.1369,1.1443,1.1491,1.1504,1.1536,1.1584,1.1584,1.1577,1.1584,1.1584,1.1584,1.1653,1.204,1.3734,1.7197,2.0712,2.17,2.2125,2.2893,2.2907,2.2907,2.2907,2.2893,2.2966,2.31,2.3126,2.3287,2.3581,2.3763,2.3848,2.3968,2.4062,2.4142,2.4155,2.4289,2.4436,2.4626,2.493,2.5248,2.5491,2.5678,2.5732,2.5758,2.6011,2.6131,2.6024,2.6145,2.6159,2.6039,2.5852,2.5449,2.4623,2.4329,2.3791,2.3355,2.3586,2.4175,2.4393,2.4788,2.5224,2.5155,2.4983,2.4877,2.493,2.5197,2.561,2.5891,2.5905,2.5945,2.6158,2.6132,2.6213,2.6346,2.64,2.64,2.64,2.64,2.64,2.64,2.64,2.6466,2.656,2.656,2.6667,2.6894,2.7108,2.7281,2.7442,2.7682,2.7802,2.7911,2.7938,2.8072,2.8072,2.8058,2.8098,2.8165,2.8179,2.8192,2.8192,2.8192,2.8192,2.8192,2.8192,2.8192,2.8192,2.8192,2.8192,1.1227,1.1254,1.1355,1.1416,1.1436,1.1558,1.1586,1.1577,1.1626,1.1604,1.1617,1.166,1.1708,1.1624,1.1721,1.1681,1.1681,1.1708,1.1762,1.2297,1.3683,1.6239,1.8975,2.0309,2.146,2.2804,2.3014,2.3041,2.3094,2.3054,2.3027,2.3121,2.3094,2.3126,2.346,2.3661,2.3794,2.3569,2.3567,2.3316,2.3072,2.3038,2.3052,2.3215,2.3618,2.3973,2.4278,2.456,2.4637,2.5166,2.5924,2.6079,2.5919,2.5866,2.5411,2.4893,2.4457,2.3587,2.2511,2.204,2.1427,2.035,2.1299,2.2051,2.2316,2.3353,2.4359,2.4295,2.4624,2.4917,2.5224,2.569,2.5944,2.6091,2.6279,2.636,2.64,2.64,2.64,2.64,2.64,2.64,2.64,2.64,2.6413,2.6547,2.6547,2.6653,2.6774,2.6867,2.7028,2.7255,2.7455,2.7655,2.7802,2.7991,2.8058,2.8125,2.8098,2.8152,2.8152,2.8138,2.8165,2.8192,2.8192,2.8192,2.8192,2.8192,2.8192,2.8192,2.8192,2.8192,2.8192,2.8192,2.8192,1.1409,1.1525,1.1552,1.1572,1.1572,1.1606,1.1584,1.164,1.1742,1.1753,1.1773,1.1904,1.1989,1.1952,1.1938,1.1972,1.1945,1.1982,1.203,1.208,1.2368,1.3903,1.6458,1.8856,2.153,2.2998,2.3567,2.3567,2.3519,2.343,2.3567,2.347,2.3241,2.3594,2.3554,2.3229,2.2911,2.1811,2.1559,2.0891,1.9911,1.9896,2.0076,2.0241,2.0616,2.0769,2.073,2.0713,2.0784,2.158,2.3671,2.5138,2.4945,2.3955,2.3263,2.2769,2.144,2.0325,1.9832,1.9563,1.9257,1.8678,1.8965,1.9437,1.955,2.1264,2.2232,2.2706,2.3879,2.4957,2.5677,2.5891,2.6091,2.6265,2.6333,2.6347,2.6347,2.6347,2.64,2.64,2.64,2.64,2.64,2.64,2.648,2.6653,2.6774,2.6867,2.7014,2.7161,2.7389,2.7603,2.7724,2.7843,2.7991,2.8085,2.8125,2.8192,2.8192,2.8192,2.8192,2.8192,2.8192,2.8192,2.8192,2.8192,2.8192,2.8192,2.8192,2.8192,2.8192,2.8192,2.8192,2.8192,2.8192,1.1545,1.1577,1.1584,1.166,1.1678,1.1685,1.1762,1.183,1.1904,1.1938,1.1952,1.207,1.2098,1.2098,1.2098,1.2091,1.2118,1.2179,1.2207,1.2227,1.2343,1.3393,1.5019,1.7261,1.9584,2.2039,2.3398,2.3327,2.2814,2.3148,2.3216,2.2407,2.2384,2.2155,2.2074,2.1655,2.053,1.9808,1.9654,1.9107,1.8323,1.8255,1.8393,1.8562,1.8871,1.9031,1.9137,1.9108,1.9108,1.9619,2.1047,2.2338,2.2357,2.1485,2.0891,2.0413,1.9705,1.8209,1.7674,1.7159,1.6732,1.5922,1.6561,1.7018,1.7626,1.907,2.0747,2.1749,2.3037,2.4265,2.5789,2.6158,2.6253,2.6333,2.6347,2.599,2.5251,2.57,2.64,2.64,2.64,2.64,2.64,2.5819,2.6348,2.644,2.6626,2.6759,2.7348,2.7495,2.7684,2.7844,2.7924,2.8018,2.8112,2.8165,2.8165,2.8192,2.8192,2.8192,2.8192,2.8192,2.8192,2.8192,2.8192,2.8192,2.8192,2.8192,2.8192,2.8192,2.8192,2.8192,2.8192,2.8192,2.8192,1.1617,1.1653,1.1674,1.1719,1.182,1.187,1.1932,1.2077,1.2125,1.2132,1.2145,1.2152,1.2213,1.2179,1.2186,1.2173,1.2213,1.2288,1.2318,1.2332,1.2406,1.3279,1.4688,1.5759,1.7199,1.9986,2.1667,2.1667,2.1257,2.1908,2.1643,2.0604,2.0411,2.048,2.0078,1.9101,1.8289,1.7862,1.7895,1.7596,1.7189,1.7142,1.7151,1.7132,1.7122,1.7159,1.7121,1.7226,1.7426,1.7701,1.7663,1.7798,1.798,1.8375,1.8402,1.81,1.7578,1.6483,1.542,1.4982,1.436,1.2656,1.3984,1.4952,1.5539,1.6981,1.877,2.0242,2.1422,2.2619,2.4762,2.4677,2.4922,2.5092,2.5251,2.4522,2.35,2.4338,2.4725,2.496,2.4276,2.4016,2.4358,2.4266,2.53,2.612,2.6278,2.665,2.7154,2.7681,2.7719,2.7883,2.7951,2.8045,2.8138,2.8165,2.8165,2.8192,2.8192,2.8192,2.8192,2.8192,2.8192,2.8192,2.8192,2.8192,2.8192,2.8192,2.8192,2.8192,2.8192,2.8192,2.8192,2.8192,2.8192,1.1759,1.1773,1.1932,1.2043,1.2057,1.2064,1.2084,1.2118,1.221,1.225,1.2271,1.2372,1.2406,1.2413,1.2458,1.242,1.24,1.2433,1.2447,1.2447,1.2494,1.2997,1.3375,1.4552,1.5747,1.6679,1.8356,1.9036,1.9057,1.9259,1.9585,1.9068,1.8908,1.8908,1.8822,1.8464,1.7123,1.6016,1.5925,1.5425,1.4437,1.4137,1.4137,1.4137,1.4253,1.4099,1.3868,1.3683,1.3529,1.3529,1.3529,1.366,1.4299,1.5415,1.5995,1.5816,1.4821,1.3945,1.3452,1.3151,1.2919,1.2617,1.3011,1.3198,1.3737,1.5055,1.669,1.7729,1.9194,2.044,2.0793,2.1581,2.119,2.116,2.1402,2.1149,2.0704,2.082,2.1007,2.0983,2.0897,2.134,2.197,2.2487,2.2992,2.3739,2.4133,2.4964,2.5943,2.6729,2.7416,2.7649,2.7924,2.8018,2.8138,2.8138,2.8152,2.8179,2.8192,2.8192,2.8192,2.8192,2.8192,2.8192,2.8192,2.8192,2.8192,2.8192,2.8192,2.8192,2.8192,2.8192,2.8192,2.8192,2.8192,1.184,1.1959,1.207,1.2145,1.2207,1.2176,1.2261,1.2298,1.2366,1.24,1.242,1.2467,1.2501,1.2501,1.2501,1.2501,1.2501,1.2501,1.2501,1.2501,1.2501,1.2501,1.2501,1.3645,1.383,1.4207,1.5042,1.618,1.7056,1.8222,1.7815,1.7132,1.7018,1.7018,1.6675,1.576,1.5119,1.4061,1.3945,1.3568,1.2617,1.2501,1.2501,1.2501,1.2501,1.2501,1.2501,1.2501,1.254,1.2579,1.2579,1.2501,1.2804,1.3259,1.3984,1.383,1.3074,1.2501,1.2501,1.2508,1.2574,1.261,1.2623,1.2698,1.2979,1.3905,1.4994,1.6415,1.8272,1.9775,2.0048,1.9745,1.9907,1.9907,1.9735,1.9149,1.8456,1.8111,1.7606,1.7387,1.8782,1.9733,2.0142,2.0516,2.0704,2.1229,2.1864,2.3056,2.4401,2.5513,2.6364,2.69,2.7147,2.7817,2.7938,2.8005,2.8112,2.8165,2.8192,2.8192,2.8192,2.8192,2.8192,2.8192,2.8192,2.8192,2.8192,2.8192,2.8192,2.8192,2.8192,2.8192,2.8192,2.8192,2.8192,1.1993,1.2145,1.2179,1.2261,1.2318,1.2332,1.2393,1.2488,1.2494,1.2494,1.2501,1.2501,1.2501,1.2501,1.2501,1.2501,1.2501,1.2501,1.2501,1.2501,1.2501,1.2501,1.2501,1.2501,1.2695,1.2919,1.2958,1.3337,1.4859,1.6142,1.6113,1.5348,1.4897,1.4897,1.459,1.376,1.2656,1.2501,1.2501,1.2501,1.2501,1.2501,1.2501,1.2501,1.2501,1.2501,1.2501,1.2501,1.2501,1.2501,1.2501,1.2501,1.2501,1.2501,1.2501,1.2501,1.2501,1.2515,1.2549,1.2562,1.263,1.2759,1.2733,1.2861,1.303,1.3436,1.4059,1.5885,1.713,1.8141,1.7914,1.8366,1.8298,1.8238,1.8039,1.7822,1.6385,1.5594,1.5143,1.5651,1.7186,1.7663,1.7651,1.761,1.7607,1.8882,1.9567,2.0704,2.2104,2.3833,2.4816,2.5634,2.6339,2.7289,2.7684,2.7776,2.7978,2.8165,2.8179,2.8192,2.8192,2.8192,2.8192,2.8192,2.8192,2.8192,2.8192,2.8192,2.8192,2.8192,2.8192,2.8192,2.8192,2.8192,2.8192,1.225,1.2271,1.24,1.2461,1.2467,1.2467,1.2481,1.2494,1.2501,1.2501,1.2501,1.2501,1.2501,1.2501,1.2501,1.2501,1.2501,1.2501,1.2501,1.2501,1.2501,1.2501,1.2501,1.2501,1.2501,1.2501,1.2501,1.2579,1.3259,1.3606,1.3452,1.3151,1.3182,1.2958,1.3221,1.2811,1.254,1.2501,1.2501,1.2501,1.2501,1.2501,1.2501,1.2501,1.2501,1.2501,1.2508,1.2515,1.2522,1.2522,1.2515,1.2508,1.2501,1.2501,1.2501,1.2501,1.2515,1.2562,1.2664,1.2698,1.2766,1.2895,1.2975,1.305,1.318,1.3261,1.3521,1.359,1.4368,1.4725,1.4975,1.4401,1.4145,1.4452,1.4844,1.4542,1.3679,1.4326,1.3715,1.3732,1.5215,1.4825,1.449,1.4441,1.4538,1.5984,1.7378,1.8454,1.9797,2.1536,2.3697,2.4657,2.5895,2.6944,2.7388,2.7522,2.7762,2.8058,2.8165,2.8179,2.8192,2.8192,2.8192,2.8192,2.8192,2.8192,2.8192,2.8192,2.8192,2.8192,2.8192,2.8192,2.8192,2.8192,2.8192,1.2413,1.2413,1.2474,1.2501,1.2501,1.2501,1.2501,1.2501,1.2501,1.2501,1.2501,1.2501,1.2501,1.2501,1.2501,1.2501,1.2501,1.2501,1.2501,1.2501,1.2501,1.2501,1.2501,1.2501,1.2501,1.2501,1.2501,1.2501,1.2501,1.2501,1.2501,1.2501,1.2501,1.2617,1.2501,1.2501,1.2501,1.2501,1.2501,1.2501,1.2501,1.2501,1.2501,1.2508,1.2508,1.2515,1.2528,1.2596,1.2623,1.2651,1.2698,1.2759,1.2799,1.2805,1.2805,1.2805,1.2805,1.2759,1.2745,1.282,1.2935,1.3037,1.3132,1.3193,1.3275,1.3349,1.3397,1.3438,1.3315,1.3281,1.3254,1.3139,1.3118,1.3071,1.305,1.3023,1.3003,1.3009,1.3117,1.3145,1.318,1.32,1.3261,1.3521,1.3815,1.4474,1.5316,1.5833,1.736,1.9139,2.1554,2.4001,2.5359,2.676,2.7054,2.7255,2.7535,2.7844,2.8125,2.8152,2.8179,2.8192,2.8192,2.8192,2.8192,2.8192,2.8192,2.8192,2.8192,2.8192,2.8192,2.8192,2.8192,2.8192,2.8192,1.2501,1.2501,1.2501,1.2501,1.2501,1.2501,1.2501,1.2501,1.2501,1.2501,1.2501,1.2501,1.2501,1.2501,1.2501,1.2501,1.2501,1.2501,1.2501,1.2501,1.2501,1.2501,1.2501,1.2501,1.2501,1.2501,1.244,1.2461,1.2481,1.2467,1.2447,1.2494,1.2501,1.2501,1.2501,1.2501,1.2501,1.2501,1.2501,1.2501,1.2508,1.2549,1.2562,1.2576,1.2589,1.2617,1.263,1.2712,1.2786,1.2807,1.2907,1.2955,1.2962,1.2955,1.2955,1.2969,1.2989,1.2956,1.2929,1.2969,1.3085,1.3173,1.3234,1.3275,1.3356,1.3397,1.3363,1.3329,1.3254,1.3234,1.3186,1.3098,1.3077,1.3057,1.3037,1.3016,1.3009,1.305,1.3091,1.3159,1.3241,1.3288,1.3342,1.3376,1.3431,1.3431,1.348,1.3604,1.5275,1.7433,2.0008,2.2826,2.4169,2.5761,2.6854,2.7094,2.7348,2.7602,2.7924,2.8125,2.8165,2.8179,2.8192,2.8192,2.8192,2.8192,2.8192,2.8192,2.8192,2.8192,2.8192,2.8192,2.8192,2.8192,2.8192,1.2501,1.2501,1.2501,1.2501,1.2501,1.2501,1.2501,1.2501,1.2501,1.2501,1.2501,1.2501,1.2501,1.2501,1.2501,1.2501,1.2501,1.2501,1.2515,1.2515,1.2508,1.2535,1.2549,1.2556,1.2515,1.2494,1.2433,1.2427,1.2447,1.2413,1.2427,1.2481,1.2467,1.2488,1.2528,1.2569,1.2556,1.2556,1.2556,1.2556,1.2589,1.2644,1.2672,1.2745,1.284,1.2969,1.2962,1.2975,1.2982,1.2942,1.3037,1.3064,1.3084,1.3077,1.3077,1.3091,1.3159,1.3119,1.3146,1.3166,1.322,1.3329,1.3356,1.3315,1.3315,1.337,1.3329,1.3261,1.3207,1.3207,1.3166,1.3111,1.3064,1.3064,1.305,1.3043,1.3064,1.3139,1.318,1.3234,1.3302,1.3342,1.337,1.3397,1.3397,1.3397,1.3438,1.3604,1.4822,1.686,1.9248,2.1534,2.278,2.4446,2.6453,2.6974,2.7161,2.7428,2.7764,2.7991,2.8152,2.8165,2.8192,2.8192,2.8192,2.8192,2.8192,2.8192,2.8192,2.8192,2.8192,2.8192,2.8192,2.8192,2.8192,1.2501,1.2501,1.2501,1.2501,1.2501,1.2501,1.2501,1.2501,1.2501,1.2501,1.2508,1.2501,1.2501,1.2508,1.2501,1.2501,1.2501,1.2501,1.2556,1.2623,1.2651,1.2698,1.2718,1.2671,1.2605,1.2557,1.2494,1.2433,1.2481,1.2413,1.2447,1.2474,1.2427,1.2515,1.2583,1.2678,1.2691,1.2664,1.2718,1.2812,1.28,1.282,1.2868,1.2881,1.2948,1.3003,1.3009,1.3091,1.3118,1.3146,1.3166,1.3186,1.32,1.3207,1.32,1.3193,1.3254,1.3234,1.3234,1.3268,1.3302,1.3275,1.3288,1.3275,1.3227,1.3146,1.3173,1.3166,1.3146,1.3139,1.3186,1.3091,1.3023,1.305,1.3077,1.3084,1.3132,1.3214,1.3268,1.3316,1.3322,1.3383,1.3397,1.3397,1.3397,1.3397,1.348,1.3728,1.4781,1.5835,1.8028,1.9937,2.123,2.35,2.5562,2.6319,2.684,2.7268,2.7575,2.7871,2.8085,2.8165,2.8192,2.8192,2.8192,2.8192,2.8192,2.8192,2.8192,2.8192,2.8192,2.8192,2.8192,2.8192,2.8192,1.2501,1.2501,1.2501,1.2501,1.2501,1.2501,1.2501,1.2501,1.2501,1.2535,1.2569,1.2569,1.2603,1.2623,1.2644,1.269,1.2703,1.2671,1.2684,1.2705,1.2693,1.2773,1.2766,1.2718,1.2578,1.2584,1.2528,1.244,1.2501,1.2461,1.2461,1.244,1.2379,1.2461,1.261,1.2752,1.2773,1.2718,1.2752,1.2867,1.2846,1.2854,1.2922,1.2969,1.2996,1.3043,1.3057,1.3111,1.3146,1.3207,1.3241,1.3336,1.3376,1.3397,1.3376,1.3349,1.3315,1.3261,1.3186,1.318,1.322,1.3166,1.3152,1.3118,1.3077,1.3057,1.3159,1.3193,1.3132,1.3105,1.3173,1.3132,1.3139,1.32,1.322,1.3234,1.3261,1.3281,1.3322,1.3363,1.339,1.3397,1.3397,1.3397,1.3397,1.3397,1.3438,1.348,1.3811,1.4946,1.6246,1.8028,1.9532,2.2115,2.4694,2.4977,2.5448,2.7188,2.7523,2.7791,2.7991,2.8098,2.8192,2.8192,2.8192,2.8192,2.8192,2.8192,2.8192,2.8192,2.8192,2.8192,2.8192,2.8192,2.8192,1.2501,1.2501,1.2508,1.2515,1.2535,1.2508,1.2515,1.2528,1.2542,1.261,1.2718,1.2725,1.2793,1.2928,1.2914,1.2894,1.284,1.2901,1.2834,1.2706,1.2686,1.2657,1.2617,1.2589,1.2564,1.2488,1.2427,1.2427,1.2501,1.242,1.242,1.2447,1.24,1.2379,1.2501,1.2522,1.2522,1.2522,1.2562,1.261,1.2651,1.2759,1.2861,1.2969,1.3003,1.3043,1.3098,1.3064,1.3091,1.3166,1.318,1.3254,1.3315,1.3356,1.3308,1.3234,1.3227,1.3152,1.3037,1.3023,1.3016,1.3023,1.3023,1.305,1.3146,1.318,1.318,1.3193,1.3186,1.3193,1.3214,1.3186,1.3247,1.3281,1.3302,1.3315,1.3336,1.3342,1.3376,1.339,1.3397,1.3397,1.3397,1.3397,1.3397,1.3397,1.3397,1.3438,1.3486,1.4052,1.5234,1.6688,1.8354,2.0705,2.2968,2.33,2.4134,2.6109,2.7429,2.7697,2.7951,2.8138,2.8192,2.8192,2.8192,2.8192,2.8192,2.8192,2.8192,2.8192,2.8192,2.8192,2.8192,2.8192,2.8192,1.2562,1.2611,1.2651,1.2712,1.2779,1.2691,1.2657,1.2671,1.2759,1.2834,1.2914,1.2881,1.2941,1.2996,1.2996,1.2962,1.2834,1.2807,1.2706,1.2699,1.2693,1.2786,1.2739,1.2657,1.2598,1.2571,1.2515,1.2433,1.2501,1.2427,1.2447,1.2474,1.2447,1.2406,1.2474,1.2576,1.2773,1.2698,1.2745,1.2813,1.2807,1.284,1.2888,1.2982,1.2982,1.3009,1.3057,1.2989,1.3003,1.3071,1.3078,1.3186,1.3207,1.3234,1.322,1.3105,1.3071,1.3057,1.2975,1.2935,1.2813,1.284,1.2955,1.2942,1.2908,1.303,1.3098,1.32,1.3234,1.3268,1.3295,1.3315,1.3356,1.3363,1.337,1.337,1.3383,1.3383,1.3397,1.3397,1.3397,1.3397,1.3397,1.3397,1.3397,1.3397,1.3397,1.3397,1.3445,1.3645,1.4458,1.5876,1.7538,1.9613,2.123,2.1845,2.3594,2.5982,2.7115,2.7603,2.7844,2.8138,2.8192,2.8192,2.8192,2.8192,2.8192,2.8192,2.8192,2.8192,2.8192,2.8192,2.8192,2.8192,2.8192,1.2632,1.2807,1.2813,1.2868,1.2975,1.2854,1.2813,1.2827,1.2962,1.3023,1.3064,1.3071,1.3077,1.3077,1.3064,1.2996,1.282,1.2813,1.2713,1.2706,1.2693,1.2732,1.2725,1.2718,1.2617,1.2584,1.2576,1.2501,1.2501,1.2501,1.2501,1.2501,1.2501,1.2454,1.2481,1.2623,1.2718,1.2651,1.2691,1.2771,1.2785,1.2819,1.2807,1.2873,1.2834,1.282,1.2887,1.2887,1.2873,1.2895,1.2956,1.3057,1.3043,1.3064,1.3064,1.2969,1.2921,1.2901,1.2955,1.2941,1.2854,1.2847,1.2915,1.2935,1.2895,1.3024,1.3173,1.3248,1.3275,1.3295,1.337,1.3397,1.3397,1.3397,1.3397,1.3397,1.3397,1.3397,1.3397,1.3397,1.3397,1.3397,1.3397,1.3397,1.3397,1.3397,1.3397,1.3397,1.3397,1.3604,1.3769,1.4863,1.5917,1.7384,1.9207,2.0746,2.2843,2.5678,2.6609,2.7152,2.7884,2.8192,2.8192,2.8192,2.8192,2.8192,2.8192,2.8192,2.8192,2.8192,2.8192,2.8192,2.8192,2.8192,2.8192,1.2827,1.2996,1.3009,1.3016,1.3023,1.3037,1.3023,1.3023,1.3023,1.3105,1.3214,1.3207,1.3186,1.3159,1.3193,1.3091,1.2962,1.2948,1.2813,1.2732,1.2645,1.2637,1.2583,1.2562,1.2589,1.2556,1.2556,1.2617,1.2535,1.2589,1.2589,1.2556,1.2596,1.2576,1.2596,1.2617,1.2623,1.2596,1.2569,1.2596,1.2642,1.2569,1.2637,1.2664,1.2651,1.2651,1.2664,1.2664,1.2678,1.2725,1.2747,1.2861,1.2955,1.3003,1.2874,1.28,1.2773,1.2861,1.3003,1.3009,1.3037,1.3043,1.305,1.3105,1.3105,1.3146,1.3241,1.3308,1.3349,1.337,1.3397,1.3397,1.3397,1.3397,1.3397,1.3397,1.3397,1.3397,1.3397,1.3397,1.3397,1.3397,1.3397,1.3397,1.3397,1.3397,1.3397,1.3397,1.3397,1.3397,1.3521,1.3562,1.4458,1.4904,1.6697,1.9014,2.0958,2.345,2.5602,2.6496,2.7344,2.8052,2.8192,2.8192,2.8192,2.8192,2.8192,2.8192,2.8192,2.8192,2.8192,2.8192,2.8192,2.8192,2.8192,1.3023,1.3146,1.3152,1.3214,1.3268,1.3275,1.3275,1.3275,1.3275,1.3308,1.3329,1.3261,1.2887,1.3207,1.3111,1.2862,1.2735,1.2773,1.2684,1.2598,1.252,1.2523,1.2562,1.2617,1.2651,1.2698,1.2745,1.2786,1.2853,1.2853,1.2853,1.2873,1.2819,1.2793,1.2839,1.286,1.2684,1.2583,1.2549,1.2549,1.2535,1.2542,1.2583,1.2583,1.2589,1.2596,1.2596,1.2664,1.2705,1.2693,1.2942,1.3084,1.2989,1.3084,1.3051,1.2962,1.2955,1.2996,1.3118,1.3152,1.3186,1.3261,1.3247,1.3241,1.3234,1.3268,1.3342,1.3376,1.3397,1.3397,1.3397,1.3397,1.3397,1.3397,1.3397,1.3397,1.3397,1.3397,1.3397,1.3397,1.3397,1.3397,1.3397,1.3397,1.3397,1.3397,1.3397,1.3397,1.3397,1.3397,1.3397,1.3397,1.3604,1.421,1.544,1.7556,1.9192,2.1056,2.3561,2.5542,2.6096,2.68,2.7757,2.8192,2.8192,2.8192,2.8192,2.8192,2.8192,2.8192,2.8192,2.8192,2.8192,2.8192,2.8192,1.3173,1.3254,1.3261,1.2847,1.1986,1.1112,1.0737,1.0889,1.1647,1.1665,1.0906,1.1541,1.1475,1.0607,1.1074,1.1068,1.0025,1.0912,1.1275,1.1357,1.207,1.2626,1.2739,1.2601,1.2807,1.2868,1.2895,1.2962,1.3009,1.3003,1.2989,1.2982,1.3003,1.3003,1.2982,1.2955,1.2854,1.2759,1.2698,1.2684,1.2671,1.2671,1.2678,1.2664,1.2671,1.2671,1.2678,1.2786,1.2813,1.282,1.3084,1.3091,1.3009,1.3077,1.3159,1.3057,1.3091,1.3166,1.3234,1.3268,1.3322,1.337,1.3397,1.3349,1.3329,1.3342,1.3376,1.3397,1.3397,1.3397,1.3397,1.3397,1.3397,1.3397,1.3397,1.3397,1.3397,1.3397,1.3397,1.3397,1.3397,1.3397,1.3397,1.3397,1.3397,1.3397,1.3397,1.3397,1.3397,1.3397,1.3397,1.3397,1.3521,1.3804,1.5036,1.6089,1.7533,1.967,2.2646,2.4268,2.4798,2.6236,2.7799,2.8192,2.8192,2.8192,2.8192,2.8192,2.8192,2.8192,2.8192,2.8192,2.8192,2.8192,2.8192,1.3151,1.3002,1.2925,1.149,0.9695,0.7799,0.6877,0.6665,0.8484,0.8532,0.7512,0.8944,0.8738,0.8024,0.8802,0.8509,0.8124,0.8714,0.9316,0.9381,1.0587,1.1307,1.1484,1.2321,1.1591,1.2247,1.2688,1.243,1.295,1.3091,1.3111,1.3037,1.3064,1.3098,1.3111,1.3105,1.3077,1.3017,1.3023,1.3009,1.2962,1.2975,1.3003,1.2975,1.2969,1.2969,1.2982,1.3003,1.3016,1.3016,1.3043,1.3071,1.3084,1.3051,1.3152,1.3193,1.3234,1.3247,1.3329,1.3356,1.337,1.339,1.3397,1.339,1.3383,1.3376,1.3397,1.3397,1.3397,1.3397,1.3397,1.3397,1.3397,1.3397,1.3397,1.3397,1.3397,1.3397,1.3397,1.3397,1.3397,1.3397,1.3397,1.3397,1.3397,1.3397,1.3397,1.3397,1.3397,1.3397,1.3397,1.3397,1.348,1.3562,1.3991,1.4995,1.6033,1.8232,2.1042,2.2892,2.3349,2.5489,2.8094,2.8192,2.8192,2.8192,2.8192,2.8192,2.8192,2.8192,2.8192,2.8192,2.8192,2.8192,2.8192,1.2337,1.0646,0.9029,0.7956,0.7488,0.6947,0.5651,0.4255,0.4621,0.5601,0.6603,0.7051,0.697,0.6307,0.671,0.6513,0.6418,0.6509,0.7004,0.7217,0.8154,0.9228,0.8401,0.9363,0.9586,1.0193,1.085,1.1969,1.2954,1.3261,1.3281,1.3281,1.3268,1.3247,1.3247,1.3254,1.3247,1.3234,1.3234,1.3186,1.3064,1.3016,1.3003,1.3009,1.3023,1.3037,1.3064,1.3118,1.3146,1.3173,1.3247,1.3288,1.3302,1.3288,1.3308,1.3336,1.3329,1.3356,1.3376,1.3397,1.3397,1.3397,1.3397,1.3397,1.3397,1.3397,1.3397,1.3397,1.3397,1.3397,1.3397,1.3397,1.3397,1.3397,1.3397,1.3397,1.3397,1.3397,1.3397,1.3397,1.3397,1.3397,1.3397,1.3397,1.3397,1.3397,1.3397,1.3397,1.3397,1.3397,1.3397,1.3397,1.3397,1.3528,1.3666,1.3964,1.5004,1.5886,1.8063,1.9937,2.1956,2.5221,2.8192,2.8192,2.8192,2.8192,2.8192,2.8192,2.8192,2.8192,2.8192,2.8192,2.8192,2.8192,2.8192,1.1171,0.9625,0.6518,0.5176,0.5009,0.4178,0.2975,0.2045,0.1855,0.2517,0.3854,0.4549,0.4655,0.4192,0.4496,0.4274,0.411,0.461,0.4905,0.5103,0.595,0.7569,0.7502,0.7559,0.9978,1.0934,1.1422,1.2424,1.3272,1.339,1.3383,1.3397,1.3397,1.3397,1.3397,1.3397,1.3397,1.339,1.3397,1.3302,1.318,1.3186,1.3152,1.3159,1.3193,1.3186,1.3214,1.3241,1.3254,1.3281,1.3349,1.337,1.3376,1.337,1.3383,1.339,1.339,1.3397,1.3397,1.3397,1.3397,1.3397,1.3397,1.3397,1.3397,1.3397,1.3397,1.3397,1.3397,1.3397,1.3397,1.3397,1.3397,1.3397,1.3397,1.3397,1.3397,1.3397,1.3397,1.3397,1.3397,1.3397,1.3397,1.3397,1.3397,1.3397,1.3397,1.3397,1.3397,1.3397,1.3397,1.3397,1.3397,1.3403,1.35,1.3623,1.4012,1.4877,1.5763,1.9238,2.2536,2.5786,2.8192,2.8192,2.8192,2.8192,2.8192,2.8192,2.8192,2.8192,2.8192,2.8192,2.8192,2.8192,2.8192,0.9767,0.8616,0.4622,0.2887,0.264,0.0936,0.0,0.0,0.0,0.0,0.0,0.2289,0.1585,0.1341,0.1765,0.1093,0.1176,0.2338,0.2804,0.339,0.46,0.5627,0.6957,0.8236,0.9105,1.0652,1.1843,1.2561,1.3355,1.3397,1.3397,1.3397,1.3397,1.3397,1.3403,1.3397,1.3397,1.3397,1.3397,1.3397,1.339,1.3397,1.337,1.3376,1.3397,1.3397,1.3397,1.3397,1.3397,1.339,1.339,1.3397,1.3397,1.3397,1.3397,1.3397,1.3397,1.3397,1.3397,1.3397,1.3397,1.3397,1.3397,1.3397,1.3397,1.3397,1.3397,1.3397,1.3397,1.3397,1.3397,1.3397,1.3397,1.3397,1.3397,1.3397,1.3397,1.3397,1.3397,1.3397,1.3397,1.3397,1.3397,1.3397,1.3397,1.3397,1.3397,1.3397,1.3397,1.3397,1.3397,1.3397,1.3397,1.3403,1.341,1.3512,1.3675,1.4117,1.5433,1.9376,2.2847,2.5191,2.7067,2.8192,2.8192,2.8192,2.8192,2.8192,2.8192,2.8192,2.8192,2.8192,2.8192,2.8192,2.8192,0.8062,0.4407,0.1703,0.0,0.0,0.0,0.0,0.0,0.0,0.0,0.0,0.0,0.0252,0.0,0.0295,0.0,0.0,0.0,0.0,0.0925,0.0,0.0,0.4449,0.5628,0.5284,0.7471,1.0336,1.173,1.2721,1.316,1.341,1.3431,1.3424,1.3417,1.3417,1.3417,1.3424,1.3431,1.3424,1.3424,1.341,1.3403,1.3397,1.3397,1.3397,1.3397,1.3397,1.3397,1.3397,1.3397,1.3397,1.3397,1.3397,1.3397,1.3397,1.3397,1.3397,1.3397,1.3397,1.3397,1.3397,1.3397,1.3397,1.3397,1.3397,1.3397,1.3397,1.3397,1.3397,1.3397,1.3397,1.3397,1.3397,1.3397,1.3397,1.3397,1.3397,1.3397,1.3397,1.3397,1.3397,1.3397,1.3397,1.3397,1.3397,1.3397,1.3397,1.3397,1.3397,1.3397,1.3397,1.3397,1.3397,1.3397,1.3403,1.3437,1.3608,1.3893,1.4942,1.8429,2.1388,2.3641,2.5416,2.749,2.8179,2.8192,2.8192,2.8192,2.8192,2.8192,2.8192,2.8192,2.8192,2.8192,2.8192]},{"header":{"parameterUnit":"m.s-1","parameterCategory":1,"la1":31.0,"la2":29.5877,"lo1":-88.7671,"lo2":-86.6584,"dx":0.0162,"dy":0.0185,"nx":115,"ny":88,"refTime":"2022-11-23T18:00:00:Z","depth":0,"parameterNumber":3,"parameterNumberName":"V-component_of_WINDS"},"data":[0.0,0.0,0.0,0.0,0.0,0.0,0.0,0.0,0.0,0.0,0.0,0.0,0.0,0.0,0.0,0.0,0.0,0.0,0.0,0.0,0.0,0.0,0.0,0.0,0.0,0.0,0.0,0.0,0.0,0.0,0.0,0.0,0.0,0.0,0.0,0.0,0.0,0.0,0.0,0.0,0.0,0.0,0.0,0.0,0.0,0.0,0.0,0.0,0.0,0.0,0.0,0.0,0.0,0.0,0.0,0.0,0.0,0.0,0.0,0.0,0.0,0.0,0.0,0.0,0.0,0.0,0.0,0.0,0.0,0.0,0.0,0.0,0.0,0.0,0.0,0.0,0.0,0.0,0.0,0.0,0.0,0.0,0.0,0.0,0.0,0.0,0.0,0.0,0.0,0.0,0.0,0.0,0.0,0.0,0.0,0.0,0.0,0.0,0.0,0.0,0.0,0.0,0.0,0.0,0.0,0.0,0.0,0.0,0.0,0.0,0.0,0.0,0.0,0.0,0.0,0.0,0.0,0.0,0.0,0.0,0.0,0.0,0.0,0.0,0.0,0.0,0.0,0.0,0.0,0.0,0.0,0.0,0.0,0.0,0.0,0.0,0.0,0.0,0.0,0.0,0.0,0.0,0.0,0.0,0.0,0.0,0.0,0.0,0.0,0.0,0.0,0.0,0.0,0.0,0.0,0.0,0.0,0.0,0.0,0.0,0.0,0.0,0.0,0.0,0.0,0.0,0.0,0.0,0.0,0.0,0.0,0.0,0.0,0.0,0.0,0.0,0.0,0.0,0.0,0.0,0.0,0.0,0.0,0.0,0.0,0.0,0.0,0.0,0.0,0.0,0.0,0.0,0.0,0.0,0.0,0.0,0.0,0.0,0.0,0.0,0.0,0.0,0.0,0.0,0.0,0.0,0.0,0.0,0.0,0.0,0.0,0.0,0.0,0.0,0.0,0.0,0.0,0.0,0.0,0.0,0.0,0.0,0.0,0.0,0.0,0.0,0.0,0.0,0.0,0.0,0.0,0.0,0.0,0.0,0.0,0.0,0.0,0.0,0.0,0.0,0.0,0.0,0.0,0.0,0.0,0.0,0.0,0.0,0.0,0.0,0.0,0.0,0.0,0.0,0.0,0.0,0.0,0.0,0.0,0.0,0.0,0.0,0.0,0.0,0.0,0.0,0.0,0.0,0.0,0.0,0.0,0.0,0.0,0.0,0.0,0.0,0.0,0.0,0.0,0.0,0.0,0.0,0.0,0.0,0.0,0.0,0.0,0.0,0.0,0.0,0.0,0.0,0.0,0.0,0.0,0.0,0.0,0.0,0.0,0.0,0.0,0.0,0.0,0.0,0.0,0.0,0.0,0.0,0.0,0.0,0.0,0.0,0.0,0.0,0.0,0.0,0.0,0.0,0.0,0.0,0.0,0.0,0.0,0.0,0.0,0.0,0.0,0.0,0.0,0.0,0.0,0.0,0.0,0.0,0.0,0.0,0.0,0.0,0.0,0.0,0.0,0.0,0.0,0.0,0.0,0.0,0.0,0.0,0.0,0.0,0.0,0.0,0.0,0.0,0.0,0.0,0.0,0.0,0.0,0.0,0.0,0.0,0.0,0.0,0.0,0.0,0.0,0.0,0.0,0.0,0.0,0.0,0.0,0.0,0.0,0.0,0.0,0.0,0.0,0.0,0.0,0.0,0.0,0.0,0.0,0.0,0.0,0.0,0.0,0.0,0.0,0.0,0.0,0.0,0.0,0.0,0.0,0.0,0.0,0.0,0.0,0.0,0.0,0.0,0.0,0.0,0.0,0.0,0.0,0.0,0.0,0.0,0.0,0.0,0.0,0.0,0.0,0.0,0.0,0.0,0.0,0.0,0.0,0.0,0.0,0.0,0.0,0.0,0.0,0.0,0.0,0.0,0.0,0.0,0.0,0.0,0.0,0.0,0.0,0.0,0.0,0.0,0.0,0.0,0.0,0.0,0.0,0.0,0.0,0.0,0.0,0.0,0.0,0.0,0.0,0.0,0.0,0.0,0.0,0.0,0.0,0.0,0.0,0.0,0.0,0.0,0.0,0.0,0.0,0.0,0.0,0.0,0.0,0.0,0.0,0.0,0.0,0.0,0.0,0.0,0.0,0.0,0.0,0.0,0.0,0.0,0.0,0.0,0.0,0.0,0.0,0.0,0.0,0.0,0.0,0.0,0.0,0.0,0.0,0.0,0.0,0.0,0.0,0.0,0.0,0.0,0.0,0.0,0.0,0.0,0.0,0.0,0.0,0.0,0.0,0.0,0.0,0.0,0.0,0.0,0.0,0.0,0.0,0.0,0.0,0.0,0.0,0.0,0.0,0.0,0.0,0.0,0.0,0.0,0.0,0.0,0.0,0.0,0.0,0.0,0.0,0.0,0.0,0.0,0.0,0.0,0.0,0.0,0.0,0.0,0.0,0.0,0.0,0.0,0.0,0.0,0.0,0.0,0.0,0.0,0.0,0.0,0.0,0.0,0.0,0.0,0.0,0.0,0.0,0.0,0.0,0.0,0.0,0.0,0.0,0.0,0.0,0.0,0.0,0.0,0.0,0.0,0.0,0.0,0.0,0.0,0.0,0.0,0.0,0.0,0.0,0.0,0.0,0.0,0.0,0.0,0.0,0.0,0.0,0.0,0.0,0.0,0.0,0.0,0.0,0.0,0.0,0.0,0.0,0.0,0.0,0.0,0.0,0.0,0.0,0.0,0.0,0.0,0.0,0.0,0.0,0.0,0.0,0.0,0.0,0.0,0.0,0.0,0.0,0.0,0.0,0.0,0.0,0.0,0.0,0.0,0.0,0.0,0.0,0.0,0.0,0.0,0.0,0.0,0.0,0.0,0.0,0.0,0.0,0.0,0.0,0.0,0.0,0.0,0.0,0.0,0.0,0.0,0.0,0.0,0.0,0.0,0.0,0.0,0.0,0.0,0.0,0.0,0.0,0.0,0.0,0.0,0.0,0.0,0.0,0.0,0.0,0.0,0.0,0.0,0.0,0.0,0.0,0.0,0.0,0.0,0.0,0.0,0.0,0.0,0.0,0.0,0.0,0.0,0.0,0.0,0.0,0.0,0.0,0.0,0.0,0.0,0.0,0.0,0.0,0.0,0.0,0.0,0.0,0.0,0.0,0.0,0.0,0.0,0.0,0.0,0.0,0.0,0.0,0.0,0.0,0.0,0.0,0.0,0.0,0.0,0.0,0.0,0.0,0.0,0.0,0.0,0.0,0.0,0.0,0.0,0.0,0.0,0.0,0.0,0.0,0.0,0.0,0.0,0.0,0.0,0.0,0.0,0.0,0.0,0.0,0.0,0.0,0.0,0.0,0.0,0.0,0.0,0.0,0.0,0.0,0.0,0.0,0.0,0.0,0.0,0.0,0.0,0.0,0.0,0.0,0.0,0.0,0.0,0.0,0.0,0.0,0.0,0.0,0.0,0.0,0.0,0.0,0.0,0.0,0.0,0.0,0.0,0.0,0.0,0.0,0.0,0.0,0.0,0.0,0.0,0.0,0.0,0.0,0.0,0.0,0.0,0.0,0.0,0.0,0.0,0.0,0.0,0.0,0.0,0.0,0.0,0.0,0.0,0.0,0.0,0.0,0.0,0.0,0.0,0.0,0.0,0.0,0.0,0.0,0.0,0.0,0.0,0.0,0.0,0.0,0.0,0.0,0.0,0.0,0.0,0.0,0.0,0.0,0.0,0.0,0.0,0.0,0.0,0.0,0.0,0.0,0.0,0.0,0.0,0.0,0.0,0.0,0.0,0.0,0.0,0.0,0.0,0.0,0.0,0.0,0.0,0.0,0.0,0.0,0.0,0.0,0.0,0.0,0.0,0.0,0.0,0.0,0.0,0.0,0.0,0.0,0.0,0.0,0.0,0.0,0.0,0.0,0.0,0.0,0.0,0.0,0.0,0.0,0.0,0.0,0.0,0.0,0.0,0.0,0.0,0.0,0.0,0.0,0.0,0.0,0.0,0.0,0.0,0.0,0.0,0.0,0.0,0.0,0.0,0.0,0.0,0.0,0.0,0.0,0.0,0.0,0.0,0.0,0.0,0.0,0.0,0.0,0.0,0.0,0.0,0.0,0.0,0.0,0.0,0.0,0.0,0.0,0.0,0.0,0.0,0.0,0.0,0.0,0.0,0.0,0.0,0.0,0.0,0.0,0.0,0.0,0.0,0.0,0.0,0.0,0.0,0.0,0.0,0.0,0.0,0.0,0.0,0.0,0.0,0.0,0.0,1.5062,0.0,0.0,0.0,1.253,0.0,0.0,0.0,0.0,0.0,0.0,0.0,0.0,0.0,0.0,0.0,0.0,0.0,0.0,0.0,0.0,0.0,0.0,0.0,0.0,0.0,0.0,0.0,0.0,0.0,0.0,0.0,0.0,0.0,0.0,0.0,0.0,0.0,0.0,0.0,0.0,0.0,0.0,0.0,0.0,0.0,0.0,0.0,0.0,0.0,0.0,0.0,0.0,0.0,0.0,0.0,0.0,0.0,0.0,0.0,0.0,0.0,0.0,0.0,0.0,0.0,0.0,0.0,0.0,0.0,0.0,0.0,0.0,0.0,0.0,0.0,0.0,0.0,0.0,0.0,0.0,0.0,0.0,0.0,0.0,0.0,0.0,0.0,0.0,0.0,0.0,0.0,0.0,0.0,0.0,0.0,0.0,0.0,0.0,0.0,0.0,0.0,0.0,0.0,0.0,0.0,0.0,0.0,0.0,0.0,0.0,0.0,0.0,0.0,0.0,1.4602,1.2585,1.4645,1.4537,1.2092,0.0,0.0,0.0,0.0,0.0,0.0,0.0,0.0,0.0,0.0,0.0,0.0,0.0,0.0,0.0,0.0,0.0,0.0,0.0,0.0,0.0,0.0,0.0,0.0,0.0,0.0,0.0,0.0,0.0,0.0,0.0,0.0,0.0,0.0,0.0,0.0,0.0,0.0,0.0,0.0,0.0,0.0,0.0,0.0,0.0,0.0,0.0,0.0,0.0,0.0,0.0,0.0,0.0,0.0,0.0,0.0,0.0,0.0,0.0,0.0,0.0,0.0,0.0,0.0,0.0,0.0,0.0,0.0,0.0,0.0,0.0,0.0,0.0,0.0,0.0,0.0,0.0,0.0,0.0,0.0,0.0,0.0,0.0,0.0,0.0,0.0,0.0,0.0,0.0,0.0,0.0,0.0,0.0,0.0,0.0,0.0,0.0,0.0,0.0,0.0,0.0,0.0,0.0,0.0,0.0,0.0,0.0,0.0,0.0,0.0,0.0,0.0,1.5372,1.5693,1.3599,0.0,0.0,0.0,0.0,0.0,0.0,0.0,0.0,0.0,0.0,0.0,0.0,0.0,0.0,0.0,0.0,0.0,0.0,0.0,0.0,0.0,0.0,0.0,0.0,0.0,0.0,0.0,0.0,0.0,0.0,0.0,0.0,0.0,0.0,0.0,0.0,0.0,0.0,0.0,0.0,0.0,0.0,0.0,0.0,0.0,0.0,0.0,0.0,0.0,0.0,0.0,0.0,0.0,0.0,0.0,0.0,0.0,0.0,0.0,0.0,0.0,0.0,0.0,0.0,0.0,0.0,0.0,0.0,0.0,0.0,0.0,0.0,0.0,0.0,0.0,0.0,0.0,0.0,0.0,0.0,0.0,0.0,0.0,0.0,0.0,0.0,0.0,0.0,0.0,0.0,0.0,0.0,0.0,0.0,0.0,0.0,0.0,0.0,0.0,0.0,0.0,0.0,0.0,0.0,0.0,0.0,0.0,0.0,0.0,0.0,1.3592,1.4963,1.5359,0.0,1.7879,0.0,0.0,0.0,0.0,0.0,0.0,0.0,0.0,0.0,0.0,0.0,0.0,0.0,0.0,0.0,0.0,0.0,0.0,0.0,0.0,0.0,0.0,0.0,0.0,0.0,0.0,0.0,0.0,0.0,0.0,0.0,0.0,0.0,0.0,0.0,0.0,0.0,0.0,0.0,0.0,0.0,0.0,0.0,0.0,0.0,0.0,0.0,0.0,0.0,0.0,0.0,0.0,0.0,0.0,0.0,0.0,0.0,0.0,0.0,0.0,0.0,0.0,0.0,0.0,0.0,0.0,0.0,0.0,0.0,0.0,0.0,0.0,0.0,0.0,0.0,0.0,0.0,0.0,0.0,0.0,0.0,0.0,0.0,0.0,0.0,0.0,0.0,0.0,0.0,0.0,0.0,0.0,0.0,0.0,0.0,0.0,0.0,0.0,0.0,0.0,0.0,0.0,0.0,0.0,0.0,0.0,0.0,0.0,0.0,0.0,1.4514,1.5323,1.5767,1.6893,0.0,0.0,0.0,0.0,0.0,0.0,0.0,0.0,0.0,0.0,0.0,0.0,0.0,0.0,0.0,0.0,0.0,0.0,0.0,0.0,0.0,0.0,0.0,0.0,0.0,0.0,0.0,0.0,0.0,0.0,0.0,0.0,0.0,0.0,0.0,0.0,0.0,0.0,0.0,0.0,0.0,0.0,0.0,0.0,0.0,0.0,0.0,0.0,0.0,0.0,0.0,0.0,0.0,0.0,0.0,0.0,0.0,0.0,0.0,0.0,0.0,0.0,0.0,0.0,0.0,0.0,0.0,0.0,0.0,0.0,0.0,0.0,0.0,0.0,0.0,0.0,0.0,0.0,0.0,0.0,0.0,0.0,0.0,0.0,0.0,0.0,0.0,0.0,0.0,0.0,0.0,0.0,0.0,0.0,0.0,0.0,0.0,0.0,0.0,0.0,0.0,0.0,0.0,0.0,0.0,0.0,0.0,0.0,0.0,0.0,1.4629,1.5562,1.6528,1.7362,1.8097,1.8785,0.0,0.0,0.0,0.0,0.0,0.0,0.0,0.0,0.0,0.0,0.0,0.0,0.0,0.0,0.0,0.0,0.0,0.0,0.0,0.0,0.0,0.0,0.0,0.0,0.0,0.0,0.0,0.0,0.0,0.0,0.0,0.0,0.0,0.0,0.0,0.0,0.0,0.0,0.0,0.0,0.0,0.0,0.0,0.0,0.0,0.0,0.0,0.0,0.0,0.0,0.0,0.0,0.0,0.0,0.0,0.0,0.0,0.0,0.0,0.0,0.0,0.0,0.0,0.0,0.0,0.0,0.0,0.0,0.0,0.0,0.0,0.0,0.0,0.0,0.0,0.0,0.0,0.0,0.0,0.0,0.0,0.0,0.0,0.0,0.0,0.0,0.0,0.0,0.0,0.0,0.0,0.0,0.0,0.0,0.0,0.0,0.0,0.0,0.0,0.0,0.0,0.0,0.0,0.0,0.0,0.0,0.0,0.0,1.7137,1.5891,1.6524,1.9332,2.0539,2.0224,0.0,0.0,0.0,0.0,0.0,0.0,0.0,0.0,0.0,0.0,0.0,0.0,0.0,0.0,0.0,0.0,0.0,0.0,0.0,0.0,0.0,0.0,0.0,0.0,0.0,0.0,0.0,0.0,0.0,0.0,0.0,0.0,0.0,0.0,0.0,0.0,0.0,0.0,0.0,0.0,0.0,0.0,0.0,0.0,0.0,0.0,0.0,0.0,0.0,0.0,0.0,0.0,0.0,0.0,0.0,0.0,0.0,0.0,0.0,0.0,0.0,0.0,0.0,0.0,0.0,0.0,0.0,0.0,0.0,0.0,0.0,0.0,0.0,0.0,0.0,0.0,0.0,0.0,0.0,0.0,0.0,0.0,0.0,0.0,0.0,0.0,0.0,0.0,0.0,0.0,0.0,0.0,0.0,0.0,0.0,0.0,0.0,0.0,0.0,0.0,0.0,0.0,0.0,0.0,0.0,0.0,0.0,0.0,0.0,1.4136,1.5382,1.8178,2.2352,2.0344,1.959,0.0,0.0,0.0,0.0,0.0,0.0,0.0,0.0,0.0,0.0,0.0,0.0,0.0,0.0,0.0,0.0,0.0,0.0,0.0,0.0,0.0,0.0,0.0,0.0,0.0,0.0,0.0,0.0,0.0,0.0,0.0,0.0,0.0,0.0,0.0,0.0,0.0,0.0,0.0,0.0,0.0,0.0,0.0,0.0,0.0,0.0,0.0,0.0,0.0,0.0,0.0,0.0,0.0,0.0,0.0,0.0,0.0,0.0,0.0,0.0,0.0,0.0,0.0,0.0,0.0,0.0,0.0,0.0,0.0,0.0,0.0,0.0,0.0,0.0,0.0,0.0,0.0,0.0,0.0,0.0,0.0,0.0,0.0,0.0,0.0,0.0,0.0,0.0,0.0,0.0,0.0,0.0,0.0,0.0,0.0,0.0,0.0,0.0,0.0,0.0,0.0,0.0,0.0,0.0,0.0,0.0,0.0,0.0,0.0,1.4767,1.7451,2.0325,2.318,2.0705,1.9463,0.0,0.0,0.0,0.0,0.0,0.0,0.0,0.0,0.0,0.0,0.0,0.0,0.0,0.0,0.0,0.0,0.0,0.0,0.0,0.0,0.0,0.0,0.0,0.0,0.0,0.0,0.0,0.0,0.0,0.0,0.0,0.0,0.0,0.0,0.0,0.0,0.0,0.0,0.0,0.0,0.0,0.0,0.0,0.0,0.0,0.0,0.0,0.0,0.0,0.0,0.0,0.0,0.0,0.0,0.0,0.0,0.0,0.0,0.0,0.0,0.0,0.0,0.0,0.0,0.0,0.0,0.0,0.0,0.0,0.0,0.0,0.0,0.0,0.0,0.0,0.0,0.0,0.0,0.0,0.0,0.0,0.0,0.0,0.0,0.0,0.0,0.0,0.0,0.0,0.0,0.0,0.0,0.0,0.0,0.0,0.0,0.0,0.0,0.0,0.0,0.0,0.0,0.0,0.0,0.0,0.0,0.0,0.0,1.4848,1.9853,2.2162,2.2793,2.1644,2.1942,2.0053,0.0,0.0,0.0,0.0,0.0,0.0,0.0,0.0,0.0,0.0,0.0,0.0,0.0,0.0,0.0,0.0,0.0,0.0,0.0,0.0,0.0,0.0,0.0,0.0,0.0,0.0,0.0,0.0,0.0,0.0,0.0,0.0,0.0,0.0,0.0,0.0,0.0,0.0,0.0,0.0,0.0,0.0,0.0,0.0,0.0,0.0,0.0,0.0,0.0,0.0,0.0,0.0,0.0,0.0,0.0,0.0,0.0,0.0,0.0,0.0,0.0,0.0,0.0,0.0,0.0,0.0,0.0,0.0,0.0,0.0,0.0,0.0,0.0,0.0,0.0,0.0,0.0,0.0,0.0,0.0,0.0,0.0,0.0,0.0,0.0,0.0,0.0,0.0,0.0,0.0,0.0,0.0,0.0,0.0,0.0,0.0,0.0,0.0,0.0,0.0,0.0,0.0,0.0,0.0,0.0,0.0,0.0,0.0,0.0,1.8178,2.1839,2.4075,2.4549,2.1953,2.0505,0.0,0.0,0.0,0.0,0.0,0.0,0.0,0.0,0.0,0.0,0.0,0.0,0.0,0.0,0.0,0.0,0.0,0.0,0.0,0.0,0.0,0.0,0.0,0.0,0.0,0.0,0.0,0.0,0.0,0.0,0.0,0.0,0.0,0.0,0.0,0.0,0.0,0.0,0.0,0.0,0.0,0.0,0.0,0.0,0.0,0.0,0.0,0.0,0.0,0.0,0.0,0.0,0.0,0.0,0.0,0.0,0.0,0.0,0.0,0.0,0.0,0.0,0.0,0.0,0.0,0.0,0.0,0.0,0.0,0.0,0.0,0.0,0.0,0.0,0.0,0.0,0.0,0.0,0.0,0.0,0.0,0.0,0.0,0.0,0.0,0.0,0.0,0.0,0.0,0.0,0.0,0.0,0.0,0.0,0.0,0.0,0.0,0.0,0.0,0.0,0.0,0.0,0.0,0.0,0.0,0.0,0.0,0.0,0.0,2.1462,2.4989,2.7163,2.769,2.369,2.1695,2.211,0.0,0.0,0.0,0.0,0.0,0.0,0.0,0.0,0.0,0.0,0.0,0.0,0.0,0.0,0.0,0.0,0.0,0.0,0.0,0.0,0.0,0.0,0.0,0.0,0.0,0.0,0.0,0.0,0.0,0.0,0.0,0.0,0.0,0.0,0.0,0.0,0.0,0.0,0.0,0.0,0.0,0.0,0.0,0.0,0.0,0.0,0.0,0.0,0.0,0.0,0.0,0.0,0.0,0.0,0.0,0.0,0.0,0.0,0.0,0.0,0.0,0.0,0.0,0.0,0.0,0.0,0.0,0.0,0.0,0.0,0.0,0.0,0.0,0.0,0.0,0.0,0.0,0.0,0.0,0.0,0.0,0.0,0.0,0.0,0.0,0.0,0.0,0.0,0.0,0.0,0.0,0.0,0.0,0.0,0.0,0.0,0.0,0.0,0.0,0.0,0.0,0.0,0.0,0.0,0.0,0.0,0.0,0.0,2.8321,3.098,3.18,3.0596,2.6684,2.3574,0.0,0.0,0.0,0.0,0.0,0.0,0.0,0.0,0.0,0.0,0.0,0.0,0.0,0.0,0.0,0.0,0.0,0.0,0.0,0.0,0.0,0.0,0.0,0.0,0.0,0.0,0.0,0.0,0.0,0.0,0.0,0.0,0.0,0.0,0.0,0.0,0.0,0.0,0.0,0.0,0.0,0.0,0.0,0.0,0.0,0.0,0.0,0.0,0.0,0.0,0.0,0.0,0.0,0.0,0.0,0.0,0.0,0.0,0.0,0.0,0.0,0.0,0.0,0.0,0.0,0.0,0.0,0.0,0.0,0.0,0.0,0.0,0.0,0.0,0.0,0.0,0.0,0.0,0.0,0.0,0.0,0.0,0.0,0.0,0.0,0.0,0.0,0.0,0.0,0.0,0.0,0.0,0.0,0.0,0.0,0.0,0.0,0.0,0.0,0.0,0.0,0.0,0.0,0.0,0.0,0.0,0.0,0.0,0.0,3.1405,3.4511,3.5154,3.3189,2.866,2.5485,0.0,0.0,0.0,0.0,0.0,0.0,0.0,0.0,0.0,0.0,0.0,0.0,0.0,0.0,0.0,0.0,0.0,0.0,0.0,0.0,0.0,0.0,0.0,0.0,0.0,0.0,0.0,0.0,0.0,0.0,0.0,0.0,0.0,0.0,0.0,0.0,0.0,0.0,0.0,0.0,0.0,0.0,0.0,0.0,0.0,0.0,0.0,0.0,0.0,0.0,0.0,0.0,0.0,0.0,0.0,0.0,0.0,0.0,0.0,0.0,0.0,0.0,0.0,0.0,0.0,0.0,0.0,0.0,0.0,0.0,0.0,0.0,0.0,0.0,0.0,0.0,0.0,0.0,0.0,0.0,0.0,0.0,0.0,0.0,0.0,0.0,0.0,0.0,0.0,0.0,0.0,0.0,0.0,0.0,0.0,0.0,0.0,0.0,0.0,0.0,0.0,0.0,0.0,0.0,0.0,0.0,0.0,0.0,2.9152,3.3991,3.6671,3.7382,3.6112,3.1706,2.8351,0.0,0.0,0.0,0.0,0.0,0.0,0.0,0.0,0.0,0.0,0.0,0.0,0.0,0.0,0.0,0.0,0.0,0.0,0.0,0.0,0.0,0.0,0.0,0.0,0.0,0.0,0.0,0.0,0.0,0.0,0.0,0.0,0.0,0.0,0.0,0.0,0.0,0.0,0.0,0.0,0.0,0.0,0.0,0.0,0.0,0.0,0.0,0.0,0.0,0.0,0.0,0.0,0.0,0.0,0.0,0.0,0.0,0.0,0.0,0.0,0.0,0.0,0.0,0.0,0.0,0.0,0.0,0.0,0.0,0.0,0.0,0.0,0.0,0.0,0.0,0.0,0.0,0.0,0.0,0.0,0.0,0.0,0.0,0.0,0.0,0.0,0.0,0.0,0.0,0.0,0.0,0.0,0.0,0.0,0.0,0.0,0.0,0.0,0.0,0.0,0.0,0.0,0.0,0.0,0.0,0.0,0.0,0.0,3.1481,3.5899,3.7757,3.8681,3.8579,3.4934,3.1456,0.0,0.0,0.0,0.0,0.0,0.0,0.0,0.0,0.0,0.0,0.0,0.0,0.0,0.0,0.0,0.0,0.0,0.0,0.0,0.0,0.0,0.0,0.0,0.0,0.0,0.0,0.0,0.0,0.0,0.0,0.0,0.0,0.0,0.0,0.0,0.0,0.0,0.0,0.0,0.0,0.0,0.0,0.0,0.0,0.0,0.0,0.0,0.0,0.0,0.0,0.0,0.0,0.0,0.0,0.0,0.0,0.0,0.0,0.0,0.0,0.0,0.0,0.0,0.0,0.0,0.0,0.0,0.0,0.0,0.0,0.0,0.0,0.0,0.0,0.0,0.0,0.0,0.0,0.0,0.0,0.0,0.0,0.0,0.0,0.0,0.0,0.0,0.0,0.0,0.0,0.0,0.0,0.0,0.0,0.0,0.0,0.0,0.0,0.0,0.0,0.0,0.0,0.0,0.0,0.0,0.0,0.0,0.0,3.196,3.589,3.7757,3.8681,3.8681,3.5383,3.214,0.0,0.0,0.0,0.0,0.0,0.0,0.0,0.0,0.0,0.0,0.0,0.0,0.0,0.0,0.0,0.0,0.0,0.0,0.0,0.0,0.0,0.0,0.0,0.0,0.0,0.0,0.0,0.0,0.0,0.0,0.0,0.0,0.0,0.0,0.0,0.0,0.0,0.0,0.0,0.0,0.0,0.0,0.0,0.0,0.0,0.0,0.0,0.0,2.0019,0.0,0.0,0.0,0.0,0.0,0.0,0.0,0.0,0.0,0.0,0.0,0.0,0.0,0.0,0.0,0.0,0.0,0.0,0.0,0.0,0.0,0.0,0.0,0.0,0.0,0.0,0.0,0.0,0.0,0.0,0.0,0.0,0.0,0.0,0.0,0.0,0.0,0.0,0.0,0.0,0.0,0.0,0.0,0.0,0.0,0.0,0.0,0.0,0.0,0.0,0.0,0.0,0.0,0.0,0.0,0.0,0.0,0.0,0.0,3.2852,3.6457,3.8338,3.9276,3.9203,3.7918,3.4873,0.0,0.0,0.0,0.0,0.0,0.0,0.0,0.0,0.0,0.0,0.0,0.0,0.0,0.0,0.0,0.0,0.0,0.0,0.0,0.0,0.0,0.0,0.0,0.0,0.0,0.0,0.0,0.0,0.0,0.0,0.0,0.0,0.0,0.0,0.0,0.0,0.0,0.0,0.0,0.0,0.0,0.0,0.0,0.0,0.0,0.0,0.0,0.0,0.0,0.0,0.0,0.0,0.0,0.0,0.0,0.0,0.0,0.0,0.0,0.0,0.0,0.0,0.0,0.0,0.0,0.0,0.0,0.0,0.0,0.0,0.0,0.0,0.0,0.0,0.0,0.0,0.0,0.0,0.0,0.0,0.0,0.0,0.0,0.0,0.0,0.0,0.0,0.0,0.0,0.0,0.0,0.0,0.0,0.0,0.0,0.0,0.0,0.0,0.0,0.0,0.0,0.0,0.0,0.0,0.0,0.0,0.0,2.9686,3.3883,3.744,3.9133,3.9983,4.0084,4.0855,3.7956,3.104,0.0,0.0,0.0,0.0,0.0,0.0,0.0,0.0,0.0,0.0,0.0,0.0,0.0,0.0,0.0,0.0,0.0,0.0,0.0,0.0,0.0,0.0,0.0,0.0,0.0,0.0,0.0,0.0,0.0,0.0,0.0,0.0,0.0,0.0,0.0,0.0,0.0,0.0,1.7946,2.1732,0.0,0.0,0.0,0.0,0.0,0.0,0.0,0.0,2.1939,0.0,0.0,0.0,0.0,0.0,0.0,0.0,0.0,0.0,0.0,0.0,0.0,0.0,0.0,0.0,0.0,0.0,0.0,0.0,0.0,0.0,0.0,0.0,0.0,0.0,0.0,0.0,0.0,0.0,0.0,0.0,0.0,0.0,0.0,0.0,0.0,0.0,0.0,0.0,0.0,0.0,0.0,0.0,0.0,0.0,0.0,0.0,0.0,0.0,0.0,0.0,0.0,0.0,0.0,0.0,0.0,2.879,3.1082,3.4416,3.8968,3.9785,4.0406,4.0903,4.169,3.8998,3.2597,0.0,0.0,0.0,0.0,0.0,0.0,0.0,0.0,0.0,0.0,0.0,0.0,0.0,0.0,0.0,0.0,0.0,0.0,0.0,0.0,0.0,0.0,0.0,0.0,0.0,0.0,0.0,0.0,0.0,0.0,0.0,0.0,0.0,0.0,0.0,0.0,0.0,0.0,0.0,2.6809,2.8163,0.0,0.0,0.0,0.0,0.0,0.0,0.0,0.0,2.2996,0.0,0.0,0.0,0.0,0.0,0.0,0.0,0.0,0.0,0.0,0.0,0.0,0.0,0.0,0.0,0.0,0.0,0.0,0.0,0.0,0.0,0.0,0.0,0.0,0.0,0.0,0.0,0.0,0.0,0.0,0.0,0.0,0.0,0.0,0.0,0.0,0.0,0.0,0.0,0.0,0.0,0.0,0.0,0.0,0.0,0.0,0.0,0.0,0.0,0.0,0.0,0.0,0.0,0.0,0.0,2.8898,3.2593,3.6255,3.9908,4.0561,4.1098,4.1711,4.2506,3.99,0.0,0.0,0.0,0.0,0.0,0.0,0.0,0.0,0.0,0.0,0.0,0.0,0.0,0.0,0.0,0.0,0.0,0.0,0.0,0.0,0.0,0.0,0.0,0.0,0.0,0.0,0.0,0.0,0.0,0.0,0.0,0.0,0.0,0.0,0.0,0.0,0.0,0.0,0.0,0.0,2.8256,2.9551,3.1065,0.0,0.0,0.0,0.0,0.0,0.0,2.477,2.3789,0.0,0.0,0.0,0.0,0.0,0.0,0.0,0.0,0.0,0.0,0.0,0.0,0.0,0.0,0.0,0.0,0.0,0.0,0.0,0.0,0.0,0.0,0.0,0.0,0.0,0.0,0.0,0.0,0.0,0.0,0.0,0.0,0.0,0.0,0.0,0.0,0.0,0.0,0.0,0.0,0.0,0.0,0.0,0.0,0.0,0.0,0.0,0.0,0.0,0.0,0.0,0.0,0.0,0.0,0.0,2.8673,3.3873,3.7991,4.0732,4.1298,4.1758,4.238,4.3087,4.0459,0.0,0.0,0.0,0.0,0.0,0.0,0.0,0.0,0.0,0.0,0.0,0.0,0.0,0.0,0.0,0.0,0.0,0.0,0.0,0.0,0.0,0.0,0.0,0.0,0.0,0.0,0.0,0.0,0.0,0.0,0.0,0.0,0.0,0.0,0.0,0.0,0.0,0.0,0.0,0.0,0.0,3.1181,3.3451,3.1434,0.0,0.0,0.0,0.0,2.8526,2.7563,0.0,0.0,0.0,0.0,0.0,0.0,0.0,0.0,0.0,0.0,0.0,0.0,0.0,0.0,0.0,0.0,0.0,0.0,0.0,0.0,0.0,0.0,0.0,0.0,0.0,0.0,0.0,0.0,0.0,0.0,0.0,0.0,0.0,0.0,0.0,0.0,0.0,0.0,0.0,0.0,0.0,0.0,0.0,0.0,0.0,0.0,0.0,0.0,0.0,0.0,0.0,0.0,0.0,0.0,0.0,0.0,2.9815,3.4376,3.8458,4.1707,4.1842,4.2058,4.2662,4.3213,4.0459,0.0,0.0,0.0,0.0,0.0,0.0,0.0,0.0,0.0,0.0,0.0,0.0,0.0,0.0,0.0,0.0,0.0,0.0,0.0,0.0,0.0,0.0,0.0,0.0,0.0,0.0,0.0,0.0,0.0,0.0,0.0,0.0,0.0,0.0,0.0,0.0,0.0,0.0,0.0,0.0,0.0,3.4936,3.5233,3.3352,3.2514,0.0,0.0,3.3021,3.5045,3.4747,0.0,0.0,0.0,0.0,0.0,0.0,0.0,0.0,0.0,0.0,0.0,0.0,0.0,0.0,0.0,0.0,0.0,0.0,0.0,0.0,0.0,0.0,0.0,0.0,0.0,0.0,0.0,0.0,0.0,0.0,0.0,0.0,0.0,0.0,0.0,0.0,0.0,0.0,0.0,0.0,0.0,0.0,0.0,0.0,0.0,0.0,0.0,0.0,0.0,0.0,0.0,0.0,0.0,0.0,0.0,2.7813,3.0631,3.5906,3.9788,4.1981,4.1918,4.2072,4.2684,4.3223,4.0238,0.0,0.0,0.0,0.0,0.0,0.0,0.0,0.0,0.0,0.0,0.0,0.0,0.0,0.0,0.0,0.0,0.0,0.0,0.0,0.0,0.0,0.0,0.0,0.0,0.0,0.0,0.0,0.0,0.0,0.0,0.0,0.0,0.0,0.0,0.0,0.0,0.0,0.0,0.0,0.0,0.0,0.0,3.7305,3.5916,0.0,0.0,0.0,3.5251,3.7418,0.0,0.0,0.0,0.0,0.0,0.0,0.0,0.0,0.0,0.0,0.0,0.0,0.0,0.0,0.0,0.0,0.0,0.0,0.0,0.0,0.0,0.0,0.0,0.0,0.0,0.0,0.0,0.0,0.0,0.0,0.0,0.0,0.0,0.0,0.0,0.0,0.0,0.0,0.0,0.0,0.0,0.0,0.0,0.0,0.0,0.0,0.0,0.0,0.0,0.0,0.0,0.0,0.0,0.0,0.0,0.0,0.0,3.1076,3.7534,4.1413,4.2363,4.2375,4.2678,4.3271,4.3807,0.0,0.0,0.0,0.0,0.0,0.0,0.0,0.0,0.0,0.0,0.0,0.0,0.0,0.0,0.0,0.0,0.0,0.0,0.0,0.0,0.0,0.0,0.0,0.0,0.0,0.0,0.0,1.3899,0.0,0.0,0.0,0.0,0.0,0.0,0.0,0.0,0.0,0.0,0.0,0.0,0.0,0.0,3.7238,3.9708,3.9344,3.9663,0.0,0.0,3.8886,4.0601,4.0372,3.8849,0.0,0.0,0.0,0.0,0.0,0.0,0.0,0.0,0.0,0.0,0.0,0.0,0.0,0.0,0.0,0.0,0.0,0.0,0.0,0.0,0.0,0.0,0.0,0.0,0.0,0.0,0.0,0.0,0.0,0.0,0.0,0.0,0.0,0.0,0.0,0.0,0.0,0.0,0.0,0.0,0.0,0.0,0.0,0.0,0.0,0.0,0.0,0.0,0.0,0.0,0.0,0.0,0.0,0.0,3.0369,3.125,3.9041,4.3174,4.3244,4.3698,4.4267,4.4899,4.5459,4.2167,0.0,0.0,0.0,0.0,0.0,0.0,0.0,0.0,0.0,0.0,0.0,0.0,0.0,0.0,0.0,0.0,0.0,0.0,0.0,0.0,0.0,0.0,0.0,0.0,0.0,0.0,0.0,0.0,0.0,0.0,0.0,0.0,0.0,0.0,0.0,0.0,0.0,0.0,0.0,0.0,0.0,3.9704,4.2548,4.4054,4.588,0.0,4.7221,4.6008,4.6689,4.6792,4.4189,3.6476,0.0,0.0,0.0,0.0,0.0,0.0,0.0,0.0,0.0,0.0,0.0,0.0,0.0,0.0,0.0,0.0,0.0,0.0,0.0,0.0,0.0,0.0,0.0,0.0,0.0,0.0,0.0,0.0,0.0,0.0,0.0,0.0,0.0,0.0,0.0,0.0,0.0,0.0,0.0,0.0,0.0,0.0,0.0,0.0,0.0,0.0,0.0,0.0,0.0,0.0,0.0,0.0,0.0,3.0478,3.1065,3.9188,4.3379,4.3313,4.3804,4.4445,4.509,4.525,4.282,0.0,0.0,0.0,0.0,0.0,0.0,0.0,0.0,0.0,0.0,0.0,0.0,0.0,0.0,0.0,0.0,0.0,0.0,0.0,0.0,0.0,0.0,0.0,0.0,0.0,0.0,0.0,0.0,2.2286,2.2306,1.9467,0.0,0.0,0.0,0.0,0.0,0.0,0.0,0.0,0.0,0.0,4.2448,4.4954,4.5745,0.0,0.0,4.7278,4.6396,4.795,4.6259,4.3639,4.0501,3.6706,0.0,0.0,0.0,0.0,0.0,0.0,0.0,0.0,0.0,0.0,0.0,0.0,0.0,0.0,0.0,0.0,0.0,0.0,0.0,0.0,0.0,0.0,0.0,0.0,0.0,0.0,0.0,0.0,0.0,0.0,0.0,0.0,0.0,0.0,0.0,0.0,0.0,0.0,0.0,0.0,0.0,0.0,0.0,0.0,0.0,0.0,0.0,0.0,0.0,0.0,0.0,0.0,3.0849,3.1549,4.0007,4.4207,4.3895,4.4691,4.5308,4.5756,4.5735,4.3678,0.0,0.0,0.0,0.0,0.0,0.0,0.0,0.0,0.0,0.0,0.0,0.0,0.0,0.0,0.0,0.0,0.0,0.0,0.0,0.0,0.0,0.0,0.0,0.0,0.0,0.0,0.0,0.0,2.3817,2.3335,2.0954,0.0,0.0,0.0,0.0,0.0,0.0,0.0,0.0,0.0,0.0,4.5366,4.7602,4.7864,4.8305,4.9589,4.7815,4.6793,4.8054,4.6188,4.4117,4.2569,0.0,0.0,0.0,0.0,0.0,0.0,0.0,0.0,0.0,0.0,0.0,0.0,0.0,0.0,0.0,0.0,0.0,0.0,0.0,0.0,0.0,0.0,0.0,0.0,0.0,0.0,0.0,1.3949,0.0,0.0,1.4476,0.0,0.0,0.0,0.0,0.0,0.0,0.0,0.0,0.0,0.0,0.0,0.0,0.0,0.0,0.0,0.0,0.0,0.0,0.0,0.0,0.0,0.0,3.1792,3.2896,4.1816,4.6101,4.5351,4.6624,4.7244,4.7302,4.7313,4.4993,3.9967,0.0,0.0,0.0,0.0,0.0,0.0,0.0,0.0,0.0,0.0,0.0,0.0,0.0,0.0,0.0,0.0,0.0,0.0,0.0,0.0,0.0,0.0,0.0,0.0,0.0,0.0,1.8726,2.0184,2.1624,0.0,0.0,0.0,0.0,0.0,0.0,0.0,0.0,0.0,4.0024,4.4768,4.8409,5.0557,5.0893,5.1121,5.1794,5.001,4.8268,4.7407,4.7819,4.6654,0.0,0.0,0.0,0.0,0.0,0.0,0.0,0.0,0.0,0.0,0.0,0.0,0.0,0.0,0.0,0.0,0.0,0.0,0.0,0.0,0.0,0.0,0.0,0.0,0.0,0.0,0.0,1.9698,1.8269,0.0,0.0,0.0,0.0,0.0,0.0,0.0,0.0,0.0,0.0,0.0,3.0808,3.232,0.0,0.0,0.0,0.0,0.0,0.0,0.0,0.0,0.0,0.0,0.0,0.0,3.3214,3.6604,4.3169,4.6698,4.6897,4.6765,4.6751,4.6739,4.6353,4.3742,3.8755,0.0,0.0,0.0,0.0,0.0,0.0,0.0,0.0,0.0,0.0,0.0,0.0,0.0,0.0,0.0,0.0,0.0,0.0,0.0,0.0,0.0,0.0,0.0,0.0,0.0,2.1744,0.0,0.0,0.0,0.0,0.0,0.0,0.0,0.0,0.0,0.0,3.3607,3.9127,4.2902,4.7142,5.0541,5.2316,5.294,5.3192,0.0,0.0,0.0,0.0,0.0,0.0,0.0,0.0,0.0,0.0,0.0,0.0,0.0,0.0,4.0518,3.4175,3.2635,3.2297,3.2297,0.0,0.0,0.0,0.0,0.0,0.0,0.0,0.0,0.0,0.0,0.0,0.0,0.0,0.0,2.4624,2.3338,2.3975,0.0,0.0,0.0,0.0,0.0,0.0,0.0,0.0,3.4206,3.6084,3.6729,3.822,3.7993,3.6248,3.52,3.2021,0.0,0.0,0.0,0.0,0.0,0.0,0.0,0.0,3.5296,4.0066,4.5367,4.7975,4.77,4.7346,4.6838,4.6112,4.5494,4.3626,4.0337,3.9229,3.7302,0.0,0.0,0.0,0.0,0.0,0.0,0.0,0.0,0.0,0.0,0.0,0.0,0.0,0.0,0.0,0.0,0.0,0.0,0.0,0.0,0.0,0.0,0.0,2.4967,0.0,0.0,0.0,0.0,0.0,0.0,0.0,0.0,0.0,3.1877,3.8306,4.3886,4.6109,4.9742,5.2581,5.3568,0.0,0.0,0.0,0.0,0.0,0.0,0.0,4.7222,4.7959,4.5479,4.3312,4.3041,4.5018,4.6336,4.5433,0.0,0.0,4.0072,3.7976,3.75,3.8261,3.8608,3.926,4.0781,4.2859,4.473,0.0,0.0,0.0,0.0,2.4449,0.0,0.0,0.0,2.8251,2.8591,0.0,2.9179,0.0,0.0,0.0,0.0,2.6887,3.1422,0.0,0.0,4.195,4.4269,4.4919,4.4364,4.4188,4.4225,4.3477,4.136,3.7788,3.2764,0.0,0.0,0.0,0.0,0.0,0.0,3.8064,4.3507,4.839,4.9912,4.7948,4.8325,4.7618,4.5645,4.5022,4.4696,4.4547,4.1847,3.9601,3.7978,3.2452,0.0,0.0,0.0,0.0,0.0,0.0,0.0,0.0,0.0,0.0,0.0,0.0,0.0,0.0,0.0,0.0,0.0,0.0,0.0,0.0,2.6874,0.0,0.0,0.0,0.0,0.0,0.0,0.0,0.0,0.0,4.0239,3.7577,4.2847,4.7651,4.9757,0.0,0.0,0.0,0.0,5.2944,5.4298,5.2655,5.1252,5.104,5.1642,5.1847,5.1197,0.0,0.0,4.7724,5.0544,5.1897,4.7853,5.0108,5.1799,4.9443,4.657,4.5396,4.7212,4.7096,4.7506,4.9096,5.1528,5.4135,3.4621,0.0,0.0,0.0,0.0,2.9919,3.1806,3.5524,3.5569,3.5046,3.4142,3.4784,0.0,0.0,0.0,0.0,0.0,0.0,3.8114,4.1184,4.2307,4.3779,4.5634,4.511,4.5141,4.5581,4.5041,4.4777,4.4811,4.3874,3.7175,2.5413,0.0,0.0,0.0,0.0,4.3629,4.726,5.0292,5.129,5.0216,4.9248,4.802,4.6453,4.6273,4.6157,4.6157,4.4823,4.2916,4.0358,3.7144,0.0,0.0,0.0,0.0,0.0,0.0,0.0,0.0,0.0,0.0,0.0,0.0,0.0,0.0,0.0,0.0,0.0,0.0,0.0,2.5398,2.9888,3.1769,0.0,0.0,0.0,0.0,0.0,0.0,0.0,0.0,0.0,4.4811,4.8182,5.0922,0.0,0.0,5.5118,5.4652,5.5076,5.5663,5.608,5.6038,0.0,5.4388,5.3939,5.4037,5.4962,5.5335,5.5338,5.485,5.4868,5.474,5.4037,5.4466,5.4748,5.4603,5.225,5.0594,5.106,5.1412,5.2197,5.3718,5.5329,5.6747,4.1111,3.6934,3.456,3.4811,3.6674,3.5822,3.7607,4.1245,4.1237,4.08,4.012,4.0606,3.8763,3.5284,3.4622,0.0,0.0,0.0,4.2588,4.5663,4.5654,4.6434,4.7773,4.7511,4.7569,4.799,4.7693,4.8078,4.9031,4.9806,4.4531,3.3761,0.0,3.86,3.828,4.3263,4.7624,5.1046,5.2746,5.3057,5.208,4.9986,4.8489,4.771,4.7124,4.6921,4.7225,4.6549,4.5297,4.3504,4.1001,3.843,0.0,0.0,0.0,0.0,0.0,0.0,0.0,0.0,0.0,0.0,0.0,2.2172,1.939,0.0,0.0,0.0,2.8132,2.9918,3.229,3.5318,0.0,0.0,0.0,0.0,0.0,0.0,0.0,4.23,4.6683,4.985,5.092,5.3125,5.4371,5.376,5.5647,5.6916,5.6508,0.0,5.7886,5.8207,5.8621,5.8621,5.7666,5.7079,5.7116,5.8058,5.8217,5.8242,5.8364,5.7886,5.7624,5.7765,5.7728,5.7777,5.825,5.7333,5.6237,5.5346,5.5335,5.5962,5.7405,5.8567,5.9634,4.6104,4.5673,4.091,4.003,4.1702,4.1391,4.2699,4.5124,4.5134,4.5479,4.5993,4.6067,4.473,4.2332,4.087,0.0,4.5214,4.5957,4.7865,5.0802,5.0802,5.0802,5.0802,5.0839,5.0912,5.0902,5.1086,5.1215,5.1323,5.2083,5.0466,4.6688,4.6652,4.7098,4.7888,4.8366,5.0606,5.4603,5.5333,5.4932,5.3387,5.0766,4.9298,4.9151,4.7909,4.7537,4.809,4.7394,4.6955,4.6853,4.4228,4.1711,3.9592,0.0,0.0,0.0,0.0,0.0,0.0,0.0,0.0,0.0,0.0,0.0,0.0,0.0,0.0,3.2669,3.7719,0.0,4.2049,4.1745,0.0,0.0,0.0,3.6828,3.8756,4.1867,4.4776,4.7139,0.0,0.0,5.5822,5.7391,5.7839,5.6438,5.8066,5.9355,5.9283,5.9286,5.9613,6.0164,6.0334,6.037,6.0089,6.015,6.0272,6.0481,6.0603,6.0309,5.9783,6.0187,6.0297,5.9821,6.0248,6.0799,6.0774,6.185,6.2316,6.0017,5.9247,5.9214,6.0542,6.185,6.2816,4.7709,4.7636,4.6387,4.5489,4.4803,4.4302,4.4723,4.5681,4.5727,4.6112,4.6865,4.7452,4.8038,4.8602,4.8226,4.8522,4.9361,4.9554,5.0068,5.0802,5.0802,5.0802,5.0839,5.1426,5.173,5.1756,5.2364,5.2995,5.3628,5.4407,5.4593,5.4223,5.4782,5.2688,4.8259,5.2408,5.4909,5.5433,5.6197,5.5568,5.354,5.2799,5.1855,5.0726,5.0937,5.0864,5.0421,4.9187,4.8477,4.8443,4.6718,4.5244,4.4099,3.7483,0.0,0.0,0.0,0.0,0.0,0.0,0.0,0.0,0.0,3.0209,2.6463,0.0,3.2114,0.0,4.3321,4.4573,4.0988,4.2523,0.0,0.0,4.1339,4.2036,4.7413,4.7819,4.8969,5.235,5.5274,5.7148,5.75,5.9416,6.0619,6.0256,6.0174,5.9896,5.9347,5.9749,6.0164,6.042,6.0517,6.0407,6.0554,6.0933,6.1557,6.2132,6.2242,6.2169,6.1985,6.2658,6.3135,6.3025,6.3613,6.409,6.404,6.4481,6.4517,6.3967,6.3705,6.369,6.4101,6.4444,6.4738,4.9407,4.9397,4.9397,4.8884,4.803,4.6964,4.6939,4.7535,4.7545,4.8012,4.8773,4.9214,5.0012,5.1035,5.0875,5.1089,5.1599,5.1608,5.1793,5.2116,5.2153,5.2338,5.2698,5.2946,5.3272,5.3639,5.4425,5.5012,5.55,5.6271,5.6907,5.7336,5.7776,5.6131,5.2692,5.568,5.6944,5.6237,5.6988,5.6608,5.508,5.4684,5.3468,5.1367,5.2002,5.1859,5.0758,5.0237,4.9527,4.8553,4.7413,4.6447,4.5655,4.136,3.9128,0.0,0.0,0.0,0.0,0.0,0.0,0.0,0.0,0.0,0.0,0.0,3.6851,3.9986,4.55,4.7293,4.3423,4.5771,4.7665,4.7985,4.6887,4.7902,5.2266,5.1995,5.2401,5.4803,5.6814,5.8323,5.9087,6.0907,6.2438,6.3122,6.2879,6.2291,6.1582,6.1777,6.2181,6.2499,6.2572,6.2572,6.2572,6.2939,6.3392,6.3783,6.393,6.3894,6.393,6.431,6.464,6.4677,6.5007,6.5288,6.5325,6.5618,6.5925,6.6329,6.6646,6.6609,6.5985,6.6389,6.6903,5.0802,5.0802,5.0835,5.0865,5.0765,4.936,4.9138,4.9757,4.9747,5.0228,5.1049,5.1022,5.1323,5.176,5.1444,5.1852,5.2823,5.2832,5.3233,5.3878,5.3814,5.4187,5.4838,5.4654,5.4913,5.5622,5.6528,5.6957,5.6957,5.7666,5.7997,5.7997,5.7997,5.7923,5.785,5.796,5.7666,5.6957,5.7451,5.7388,5.6781,5.612,5.4499,5.1896,5.2436,5.2149,5.0783,5.1132,5.0491,4.8709,4.7796,4.7081,4.6438,4.5862,4.4587,0.0,4.186,0.0,0.0,0.0,0.0,0.0,0.0,0.0,0.0,4.2536,4.2706,4.0202,4.6225,4.9424,4.753,4.9848,5.1742,5.2367,5.2638,5.3315,5.4668,5.4888,5.5209,5.6037,5.7482,5.9063,6.0594,6.2133,6.3721,6.4891,6.5068,6.4824,6.4494,6.42,6.4347,6.5215,6.5325,6.4884,6.4995,6.5141,6.5141,6.5251,6.5178,6.5325,6.5215,6.5472,6.5618,6.5668,6.5912,6.6059,6.5912,6.6476,6.7063,6.7884,6.8495,6.8495,6.7504,6.8017,6.9009,5.0802,5.0842,5.1167,5.1295,5.1294,5.1278,5.0999,5.0582,5.0582,5.1207,5.2224,5.2261,5.2867,5.3865,5.3829,5.3912,5.4137,5.4145,5.4212,5.4346,5.3968,5.3861,5.4093,5.4949,5.5438,5.5695,5.709,5.7776,5.7776,5.7935,5.7997,5.7997,5.7997,5.7666,5.7079,0.0,0.0,0.0,5.6685,5.6063,5.5938,5.5794,5.5108,5.3971,5.4649,0.0,5.3771,5.2702,5.2195,5.2379,5.1114,0.0,0.0,0.0,0.0,0.0,0.0,0.0,0.0,0.0,0.0,0.0,4.4911,4.5046,4.4025,4.8409,4.9695,4.5887,4.8766,5.0829,5.0423,5.1979,5.3112,5.3281,5.4346,5.5428,5.6292,5.6411,5.69,5.8238,5.9871,6.1247,6.2206,6.3754,6.4948,6.5299,6.5325,6.5521,6.5962,6.5448,6.5154,6.5288,6.5435,6.5362,6.5325,6.5362,6.5472,6.5325,6.5325,6.5362,6.5472,6.6439,6.7173,6.7223,6.8311,6.9082,6.9082,6.8825,6.8605,6.9486,6.9743,6.9779,6.9486,6.9633,6.9853,5.2641,5.2639,5.283,5.2932,0.0,5.3139,5.2977,5.2603,5.2156,5.2559,5.3524,5.3524,5.3997,5.4775,5.4579,5.464,5.479,5.479,5.4678,5.4476,5.4246,5.4237,5.4401,5.5217,5.5805,5.6235,5.7409,5.7997,5.7997,5.7997,5.7997,5.7997,5.7997,5.7776,5.7398,5.7776,5.7997,5.7997,5.7241,5.6831,5.6818,5.6831,5.5921,5.4151,5.5491,0.0,0.0,0.0,0.0,0.0,0.0,0.0,0.0,4.802,0.0,4.7733,4.6075,4.5365,4.6075,4.6143,4.7259,4.9864,5.1438,5.1522,4.9677,5.235,5.3112,5.0913,5.2029,5.3044,5.3399,5.4143,5.4718,5.5108,5.5818,5.6646,5.7681,5.8315,5.9009,6.0129,6.1712,6.308,6.3847,6.5051,6.6033,6.6402,6.6476,6.6586,6.693,6.6402,6.5999,6.6402,6.6476,6.6476,6.6476,6.6476,6.6439,6.6476,6.6476,6.6476,6.6476,6.7136,6.77,6.7774,6.8715,6.9486,6.9486,6.9155,6.9252,7.033,7.0367,7.044,7.1027,7.1284,7.1284,5.4492,5.4492,5.4571,5.4632,5.4602,5.4671,5.4701,5.4655,5.38,0.0,0.0,5.4602,5.4819,5.518,5.4848,5.4883,5.5192,5.514,5.4912,5.4586,5.4436,5.4611,5.5034,5.5402,5.6014,5.6811,5.7629,5.7997,5.7997,5.7997,5.7997,5.7997,5.7997,5.7997,5.7997,5.7997,5.7997,5.7997,5.785,5.7776,5.7776,5.7776,5.6556,5.3953,5.5694,5.5459,5.293,5.3843,5.3341,5.1046,5.0192,4.9841,4.998,4.9976,5.1116,5.345,5.3822,5.416,5.4735,5.4803,5.4905,5.5141,5.6528,5.6664,5.4938,5.5141,5.526,5.5006,5.4972,5.5245,5.5841,5.6024,5.6518,5.7514,5.7767,5.8447,5.9909,6.0756,6.1585,6.2315,6.3614,6.4715,6.5524,6.6248,6.693,6.7517,6.7554,6.77,6.7627,6.7113,6.6916,6.7444,6.748,6.7627,6.7664,6.759,6.77,6.7554,6.759,6.77,6.77,6.7811,6.7921,6.7994,6.8568,6.9082,6.9105,6.9045,6.9486,7.0977,7.066,7.0587,7.2055,7.2496,7.2386,5.4492,5.4554,5.4862,5.5033,5.506,5.5393,5.5543,5.5464,5.4645,5.4572,5.4995,5.4995,5.5231,5.5605,5.5566,5.5566,5.5594,5.5244,5.508,5.496,5.4226,5.4298,5.4987,5.5402,5.6025,5.6811,5.7629,5.7997,5.8008,5.7997,5.7997,5.7997,5.7997,5.7997,5.7997,5.7997,5.7997,5.796,5.7336,5.6957,5.6969,5.6957,5.6498,5.547,5.5736,5.5418,5.437,5.3903,5.3757,5.3937,5.3249,5.3153,5.3786,5.3763,5.4008,5.4431,5.5023,5.5428,5.553,5.553,5.6071,5.7392,5.8795,5.849,5.5868,5.7288,5.7848,5.6664,5.6599,5.6541,5.6739,5.7345,5.8564,6.0604,6.1498,6.2492,6.3928,6.4317,6.4699,6.5426,6.5846,6.6385,6.7053,6.7384,6.7554,6.7664,6.77,6.77,6.7664,6.7627,6.759,6.7664,6.77,6.77,6.77,6.77,6.77,6.77,6.77,6.77,6.77,6.8128,6.8531,6.8678,6.9229,6.9743,6.9779,6.9339,6.9706,7.0903,7.0683,7.0734,7.2165,7.2496,7.2261,5.5153,5.5173,5.5363,5.5423,5.5435,5.561,5.5708,5.5648,5.5294,5.5237,5.5417,5.5423,5.5504,5.5648,5.5458,5.5381,5.5369,5.4947,5.4648,5.4404,5.4435,5.475,5.5396,5.6393,5.7299,5.8132,5.8902,5.9318,5.9318,5.9281,5.9281,5.9281,5.9281,5.9318,5.9318,5.9318,5.9318,5.9281,5.807,5.7446,5.7446,5.7446,5.7271,5.6951,5.696,5.6606,5.5886,5.5918,5.5938,5.5864,5.5532,5.5519,5.5787,5.545,5.5209,5.5226,5.5928,5.6507,5.6935,5.8163,5.9364,6.0493,6.1536,6.1623,6.0268,6.0254,6.0056,5.944,5.9754,6.0068,6.0091,6.0395,6.121,6.2781,6.3233,6.4081,6.5504,6.6292,6.6836,6.755,6.8096,6.8385,6.8334,6.8325,6.8128,6.7811,6.77,6.77,6.77,6.77,6.77,6.77,6.77,6.77,6.77,6.77,6.77,6.77,6.77,6.77,6.77,6.8068,6.8201,6.8311,6.8898,6.9376,6.9486,6.9559,7.0073,7.0866,7.105,7.1321,7.2165,7.2202,7.1857,5.5708,5.5708,5.5708,5.5708,5.5708,5.5708,5.5824,5.5978,5.5972,5.6093,5.6247,5.5901,5.5708,5.5676,5.5454,5.5374,5.5351,5.5054,5.4689,5.4429,5.5067,5.5648,5.6242,5.7629,5.8682,5.9453,6.0126,6.0407,6.0407,6.0407,6.0407,6.0407,6.0407,6.0407,6.0407,6.0407,6.0407,6.0297,5.9171,5.8547,5.8547,5.8547,5.844,5.831,5.8299,5.7971,5.727,5.7819,5.7743,5.6979,5.7094,5.7115,5.6907,5.6674,5.6594,5.6799,5.7519,5.829,5.9109,6.0951,6.2372,6.299,6.3931,6.443,6.4362,6.368,6.2784,6.228,6.273,6.318,6.2998,6.3176,6.3733,6.4669,6.5161,6.6086,6.7263,6.8244,6.8971,6.9603,7.0062,7.0096,6.9596,6.9105,6.8568,6.7884,6.77,6.77,6.77,6.77,6.77,6.77,6.77,6.77,6.77,6.77,6.77,6.77,6.77,6.77,6.7737,6.7811,6.7994,6.8178,6.8715,6.9229,6.9265,6.9633,7.033,7.1087,7.1233,7.1527,7.2261,7.2092,7.1674,5.5708,5.5708,5.5708,5.5708,5.5747,5.5708,5.617,5.6824,5.6863,5.7319,5.778,5.6401,5.5742,5.5742,5.6034,5.6165,5.6133,5.6099,5.5984,5.5951,5.6409,5.7051,5.7776,5.8682,5.9526,6.0224,6.0444,6.0566,6.0554,6.0481,6.0444,6.0407,6.0407,6.0444,6.0444,6.0444,6.0407,6.0407,6.0272,6.0199,6.0187,6.0199,5.9859,5.92,5.9164,5.8817,5.8139,5.8144,5.7826,5.7039,5.7716,5.7771,5.7219,5.8219,5.9294,5.9999,6.0713,6.1518,6.2309,6.3174,6.3802,6.3915,6.5237,6.6053,6.6105,6.7247,6.6809,6.466,6.4463,6.4697,6.4033,6.4505,6.553,6.698,6.8273,6.9813,7.0427,7.1581,7.2101,7.2138,7.136,7.116,7.072,6.9692,6.8605,6.7811,6.77,6.77,6.77,6.77,6.77,6.77,6.77,6.7674,6.7647,6.7687,6.7643,6.7633,6.771,6.7757,6.794,6.8421,6.8788,6.8862,6.9339,6.9816,6.9889,7.011,7.0403,7.1087,7.138,7.1564,7.2261,7.2386,7.2188,5.5708,5.5708,5.5708,5.6016,5.6445,5.6478,5.6978,5.7742,5.7742,5.7973,5.8198,5.755,5.7063,5.6811,5.6715,5.6514,5.6235,5.5949,5.5834,5.5961,5.6948,5.7923,5.8756,6.0052,6.1031,6.1765,6.1802,6.1838,6.1802,6.1802,6.1802,6.1802,6.1802,6.1802,6.1838,6.1802,6.1838,6.1802,6.1802,6.1802,6.1692,6.0896,6.0262,6.0003,5.9966,5.9816,5.9595,5.9931,6.0052,5.9752,6.0022,6.026,6.0416,6.057,6.1025,6.1816,6.2566,6.3623,6.4903,6.5714,6.6366,6.6822,6.7888,6.8488,6.8525,6.9201,6.8757,6.7309,6.7163,6.7034,6.6302,6.6431,6.7113,6.8211,6.8986,6.9674,7.0494,7.0881,7.1064,7.1064,7.1233,7.1087,7.0587,6.9633,6.8605,6.7884,6.77,6.77,6.77,6.77,6.77,6.77,6.77,6.7447,6.7132,6.6924,6.7171,6.7499,6.763,6.7774,6.894,6.9302,6.9596,6.9596,7.0,7.0183,7.0073,7.055,7.0977,7.138,7.1784,7.2114,7.2422,7.2496,7.2312,5.5862,5.6093,5.628,5.6786,5.7363,5.7363,5.7819,5.8588,5.8627,5.8742,5.8973,5.8973,5.8718,5.8237,5.757,5.7024,5.6705,5.6377,5.6456,5.6886,5.8113,5.9098,5.9967,6.1263,6.2254,6.2719,6.2756,6.2793,6.2793,6.2793,6.2793,6.2793,6.2793,6.2793,6.2793,6.2793,6.2793,6.2793,6.2793,6.2793,6.2646,6.1655,6.1068,6.1068,6.1043,6.1068,6.108,6.163,6.1935,6.1929,6.2139,6.2549,6.3062,6.2801,6.2976,6.3789,6.4802,6.5873,6.7096,6.7921,6.8618,6.9192,6.9963,7.033,7.0183,7.0293,6.9926,6.8931,6.8898,6.849,6.7847,6.7921,6.8201,6.8568,6.8898,6.9449,6.9743,6.9926,7.0146,7.0146,7.0624,7.0646,6.9889,6.9229,6.8605,6.7884,6.77,6.7847,6.7981,6.8054,6.8091,6.8311,6.8398,6.8046,6.7281,6.7295,6.7469,6.7992,6.84,6.8859,6.9953,7.0155,7.0403,7.0426,7.0587,7.0807,7.1064,7.1454,7.16,7.1762,7.2092,7.2496,7.2496,7.2532,7.2532,5.617,5.7016,5.7819,5.8127,5.8242,5.8242,5.8704,5.9473,5.9435,5.9896,6.0512,6.0594,6.0374,5.9822,5.8616,5.8035,5.7982,5.7894,5.8419,5.942,5.999,6.0688,6.152,6.2352,6.2756,6.2793,6.2793,6.2793,6.2793,6.2793,6.2793,6.2793,6.2793,6.2793,6.2793,6.2793,6.2793,6.2793,6.2866,6.2829,6.2866,6.2756,6.2683,6.2719,6.2646,6.2572,6.2683,6.2719,6.2782,6.2749,6.3517,6.3958,6.4041,6.469,6.5447,6.6293,6.7726,6.861,6.8811,6.9449,6.9963,7.0146,7.0807,7.094,7.044,7.0793,7.0513,6.9068,6.8935,6.8568,6.7921,6.8201,6.8385,6.7994,6.9096,6.9486,6.8995,6.9486,7.0036,7.0,7.0036,6.9853,6.9105,6.8921,6.8605,6.8054,6.7737,6.8031,6.8678,6.8862,6.9119,6.9596,6.9779,6.9692,6.8976,6.8384,6.8848,6.9317,6.9449,6.9969,7.0311,7.0624,7.0977,7.1344,7.1725,7.2018,7.2275,7.2386,7.2386,7.2459,7.2496,7.2679,7.3083,7.2679,7.2789,5.755,5.7857,5.8165,5.8588,5.9044,5.905,5.955,6.0319,6.0319,6.0473,6.0742,6.0781,6.0527,6.0065,5.9612,5.9233,5.8948,5.8897,5.9263,5.9959,6.0554,6.1126,6.1655,6.2426,6.2793,6.2793,6.2793,6.2793,6.2793,6.2793,6.2793,6.2793,6.2793,6.2793,6.2793,6.2793,6.2793,6.2866,6.3319,6.3649,6.3686,6.4114,6.4407,6.4334,6.3343,6.3062,6.3613,6.3613,6.3865,6.4383,6.4731,6.5087,6.5619,6.6379,6.721,6.7981,6.8591,6.9119,6.9669,7.0403,7.0866,7.0903,7.16,7.1945,7.1651,7.1417,7.083,6.9853,6.9155,6.8568,6.7944,6.7994,6.8031,6.7847,6.8178,6.8531,6.8274,6.8398,6.8582,6.8655,6.8972,6.9192,6.9142,6.9339,6.9339,6.8715,6.8898,6.9265,6.9559,6.9669,6.9816,7.0036,7.011,7.0183,7.0536,6.9369,6.9082,6.9627,7.0057,7.0734,7.1202,7.1572,7.1945,7.2041,7.2532,7.2679,7.2753,7.2826,7.2899,7.323,7.3266,7.3487,7.3964,7.3656,7.3802,5.8704,5.8742,5.9011,5.9435,5.9896,5.9935,6.0242,6.0781,6.0781,6.0781,6.0781,6.0781,6.0622,6.0351,6.0324,6.0359,6.0181,5.9694,5.9736,6.0313,6.0588,6.1111,6.1843,6.2488,6.2939,6.3246,6.349,6.36,6.36,6.36,6.36,6.36,6.36,6.36,6.36,6.36,6.36,6.3747,6.42,6.4457,6.4567,6.5007,6.5325,6.5141,6.4187,6.3857,6.4457,6.4457,6.4861,6.5545,6.5705,6.6035,6.6843,6.765,6.8311,6.8862,6.9398,6.9876,7.0477,7.1233,7.1674,7.1711,7.2165,7.2408,7.2114,7.16,7.083,6.9876,6.9265,6.8568,6.7921,6.77,6.77,6.77,6.77,6.77,6.77,6.77,6.7884,6.8214,6.8641,6.8972,6.9288,6.9743,6.9743,6.9339,6.9779,7.011,7.0403,7.0513,7.0624,7.0807,7.0991,7.1211,7.1431,7.0851,7.0478,7.0937,7.1023,7.1654,7.2014,7.2409,7.2716,7.2863,7.2973,7.3046,7.3156,7.3215,7.356,7.3964,7.4111,7.4206,7.4536,7.4757,7.4757,5.9511,5.9627,6.0435,6.0633,6.0666,6.0666,6.0742,6.0781,6.0864,6.0935,6.0973,6.0935,6.1077,6.0911,6.1035,6.1328,6.1608,6.0509,6.0424,6.1313,6.0623,6.1023,6.2335,6.2645,6.316,6.3833,6.4751,6.5068,6.4848,6.4774,6.4848,6.5105,6.4958,6.4884,6.5215,6.5068,6.5141,6.5141,6.5215,6.5301,6.5325,6.5435,6.5545,6.5472,6.5325,6.5338,6.5362,6.5325,6.5705,6.6402,6.6512,6.6893,6.7664,6.8458,6.8935,6.9288,7.0389,7.116,7.1344,7.2004,7.2386,7.2386,7.2496,7.2239,7.1747,7.149,7.0793,6.9486,6.9082,6.8641,6.7921,6.77,6.77,6.77,6.77,6.77,6.77,6.7737,6.8031,6.8715,6.9009,6.9265,6.9816,7.0183,7.0183,7.0183,7.0293,7.0624,7.1197,7.1307,7.1637,7.2129,7.2092,7.2018,7.2275,7.2445,7.243,7.2452,7.238,7.257,7.2688,7.2973,7.3413,7.3597,7.3707,7.3817,7.4059,7.4169,7.4463,7.4793,7.4867,7.5014,7.538,7.5601,7.538,6.0396,6.0441,6.0671,6.0781,6.0781,6.0781,6.0781,6.0858,6.1402,6.1672,6.1787,6.2281,6.2506,6.2512,6.2551,6.2666,6.2879,6.2354,6.2424,6.284,6.234,6.2398,6.3006,6.2915,6.2939,6.3196,6.3453,6.36,6.3673,6.3673,6.3833,6.4347,6.453,6.4787,6.5325,6.5325,6.5325,6.5362,6.5852,6.6109,6.6182,6.6659,6.6916,6.6966,6.693,6.6953,6.693,6.6402,6.6512,6.7283,6.7333,6.7687,6.8495,6.9302,6.9963,7.0499,7.0977,7.1564,7.2078,7.2349,7.2532,7.2532,7.2532,7.2422,7.2151,7.2078,7.1358,6.9963,6.9706,6.9229,6.8031,6.77,6.77,6.77,6.77,6.7737,6.7884,6.8238,6.8862,6.9559,6.9706,6.9853,7.0146,7.0513,7.094,7.0991,7.1358,7.1835,7.2018,7.2041,7.2151,7.2496,7.2532,7.2606,7.2716,7.301,7.3303,7.334,7.334,7.3303,7.3413,7.3582,7.4001,7.4404,7.4515,7.4735,7.494,7.516,7.5417,7.5601,7.5726,7.6004,7.6445,7.6408,7.6151,6.0781,6.0819,6.1133,6.1287,6.1325,6.1589,6.1743,6.182,6.2287,6.2551,6.2666,6.3045,6.3314,6.3314,6.3314,6.3506,6.3737,6.3814,6.4084,6.422,6.3119,6.2927,6.3376,6.3367,6.349,6.371,6.3747,6.3747,6.3747,6.3747,6.4004,6.4494,6.453,6.4971,6.5655,6.5765,6.5839,6.6219,6.6696,6.6953,6.7026,6.7444,6.77,6.7737,6.7958,6.8141,6.8141,6.7907,6.7907,6.8178,6.8398,6.8875,6.9376,7.011,7.0756,7.1197,7.16,7.1967,7.2422,7.2496,7.2532,7.2532,7.2532,7.2496,7.2459,7.2312,7.1431,7.0367,6.9779,6.9119,6.7994,6.77,6.7811,6.8128,6.8164,6.8288,6.8545,6.9009,6.9669,7.0293,7.055,7.0697,7.1027,7.1321,7.1747,7.1821,7.2165,7.2532,7.2532,7.2496,7.2532,7.2642,7.2899,7.2973,7.3046,7.3487,7.4074,7.4147,7.4147,7.4147,7.4184,7.4353,7.4683,7.5322,7.5579,7.5931,7.6188,7.6114,7.6225,7.6371,7.6497,7.6702,7.6959,7.7069,7.6885,6.0902,6.105,6.1826,6.2172,6.2249,6.2858,6.3083,6.3237,6.3352,6.3352,6.3391,6.3622,6.3622,6.3506,6.3737,6.4083,6.4551,6.4705,6.5006,6.4924,6.3652,6.2757,6.311,6.3526,6.3992,6.4628,6.4774,6.4884,6.4591,6.4591,6.5178,6.4995,6.5007,6.5558,6.6035,6.6366,6.6549,6.7026,6.7297,6.7283,6.7333,6.7554,6.7627,6.7737,6.8385,6.8862,6.9045,6.9559,6.9633,6.9192,6.9669,7.0073,7.0293,7.0903,7.138,7.149,7.2078,7.2239,7.2386,7.2129,7.2165,7.2129,7.2129,7.2386,7.2055,7.1541,7.0881,7.0,6.9376,6.8641,6.7921,6.7811,6.8201,6.8898,6.9045,6.9302,7.0,7.0146,7.055,7.116,7.1417,7.16,7.2188,7.2349,7.2386,7.2422,7.2459,7.2496,7.2532,7.2532,7.2532,7.2826,7.323,7.356,7.367,7.4404,7.4955,7.5028,7.5102,7.516,7.5124,7.5234,7.5491,7.6114,7.6497,7.6922,7.7105,7.6885,7.6848,7.6922,7.7069,7.7252,7.7326,7.7326,7.7326,6.2095,6.2666,6.2891,6.2974,6.3012,6.3237,6.3314,6.3391,6.4006,6.4275,6.4359,6.4974,6.5089,6.5205,6.5166,6.5359,6.5474,6.5513,6.5628,6.5718,6.4863,6.3681,6.3063,6.3039,6.3282,6.3527,6.3637,6.3453,6.3453,6.3563,6.3857,6.4383,6.442,6.4824,6.5485,6.5618,6.5692,6.5888,6.5999,6.6072,6.6145,6.6623,6.7113,6.7737,6.8495,6.9155,6.9779,7.055,7.0624,6.9926,7.0536,7.0977,7.1013,7.1651,7.2004,7.1945,7.1725,7.1615,7.1519,7.1129,7.0835,7.0734,7.0979,7.0734,7.0734,7.055,7.0,6.9376,6.8958,6.8568,6.7994,6.8274,6.9155,7.0316,7.0183,7.0146,7.0756,7.1013,7.1307,7.2004,7.2151,7.2261,7.2422,7.2532,7.2532,7.2532,7.2532,7.2569,7.2642,7.2679,7.2753,7.323,7.367,7.4074,7.4515,7.5285,7.5763,7.5909,7.6093,7.6335,7.6261,7.6261,7.6592,7.7032,7.6922,7.7179,7.7252,7.7142,7.7289,7.7326,7.7326,7.7326,7.7326,7.7326,7.7326,6.2897,6.3352,6.3698,6.3852,6.3891,6.4243,6.4391,6.4474,6.4897,6.5166,6.5243,6.5634,6.5904,6.5904,6.5865,6.5904,6.5904,6.5904,6.609,6.6378,6.6208,6.503,6.3628,6.3132,6.3026,6.2793,6.2829,6.2829,6.2829,6.2793,6.3099,6.3466,6.3539,6.398,6.4787,6.5178,6.5521,6.5852,6.6109,6.6329,6.6366,6.6733,6.7136,6.7774,6.8495,6.9252,7.0036,7.055,7.0697,7.077,7.1344,7.1674,7.138,7.1711,7.1872,7.1541,7.1027,7.0882,7.1008,7.0655,7.0591,7.0695,7.0618,7.046,7.0344,6.9998,6.9302,6.8995,6.8641,6.8348,6.8495,6.9229,7.0243,7.1013,7.1174,7.1284,7.1747,7.1798,7.2018,7.2386,7.2532,7.2532,7.2532,7.2532,7.2532,7.2532,7.2532,7.2716,7.2973,7.2973,7.3266,7.3891,7.4478,7.4955,7.5395,7.6056,7.6387,7.6555,7.6628,7.6995,7.6995,7.6959,7.7069,7.7252,7.7289,7.7326,7.7326,7.7326,7.7326,7.7326,7.7326,7.7326,7.7326,7.7326,7.7326,6.3468,6.3622,6.4397,6.4743,6.4859,6.5551,6.5705,6.5865,6.5936,6.6019,6.6096,6.6128,6.6397,6.6134,6.6474,6.6244,6.6244,6.6397,6.6705,6.7165,6.7255,6.6362,6.4574,6.4167,6.3791,6.3407,6.3123,6.3196,6.3343,6.3233,6.316,6.3417,6.3343,6.3539,6.4457,6.5007,6.5707,6.6327,6.6784,6.712,6.7246,6.7505,6.7789,6.8146,6.9082,6.9745,7.0259,7.0451,7.0672,7.1315,7.1957,7.1651,7.1211,7.1188,7.102,7.0541,7.0404,7.0494,7.0722,7.0707,7.0773,7.0968,7.077,7.0744,7.0375,6.9543,6.8907,6.8847,6.8232,6.8458,6.9302,7.0463,7.116,7.1564,7.2078,7.2422,7.2532,7.2532,7.2532,7.2532,7.2532,7.2532,7.2532,7.2532,7.2569,7.2936,7.2936,7.323,7.356,7.3817,7.4258,7.4882,7.5432,7.5983,7.6387,7.6775,7.6959,7.7142,7.7069,7.7215,7.7215,7.7179,7.7252,7.7326,7.7326,7.7326,7.7326,7.7326,7.7326,7.7326,7.7326,7.7326,7.7326,7.7326,7.7326,6.4705,6.5359,6.5513,6.5628,6.5628,6.582,6.5904,6.6013,6.659,6.6865,6.6981,6.7513,6.7776,6.7782,6.7705,6.7898,6.7744,6.7737,6.8007,6.8077,6.8184,6.7768,6.663,6.6032,6.5292,6.4831,6.4751,6.4751,6.4727,6.4593,6.4751,6.4703,6.462,6.4824,6.5046,6.537,6.5607,6.6145,6.6474,6.6892,6.7353,6.7846,6.8322,6.8884,7.0159,7.0968,7.1265,7.1351,7.1452,7.142,7.1002,7.062,7.0564,7.0824,7.0808,7.0599,7.0401,7.0447,7.0465,7.0095,6.9734,7.0012,7.0016,6.9643,6.9611,6.9148,6.8679,6.8606,6.862,6.9274,7.0426,7.1013,7.1564,7.2041,7.2349,7.251,7.251,7.251,7.2532,7.2532,7.2532,7.2532,7.2532,7.2532,7.2753,7.323,7.356,7.3817,7.4221,7.4625,7.5124,7.5711,7.6041,7.6497,7.6775,7.7032,7.7142,7.7326,7.7326,7.7326,7.7326,7.7326,7.7326,7.7326,7.7326,7.7326,7.7326,7.7326,7.7326,7.7326,7.7326,7.7326,7.7326,7.7326,7.7326,6.5474,6.5865,6.5904,6.6128,6.6442,6.6481,6.6705,6.709,6.7513,6.7705,6.7782,6.8237,6.8391,6.8391,6.8391,6.8353,6.8507,6.8853,6.9007,6.9122,6.9339,6.9304,6.881,6.812,6.7327,6.5987,6.5393,6.5419,6.5558,6.5482,6.5333,6.5657,6.5706,6.5618,6.5852,6.6278,6.6758,6.7139,6.7428,6.7748,6.8085,6.8427,6.8794,6.9275,7.0122,7.0564,7.0495,7.0544,7.0544,7.0444,7.0071,6.9916,7.0239,7.0551,7.0526,7.0177,7.0014,7.0095,7.0071,6.9957,6.986,7.0009,6.982,6.9711,6.972,6.9501,6.9346,6.9243,6.9607,7.0346,7.1216,7.1747,7.2129,7.2349,7.251,7.2638,7.2816,7.27,7.2532,7.2532,7.2532,7.2532,7.2532,7.2534,7.2884,7.339,7.3655,7.4022,7.5139,7.5542,7.5931,7.6371,7.6592,7.6848,7.7105,7.7252,7.7252,7.7326,7.7326,7.7326,7.7326,7.7326,7.7326,7.7326,7.7326,7.7326,7.7326,7.7326,7.7326,7.7326,7.7326,7.7326,7.7326,7.7326,7.7326,6.6096,6.609,6.6205,6.6673,6.725,6.7321,6.7667,6.8276,6.8545,6.8584,6.866,6.8699,6.9045,6.8853,6.8891,6.8814,6.9045,6.9468,6.986,6.9937,7.036,7.0359,7.0039,6.9645,6.8821,6.6801,6.6439,6.6439,6.653,6.6195,6.6611,6.6613,6.6631,6.6855,6.6977,6.7587,6.8256,6.845,6.8885,6.9285,6.9427,6.9559,6.9597,6.9683,6.9806,6.9957,6.9967,6.9901,6.973,6.954,6.955,6.9919,7.0315,7.0415,7.0206,6.9518,6.9692,6.9999,7.0281,7.0296,7.0386,7.0871,7.0501,7.0342,7.0455,7.0563,7.0513,7.0592,7.0897,7.1467,7.1787,7.2435,7.2764,7.2871,7.2816,7.3024,7.3277,7.3003,7.2708,7.2875,7.2818,7.2698,7.2667,7.2656,7.3088,7.3505,7.3822,7.4353,7.55,7.6181,7.6417,7.6607,7.6665,7.6922,7.7179,7.7252,7.7252,7.7326,7.7326,7.7326,7.7326,7.7326,7.7326,7.7326,7.7326,7.7326,7.7326,7.7326,7.7326,7.7326,7.7326,7.7326,7.7326,7.7326,7.7326,6.6904,6.6981,6.7667,6.8084,6.816,6.8199,6.8314,6.8507,6.9244,6.9475,6.959,7.0167,7.036,7.0398,7.043,7.0437,7.0321,7.0514,7.0591,7.0591,7.086,7.0769,7.0659,7.0346,6.9768,6.9471,6.8804,6.8498,6.8573,6.8719,6.8302,6.861,6.8614,6.8614,6.8597,6.9059,6.9323,6.9547,6.9848,7.012,7.037,7.0471,7.0471,7.0471,7.0448,7.0478,7.0524,7.06,7.063,7.063,7.063,7.0684,7.0677,7.0442,7.0153,7.0073,7.029,7.0509,7.0645,7.0741,7.0784,7.0878,7.0846,7.1209,7.1505,7.1598,7.1756,7.211,7.2421,7.2932,7.3725,7.3743,7.3897,7.3946,7.3876,7.3908,7.3872,7.3515,7.3258,7.3631,7.333,7.2918,7.2853,7.2981,7.3479,7.4021,7.455,7.5018,7.5883,7.6272,7.636,7.6484,7.6592,7.6848,7.7179,7.7179,7.7215,7.7289,7.7326,7.7326,7.7326,7.7326,7.7326,7.7326,7.7326,7.7326,7.7326,7.7326,7.7326,7.7326,7.7326,7.7326,7.7326,7.7326,7.7326,6.7366,6.7821,6.8237,6.866,6.9007,6.9052,6.9314,6.9744,7.0129,7.0321,7.0437,7.0706,7.0898,7.0898,7.0898,7.0898,7.0898,7.0898,7.0898,7.0898,7.0898,7.0898,7.0898,7.0608,7.0532,7.0417,7.0203,6.991,6.9701,6.9365,6.9511,6.9683,6.9711,6.9711,6.9793,7.0006,7.0187,7.0486,7.0509,7.0622,7.0878,7.0898,7.0898,7.0898,7.0898,7.0898,7.0898,7.0898,7.0891,7.0885,7.0885,7.0898,7.0805,7.0681,7.0501,7.0532,7.0755,7.0898,7.0898,7.0937,7.1084,7.1514,7.1591,7.2014,7.2678,7.3024,7.3286,7.3662,7.3626,7.3803,7.4174,7.4336,7.4293,7.4293,7.4299,7.421,7.4023,7.3666,7.3868,7.4201,7.3618,7.3167,7.3096,7.3357,7.3872,7.4495,7.5166,7.5708,7.6229,7.6111,7.6027,7.5963,7.6,7.6298,7.6628,7.6812,7.7105,7.7252,7.7326,7.7326,7.7326,7.7326,7.7326,7.7326,7.7326,7.7326,7.7326,7.7326,7.7326,7.7326,7.7326,7.7326,7.7326,7.7326,7.7326,6.8013,6.866,6.8853,6.9314,6.986,6.9937,7.0283,7.0821,7.086,7.086,7.0898,7.0898,7.0898,7.0898,7.0898,7.0898,7.0898,7.0898,7.0898,7.0898,7.0898,7.0898,7.0898,7.0898,7.0864,7.0784,7.0777,7.0666,7.0282,6.9918,6.9965,7.0137,7.0274,7.0274,7.0338,7.0585,7.0871,7.0898,7.0898,7.0898,7.0898,7.0898,7.0898,7.0898,7.0898,7.0898,7.0898,7.0898,7.0898,7.0898,7.0898,7.0898,7.0898,7.0898,7.0898,7.0898,7.0898,7.0975,7.1168,7.1245,7.1629,7.236,7.2444,7.2937,7.3661,7.4303,7.4943,7.5136,7.4942,7.4664,7.4799,7.4528,7.4424,7.4358,7.4246,7.4057,7.3908,7.376,7.3814,7.3828,7.3526,7.3573,7.3697,7.3706,7.4229,7.452,7.5151,7.5615,7.5991,7.5589,7.5396,7.5245,7.5291,7.5617,7.5931,7.6313,7.6738,7.7252,7.7289,7.7326,7.7326,7.7326,7.7326,7.7326,7.7326,7.7326,7.7326,7.7326,7.7326,7.7326,7.7326,7.7326,7.7326,7.7326,7.7326,6.9475,6.959,7.0321,7.0667,7.0706,7.0706,7.0783,7.086,7.0898,7.0898,7.0898,7.0898,7.0898,7.0898,7.0898,7.0898,7.0898,7.0898,7.0898,7.0898,7.0898,7.0898,7.0898,7.0898,7.0898,7.0898,7.0898,7.0885,7.0681,7.0615,7.0645,7.0741,7.0695,7.0777,7.0688,7.0843,7.0891,7.0898,7.0898,7.0898,7.0898,7.0898,7.0898,7.0898,7.0898,7.0898,7.0937,7.0975,7.1014,7.1014,7.0975,7.0937,7.0898,7.0898,7.0898,7.0898,7.0975,7.1245,7.1822,7.2014,7.2399,7.3129,7.3353,7.3776,7.4507,7.5207,7.5716,7.5862,7.5679,7.5531,7.5283,7.4957,7.4728,7.435,7.3994,7.3736,7.3583,7.3699,7.3775,7.409,7.3959,7.4317,7.4542,7.4512,7.4573,7.4795,7.5085,7.5592,7.5696,7.526,7.4731,7.4502,7.4412,7.4662,7.5249,7.5616,7.6276,7.6959,7.7252,7.7289,7.7326,7.7326,7.7326,7.7326,7.7326,7.7326,7.7326,7.7326,7.7326,7.7326,7.7326,7.7326,7.7326,7.7326,7.7326,7.0398,7.0398,7.0744,7.0898,7.0898,7.0898,7.0898,7.0898,7.0898,7.0898,7.0898,7.0898,7.0898,7.0898,7.0898,7.0898,7.0898,7.0898,7.0898,7.0898,7.0898,7.0898,7.0898,7.0898,7.0898,7.0898,7.0898,7.0898,7.0898,7.0898,7.0898,7.0898,7.0898,7.0878,7.0898,7.0898,7.0898,7.0898,7.0898,7.0898,7.0898,7.0898,7.0898,7.0937,7.0937,7.0975,7.1052,7.1437,7.1591,7.1745,7.2014,7.236,7.2353,7.2392,7.2392,7.2392,7.2392,7.236,7.2283,7.2706,7.336,7.3937,7.4238,7.4584,7.5284,7.5707,7.5976,7.5969,7.5515,7.5322,7.5168,7.4514,7.4161,7.3892,7.3776,7.3623,7.3507,7.3546,7.3685,7.4077,7.4507,7.4861,7.5207,7.524,7.5226,7.5341,7.5493,7.5706,7.5571,7.5019,7.4402,7.3731,7.3647,7.3648,7.4331,7.4882,7.5652,7.6371,7.7142,7.7215,7.7289,7.7326,7.7326,7.7326,7.7326,7.7326,7.7326,7.7326,7.7326,7.7326,7.7326,7.7326,7.7326,7.7326,7.7326,7.0898,7.0898,7.0898,7.0898,7.0898,7.0898,7.0898,7.0898,7.0898,7.0898,7.0898,7.0898,7.0898,7.0898,7.0898,7.0898,7.0898,7.0898,7.0898,7.0898,7.0898,7.0898,7.0898,7.0898,7.0898,7.0898,7.0552,7.0667,7.0783,7.0706,7.0591,7.086,7.0898,7.0898,7.0898,7.0898,7.0898,7.0898,7.0898,7.0898,7.0937,7.1168,7.1245,7.1321,7.1398,7.1552,7.1629,7.2091,7.2514,7.2629,7.2969,7.3238,7.3276,7.3238,7.3238,7.3315,7.343,7.3476,7.3322,7.3553,7.4207,7.4707,7.5053,7.5284,7.5745,7.5976,7.5784,7.5592,7.5168,7.4815,7.4546,7.4046,7.393,7.3815,7.3699,7.3584,7.3546,7.3776,7.4007,7.4392,7.4853,7.5361,7.5668,7.5861,7.593,7.593,7.5962,7.5939,7.5501,7.4952,7.4347,7.3653,7.3429,7.3383,7.378,7.4441,7.5139,7.5836,7.6592,7.7142,7.7252,7.7289,7.7326,7.7326,7.7326,7.7326,7.7326,7.7326,7.7326,7.7326,7.7326,7.7326,7.7326,7.7326,7.7326,7.0898,7.0898,7.0898,7.0898,7.0898,7.0898,7.0898,7.0898,7.0898,7.0898,7.0898,7.0898,7.0898,7.0898,7.0898,7.0898,7.0898,7.0898,7.0975,7.0975,7.0937,7.1091,7.1168,7.1206,7.0975,7.086,7.0514,7.0475,7.0591,7.0398,7.0475,7.0783,7.0706,7.0821,7.1052,7.1283,7.1206,7.1206,7.1206,7.1206,7.1398,7.1706,7.2098,7.2283,7.2822,7.3315,7.3276,7.3353,7.3392,7.3399,7.3699,7.3853,7.3969,7.393,7.393,7.4007,7.4392,7.4399,7.4315,7.443,7.4976,7.5592,7.5745,7.5515,7.5515,7.5822,7.5592,7.4969,7.4661,7.4661,7.443,7.4123,7.3853,7.3853,7.3776,7.3738,7.3853,7.4276,7.4507,7.4815,7.52,7.5668,7.5822,7.5976,7.5976,7.5976,7.5969,7.5939,7.5592,7.5083,7.4426,7.3879,7.3504,7.3461,7.3552,7.4111,7.4625,7.5359,7.6151,7.6775,7.7215,7.7252,7.7326,7.7326,7.7326,7.7326,7.7326,7.7326,7.7326,7.7326,7.7326,7.7326,7.7326,7.7326,7.7326,7.0898,7.0898,7.0898,7.0898,7.0898,7.0898,7.0898,7.0898,7.0898,7.0898,7.0937,7.0898,7.0898,7.0937,7.0898,7.0898,7.0898,7.0898,7.1206,7.1591,7.1745,7.2014,7.2129,7.186,7.1713,7.1444,7.086,7.0514,7.0783,7.0398,7.0591,7.0744,7.0475,7.0975,7.136,7.1898,7.1975,7.1822,7.2129,7.243,7.2591,7.2706,7.2976,7.3053,7.3199,7.3507,7.3546,7.4007,7.4161,7.4315,7.4668,7.4784,7.4861,7.4899,7.4861,7.4822,7.5168,7.5053,7.4815,7.5007,7.5438,7.5046,7.5123,7.5046,7.4776,7.4553,7.4707,7.443,7.4315,7.4276,7.4546,7.4007,7.3623,7.3776,7.393,7.3969,7.4238,7.47,7.5007,7.5277,7.5553,7.5899,7.5976,7.5976,7.5976,7.5976,7.5962,7.5917,7.56,7.5306,7.4731,7.4245,7.3885,7.3277,7.3328,7.3683,7.4118,7.4918,7.5763,7.6445,7.7032,7.7252,7.7326,7.7326,7.7326,7.7326,7.7326,7.7326,7.7326,7.7326,7.7326,7.7326,7.7326,7.7326,7.7326,7.0898,7.0898,7.0898,7.0898,7.0898,7.0898,7.0898,7.0898,7.0898,7.1091,7.1283,7.1283,7.1475,7.1591,7.1706,7.1738,7.1815,7.186,7.1937,7.2052,7.2213,7.2437,7.2399,7.2129,7.1559,7.1598,7.1052,7.0552,7.0898,7.0667,7.0667,7.0552,7.0206,7.0667,7.1514,7.2322,7.2437,7.2129,7.2322,7.2738,7.2622,7.2899,7.3283,7.3315,7.3469,7.3738,7.3815,7.4123,7.4315,7.4661,7.5091,7.563,7.5861,7.5976,7.5861,7.5707,7.5515,7.5207,7.4784,7.4745,7.4976,7.443,7.4353,7.4161,7.393,7.3815,7.4392,7.4584,7.4238,7.4084,7.4707,7.4238,7.4276,7.4623,7.4738,7.4815,7.4969,7.5322,7.5553,7.5784,7.5938,7.5976,7.5976,7.5976,7.5976,7.5976,7.5969,7.5962,7.5902,7.5567,7.5219,7.4731,7.4352,7.3625,7.3007,7.3447,7.3905,7.4698,7.5491,7.6225,7.6775,7.7069,7.7326,7.7326,7.7326,7.7326,7.7326,7.7326,7.7326,7.7326,7.7326,7.7326,7.7326,7.7326,7.7326,7.0898,7.0898,7.0937,7.0975,7.1091,7.0937,7.0975,7.1052,7.1129,7.1514,7.2129,7.2168,7.2552,7.3084,7.3007,7.2892,7.2822,7.293,7.2783,7.229,7.2175,7.1783,7.1552,7.1398,7.1482,7.0821,7.0475,7.0475,7.0898,7.0437,7.0437,7.0591,7.0321,7.0206,7.0898,7.1014,7.1014,7.1014,7.1245,7.1514,7.1745,7.236,7.2937,7.3315,7.3507,7.3738,7.4046,7.3853,7.4007,7.443,7.4745,7.5168,7.5515,7.5745,7.5476,7.4815,7.4776,7.4353,7.3699,7.3623,7.3584,7.3623,7.3623,7.3776,7.4315,7.4507,7.4507,7.4584,7.4546,7.4584,7.47,7.4784,7.513,7.5322,7.5438,7.5515,7.563,7.5668,7.5861,7.5938,7.5976,7.5976,7.5976,7.5976,7.5976,7.5976,7.5976,7.5969,7.6,7.5818,7.551,7.5082,7.4652,7.4034,7.3404,7.3341,7.3729,7.4503,7.5234,7.5968,7.6665,7.7179,7.7326,7.7326,7.7326,7.7326,7.7326,7.7326,7.7326,7.7326,7.7326,7.7326,7.7326,7.7326,7.7326,7.1245,7.1752,7.1745,7.2091,7.2476,7.1975,7.1783,7.186,7.236,7.2783,7.3007,7.3053,7.3161,7.3469,7.3469,7.3276,7.2783,7.2629,7.229,7.2252,7.2213,7.2514,7.2245,7.1783,7.1675,7.1521,7.0975,7.0514,7.0898,7.0475,7.0591,7.0744,7.0591,7.036,7.0744,7.1321,7.2437,7.2014,7.2283,7.2668,7.2629,7.2822,7.3091,7.3392,7.3392,7.3546,7.3815,7.343,7.3507,7.3892,7.4168,7.4546,7.4661,7.4815,7.4738,7.4084,7.3892,7.3815,7.3353,7.3122,7.2668,7.2822,7.3238,7.3399,7.3206,7.3661,7.4046,7.4623,7.4815,7.5007,7.5399,7.5515,7.5745,7.5784,7.5822,7.5822,7.5899,7.5899,7.5976,7.5976,7.5976,7.5976,7.5976,7.5976,7.5976,7.5976,7.5976,7.5976,7.6007,7.5932,7.5702,7.5297,7.4848,7.4331,7.3885,7.3747,7.3985,7.4795,7.5264,7.5711,7.6371,7.7179,7.7326,7.7326,7.7326,7.7326,7.7326,7.7326,7.7326,7.7326,7.7326,7.7326,7.7326,7.7326,7.7326,7.1867,7.2629,7.2668,7.2976,7.3353,7.2899,7.2668,7.2745,7.3276,7.3623,7.3853,7.3892,7.393,7.393,7.3853,7.3469,7.2706,7.2668,7.2329,7.229,7.2213,7.2206,7.2168,7.2129,7.1552,7.1598,7.1321,7.0898,7.0898,7.0898,7.0898,7.0898,7.0898,7.0629,7.0783,7.1591,7.2129,7.1745,7.1975,7.2199,7.2276,7.2469,7.2629,7.2776,7.2783,7.2706,7.2853,7.2853,7.2776,7.3129,7.3476,7.3815,7.3738,7.3853,7.3853,7.3315,7.3046,7.3168,7.3238,7.3161,7.2899,7.286,7.3245,7.336,7.3129,7.386,7.4469,7.4892,7.5046,7.5399,7.5822,7.5976,7.5976,7.5976,7.5976,7.5976,7.5976,7.5976,7.5976,7.5976,7.5976,7.5976,7.5976,7.5976,7.5976,7.5976,7.5976,7.5976,7.5976,7.5939,7.591,7.5584,7.5289,7.4924,7.4437,7.4023,7.4425,7.5107,7.5403,7.5625,7.6481,7.7326,7.7326,7.7326,7.7326,7.7326,7.7326,7.7326,7.7326,7.7326,7.7326,7.7326,7.7326,7.7326,7.7326,7.2745,7.3469,7.3546,7.3584,7.3623,7.3699,7.3623,7.3623,7.3623,7.4084,7.47,7.4661,7.4546,7.463,7.4584,7.4007,7.3276,7.3199,7.2668,7.2206,7.1944,7.1668,7.136,7.1245,7.1398,7.1206,7.1206,7.1552,7.1091,7.1398,7.1398,7.1206,7.1437,7.1321,7.1437,7.1552,7.1591,7.1437,7.1283,7.1437,7.1468,7.1283,7.1668,7.1822,7.1745,7.1745,7.1822,7.1822,7.1898,7.2168,7.2521,7.2937,7.3238,7.3507,7.3014,7.2591,7.2437,7.2937,7.3507,7.3546,7.3699,7.3738,7.3776,7.4084,7.4322,7.4553,7.5091,7.5476,7.5707,7.5822,7.5976,7.5976,7.5976,7.5976,7.5976,7.5976,7.5976,7.5976,7.5976,7.5976,7.5976,7.5976,7.5976,7.5976,7.5976,7.5976,7.5976,7.5976,7.5976,7.5976,7.5954,7.5947,7.5702,7.5575,7.512,7.4527,7.4937,7.5668,7.5421,7.5609,7.6552,7.7335,7.7326,7.7326,7.7326,7.7326,7.7326,7.7326,7.7326,7.7326,7.7326,7.7326,7.7326,7.7326,7.7326,7.3623,7.4315,7.4353,7.47,7.5245,7.5284,7.5284,7.5284,7.5284,7.5476,7.5592,7.4969,7.4756,7.4661,7.4123,7.3413,7.292,7.2437,7.1937,7.1675,7.1688,7.1251,7.1245,7.1552,7.1745,7.2014,7.2283,7.2514,7.2661,7.2661,7.2661,7.2776,7.2469,7.2552,7.2584,7.2699,7.1937,7.136,7.1168,7.1168,7.1091,7.1129,7.136,7.136,7.1398,7.1437,7.1437,7.1822,7.2052,7.2213,7.3399,7.3969,7.343,7.3969,7.4014,7.3276,7.3238,7.3469,7.4161,7.4353,7.4546,7.4969,7.513,7.4853,7.5053,7.5245,7.5668,7.5861,7.5976,7.5976,7.5976,7.5976,7.5976,7.5976,7.5976,7.5976,7.5976,7.5976,7.5976,7.5976,7.5976,7.5976,7.5976,7.5976,7.5976,7.5976,7.5976,7.5976,7.5976,7.5976,7.5976,7.5976,7.5939,7.5749,7.5468,7.4924,7.557,7.6085,7.5879,7.606,7.7151,7.7695,7.7441,7.7326,7.7326,7.7326,7.7326,7.7326,7.7326,7.7326,7.7326,7.7326,7.7326,7.7326,7.7326,7.4469,7.5168,7.5207,7.5754,7.6488,7.6344,7.6397,7.6573,7.5948,7.5787,7.6097,7.5253,7.4828,7.4877,7.4375,7.3784,7.3065,7.3017,7.2725,7.2475,7.1884,7.2066,7.2245,7.2388,7.2629,7.2976,7.3129,7.3276,7.3546,7.3507,7.343,7.3392,7.3507,7.3507,7.3392,7.3238,7.2899,7.236,7.2014,7.1937,7.186,7.186,7.1898,7.1822,7.186,7.186,7.1898,7.2514,7.2668,7.2706,7.3969,7.4007,7.3546,7.393,7.4392,7.3815,7.4007,7.443,7.5053,7.5245,7.5553,7.5822,7.5976,7.5707,7.5592,7.5668,7.5861,7.5976,7.5976,7.5976,7.5976,7.5976,7.5976,7.5976,7.5976,7.5976,7.5976,7.5976,7.5976,7.5976,7.5976,7.5976,7.5976,7.5976,7.5976,7.5976,7.5976,7.5976,7.5976,7.5976,7.5976,7.5976,7.5954,7.5864,7.5589,7.5492,7.6132,7.6576,7.6605,7.6968,7.7906,7.7846,7.7426,7.7326,7.7326,7.7326,7.7326,7.7326,7.7326,7.7326,7.7326,7.7326,7.7326,7.7326,7.7326,7.5305,7.6164,7.6216,7.688,7.756,7.7028,7.7155,7.7644,7.5934,7.5614,7.6271,7.5566,7.5236,7.5159,7.4718,7.4319,7.3812,7.3627,7.3553,7.3741,7.3302,7.3194,7.3285,7.3625,7.3703,7.3676,7.384,7.4279,7.3913,7.4007,7.4123,7.3699,7.3853,7.4046,7.4123,7.4084,7.393,7.3822,7.3623,7.3546,7.3276,7.3353,7.3507,7.3353,7.3315,7.3315,7.3392,7.3507,7.3584,7.3584,7.3738,7.3892,7.3969,7.4014,7.4353,7.4584,7.4815,7.513,7.5592,7.5745,7.5822,7.5938,7.5976,7.5938,7.5899,7.5861,7.5976,7.5976,7.5976,7.5976,7.5976,7.5976,7.5976,7.5976,7.5976,7.5976,7.5976,7.5976,7.5976,7.5976,7.5976,7.5976,7.5976,7.5976,7.5976,7.5976,7.5976,7.5976,7.5976,7.5976,7.5976,7.5976,7.5962,7.5947,7.5949,7.6035,7.6662,7.7052,7.7183,7.7592,7.8353,7.8012,7.732,7.7326,7.7326,7.7326,7.7326,7.7326,7.7326,7.7326,7.7326,7.7326,7.7326,7.7326,7.7326,7.6274,7.7278,7.8113,7.8582,7.8668,7.7933,7.7764,7.7931,7.6227,7.5926,7.6434,7.6276,7.5852,7.5401,7.4817,7.4442,7.4293,7.4403,7.4005,7.4102,7.4084,7.4154,7.4095,7.4571,7.47,7.4895,7.5119,7.5305,7.5141,7.5207,7.5322,7.5322,7.5245,7.513,7.513,7.5168,7.513,7.5053,7.5053,7.4546,7.3853,7.3584,7.3507,7.3546,7.3623,7.3699,7.3853,7.4161,7.4315,7.4469,7.513,7.5361,7.5438,7.5361,7.5476,7.563,7.5592,7.5745,7.5861,7.5976,7.5976,7.5976,7.5976,7.5976,7.5976,7.5976,7.5976,7.5976,7.5976,7.5976,7.5976,7.5976,7.5976,7.5976,7.5976,7.5976,7.5976,7.5976,7.5976,7.5976,7.5976,7.5976,7.5976,7.5976,7.5976,7.5976,7.5976,7.5976,7.5976,7.5976,7.5976,7.5976,7.5976,7.5993,7.6047,7.6509,7.7188,7.7649,7.7854,7.8322,7.8836,7.8058,7.7326,7.7326,7.7326,7.7326,7.7326,7.7326,7.7326,7.7326,7.7326,7.7326,7.7326,7.7326,7.7326,7.7046,7.7687,7.844,7.8971,7.906,7.8091,7.7873,7.8098,7.7282,7.6873,7.6739,7.6427,7.6108,7.6017,7.553,7.5269,7.5278,7.5367,7.5466,7.5335,7.5077,7.5167,7.533,7.5482,7.5476,7.5699,7.5863,7.6023,7.5998,7.5938,7.5899,7.5976,7.5976,7.5976,7.5976,7.5976,7.5976,7.5938,7.5976,7.5438,7.4507,7.4546,7.4591,7.463,7.4584,7.4546,7.47,7.5091,7.5168,7.5322,7.5707,7.5822,7.5861,7.5822,7.5899,7.5938,7.5938,7.5976,7.5976,7.5976,7.5976,7.5976,7.5976,7.5976,7.5976,7.5976,7.5976,7.5976,7.5976,7.5976,7.5976,7.5976,7.5976,7.5976,7.5976,7.5976,7.5976,7.5976,7.5976,7.5976,7.5976,7.5976,7.5976,7.5976,7.5976,7.5976,7.5976,7.5976,7.5976,7.5976,7.5976,7.5976,7.5976,7.6015,7.6077,7.6769,7.7731,7.8127,7.8352,7.8618,7.8753,7.7914,7.7326,7.7326,7.7326,7.7326,7.7326,7.7326,7.7326,7.7326,7.7326,7.7326,7.7326,7.7326,7.7326,7.7788,7.7884,7.8379,7.897,7.9331,7.8041,7.789,7.8515,7.8359,7.7812,7.7148,7.6294,7.6468,7.6824,7.705,7.7101,7.6983,7.6527,7.6706,7.6683,7.6581,7.6277,7.6167,7.6354,7.6216,7.6094,7.6115,7.6079,7.5984,7.5976,7.5976,7.5976,7.5976,7.5976,7.6015,7.5976,7.5976,7.5976,7.5976,7.5976,7.5938,7.5976,7.5822,7.5861,7.5976,7.5976,7.5976,7.5976,7.5976,7.5938,7.5938,7.5976,7.5976,7.5976,7.5976,7.5976,7.5976,7.5976,7.5976,7.5976,7.5976,7.5976,7.5976,7.5976,7.5976,7.5976,7.5976,7.5976,7.5976,7.5976,7.5976,7.5976,7.5976,7.5976,7.5976,7.5976,7.5976,7.5976,7.5976,7.5976,7.5976,7.5976,7.5976,7.5976,7.5976,7.5976,7.5976,7.5976,7.5976,7.5976,7.5976,7.5976,7.5976,7.6015,7.6053,7.663,7.7553,7.807,7.8258,7.8624,7.8704,7.8108,7.7644,7.7326,7.7326,7.7326,7.7326,7.7326,7.7326,7.7326,7.7326,7.7326,7.7326,7.7326,7.7326,7.8768,7.9135,8.006,8.0547,8.039,7.8906,7.8711,7.914,7.8008,7.7305,7.7265,7.7109,7.707,7.7226,7.7187,7.7187,7.7187,7.7109,7.7148,7.7104,7.7031,7.6914,7.6863,7.6864,7.6771,7.6707,7.6571,7.6212,7.6528,7.6335,7.6053,7.6169,7.613,7.6092,7.6092,7.6092,7.613,7.6169,7.613,7.613,7.6053,7.6015,7.5976,7.5976,7.5976,7.5976,7.5976,7.5976,7.5976,7.5976,7.5976,7.5976,7.5976,7.5976,7.5976,7.5976,7.5976,7.5976,7.5976,7.5976,7.5976,7.5976,7.5976,7.5976,7.5976,7.5976,7.5976,7.5976,7.5976,7.5976,7.5976,7.5976,7.5976,7.5976,7.5976,7.5976,7.5976,7.5976,7.5976,7.5976,7.5976,7.5976,7.5976,7.5976,7.5976,7.5976,7.5976,7.5976,7.5976,7.5976,7.5976,7.5976,7.5976,7.5976,7.6015,7.6207,7.6931,7.7554,7.8234,7.8651,7.8789,7.8551,7.8077,7.7495,7.7289,7.7326,7.7326,7.7326,7.7326,7.7326,7.7326,7.7326,7.7326,7.7326,7.7326]}]]